GFSSGP_con_sbcape_000.txt.gz
CAPE
0 0 0 0 0 0 0 0 0 1 46 68 101 152 201 313 252 150 334 571 792 811 902 871 984 1146 1269 1139 1075 1196 1098 796 769 809 793 629 538 527 483 409 447 229 103 86 55 68 103 130 189
0 0 0 0 0 0 0 0 94 101 74 36 28 24 136 189 656 483 599 975 717 945 970 990 985 1125 1283 1242 1278 1231 1057 874 854 894 773 600 521 401 300 278 325 97 46 31 21 4 1 4 8
0 0 0 0 0 0 0 4 86 66 25 13 1 0 0 271 697 461 766 916 881 866 910 1069 1138 1253 1363 1374 1332 1293 1284 1216 1129 982 709 593 463 303 138 118 43 16 9 2 0 0 0 0 0
0 0 0 0 0 0 0 3 0 16 0 12 0 29 4 99 528 632 1043 979 832 740 771 949 1201 1330 1388 1422 1458 1445 1336 1189 1119 993 671 556 375 192 59 24 0 0 0 0 0 0 0 0 0
0 0 0 0 0 0 0 0 0 5 6 2 0 27 11 813 730 969 1003 916 846 846 922 1047 1331 1399 1461 1495 1488 1391 1150 958 1026 937 721 526 363 194 42 0 0 0 0 0 0 0 0 0 0
0 0 0 0 0 0 0 15 98 73 22 16 77 46 34 875 881 1013 977 860 874 983 1227 1240 1351 1315 1297 1344 1302 1121 953 928 998 881 682 495 387 223 27 0 0 0 0 0 0 0 0 5 2
0 0 0 0 0 0 0 44 109 87 55 50 26 34 338 772 965 1174 1023 938 1017 1278 1334 1253 1299 1248 1215 1096 1002 961 932 945 925 870 726 590 449 249 60 7 37 26 5 24 41 119 96 69 92
0 0 0 0 0 0 0 0 1 37 69 14 18 384 621 565 1114 1090 768 638 640 717 866 865 1061 1270 903 836 873 802 743 759 805 805 654 434 309 259 205 202 60 215 184 156 221 203 212 198 162
0 0 0 1 0 0 0 0 0 2 33 19 1 104 373 802 780 668 722 687 667 747 774 833 803 829 679 572 660 734 761 686 673 666 548 348 50 10 53 157 310 290 294 271 313 364 321 250 144
0 0 0 0 0 0 1 1 13 58 44 8 0 128 587 809 595 516 485 533 534 680 631 553 537 502 393 591 491 349 353 335 312 364 270 129 64 49 149 129 266 451 463 576 552 517 505 338 23
0 0 0 0 0 0 0 0 0 44 59 9 121 300 360 658 615 534 504 482 584 634 527 315 243 191 249 373 202 53 96 77 89 118 74 82 130 81 71 84 19 8 111 59 10 15 13 0 0
0 0 0 0 0 0 0 0 43 0 10 34 90 309 260 411 316 323 246 223 169 260 269 183 51 40 26 0 24 2 38 35 84 148 159 121 50 10 0 0 0 0 0 0 0 0 0 0 0
0 0 0 0 0 0 0 0 0 0 3 0 7 178 173 219 118 15 3 7 0 82 50 13 0 0 0 3 1 0 40 108 118 168 172 3 0 0 0 0 0 0 0 0 0 0 0 0 0
0 0 0 0 0 0 0 0 0 0 0 0 1 69 13 117 0 0 0 0 0 20 19 5 0 0 0 0 0 0 2 65 185 133 7 0 0 0 0 0 0 0 0 0 0 0 0 0 0
0 0 0 0 0 0 0 0 0 0 0 0 0 0 0 0 0 0 0 0 0 0 0 0 0 0 0 0 0 0 0 0 2 0 0 0 0 0 0 0 0 0 0 0 0 0 0 0 0
0 0 0 0 0 0 0 0 0 0 45 1 0 0 0 0 0 0 0 0 0 0 58 26 37 23 0 0 0 0 0 0 0 0 0 0 0 0 0 0 0 0 0 0 0 0 0 0 0
0 0 0 0 0 0 0 0 0 0 4 0 0 0 0 0 0 0 0 0 0 122 56 36 9 0 0 0 0 0 0 0 0 0 0 0 0 0 0 0 0 0 0 0 0 0 0 0 0
0 0 0 0 0 0 0 0 0 0 0 0 0 0 0 0 0 0 0 0 0 0 0 0 0 0 0 0 0 0 0 0 0 0 0 0 0 0 0 0 0 0 0 0 0 0 0 0 0
0 0 0 0 0 0 0 0 0 0 0 0 0 0 0 0 0 0 0 0 0 0 0 0 0 0 0 0 0 0 0 0 0 0 0 0 0 0 0 0 0 0 0 0 0 0 0 0 0
0 0 0 0 0 0 0 0 0 0 0 0 0 0 0 0 0 0 0 0 0 0 0 0 0 0 0 0 0 0 0 0 0 0 0 0 0 0 0 0 0 0 0 0 0 0 0 0 0
0 0 0 0 0 0 0 0 0 0 0 0 0 0 0 0 0 0 0 0 0 0 0 0 0 0 0 0 0 0 0 0 0 0 0 0 0 0 0 0 0 0 0 0 0 0 0 0 0
0 0 0 0 0 0 0 0 0 0 0 0 0 0 0 0 0 0 0 0 0 0 0 0 0 0 0 0 0 0 0 0 0 0 0 0 0 0 0 0 0 0 0 0 0 0 0 0 0
0 0 0 0 0 0 0 0 0 0 0 0 0 0 0 0 0 0 0 0 0 0 0 0 0 0 0 0 0 0 0 0 0 0 0 0 0 0 0 0 0 0 0 0 0 0 0 0 0
0 0 0 0 0 0 0 0 0 0 0 0 0 0 0 0 0 0 0 0 0 0 0 0 0 0 0 0 0 0 0 0 0 0 0 0 0 0 0 0 0 0 0 0 0 0 0 0 0
0 0 0 0 0 0 0 0 0 0 0 0 0 0 0 0 0 0 0 0 0 0 0 0 0 0 0 0 0 0 0 0 0 0 0 0 0 0 0 0 0 0 0 0 0 0 0 0 0
0 0 0 0 0 0 0 0 0 0 0 0 0 0 0 0 0 0 0 0 0 0 0 0 0 0 0 0 0 0 0 0 0 0 0 0 0 0 0 0 0 0 0 0 0 0 0 0 0
0 0 0 0 0 0 0 0 0 0 0 0 0 0 0 0 0 0 0 0 0 0 0 0 0 0 0 0 0 0 0 0 0 0 0 0 0 0 0 0 0 0 0 0 0 0 0 0 0
0 0 0 0 0 0 0 0 0 0 0 0 0 0 0 0 0 0 0 0 0 0 0 0 0 0 0 0 0 0 0 0 0 0 0 0 0 0 0 0 0 0 0 0 0 0 0 0 0
0 0 0 0 0 0 0 0 0 0 0 0 0 0 0 0 0 0 0 0 0 0 0 0 0 0 0 0 0 0 0 0 0 0 0 0 0 0 0 0 0 0 0 0 0 0 0 0 0
0 0 0 0 0 0 0 0 0 0 0 0 0 0 0 0 0 0 0 0 0 0 0 0 0 0 0 0 0 0 0 0 0 0 0 0 0 0 0 0 0 0 0 0 0 0 0 0 0

GFSSGP_con_sbcape_003.txt.gz
CAPE
0 0 0 0 0 0 0 0 0 54 119 119 243 221 171 135 195 387 487 706 873 1092 1027 800 682 881 1080 1024 1083 1131 1138 888 778 803 691 563 548 505 421 328 534 280 58 34 11 0 0 0 0
0 0 0 0 0 0 0 0 117 159 89 17 6 20 51 11 30 616 772 1081 1110 1211 1084 729 709 941 1156 1109 1291 1229 1134 903 913 871 675 580 470 381 351 325 423 111 27 3 0 0 0 0 0
0 0 0 0 0 0 0 50 131 82 26 0 0 3 63 22 22 670 921 1253 1330 1229 1095 871 788 902 1119 1233 1115 1324 1321 1291 1306 927 657 549 392 213 188 115 126 4 0 0 0 0 0 0 0
0 0 0 0 0 0 0 140 187 49 9 0 1 16 113 341 682 714 1411 1406 1275 1037 970 812 786 944 1059 1238 1516 1471 1380 1303 1246 1004 683 524 324 151 66 13 0 0 0 0 0 0 0 0 0
0 0 0 0 0 0 0 113 196 77 18 4 0 0 135 982 1037 1340 1365 1259 1151 1040 1135 1095 940 954 1099 1410 1568 1428 1239 1098 1127 994 766 519 339 144 17 0 0 0 0 0 0 0 0 1 49
0 0 0 0 0 0 0 103 141 51 43 17 20 98 329 1233 1380 1340 1317 1092 1086 1095 1143 1108 1067 1133 1347 1421 1342 1105 953 978 978 907 687 496 384 164 18 24 5 0 0 13 14 0 21 72 142
0 0 0 0 0 0 32 134 72 63 87 53 39 244 920 1187 1304 1243 1133 1152 1194 1412 1441 1413 1401 1470 1185 1137 1102 985 867 915 879 804 707 535 372 228 121 121 185 198 100 143 182 155 182 188 283
0 0 0 0 1 0 0 30 53 3 107 6 198 650 908 868 1136 1049 1103 1175 1267 1613 1448 1377 1539 1454 1469 1513 1064 988 911 815 781 699 593 374 335 292 277 269 133 321 395 327 401 362 360 343 370
0 0 0 0 0 0 0 0 0 3 115 15 0 617 861 1305 1383 1244 1023 873 1045 1177 1297 1319 1184 1373 1601 1533 1223 871 783 716 694 588 485 329 348 323 339 211 323 487 397 463 608 572 490 387 276
0 0 0 0 0 0 0 0 2 78 91 8 115 979 1384 1124 1210 1031 968 896 930 949 959 976 981 1187 1145 1104 1055 872 663 476 449 428 533 520 547 533 467 463 343 463 445 627 496 380 336 318 267
0 0 0 0 0 0 0 0 0 147 131 58 298 877 990 1009 854 682 684 794 926 751 746 766 871 980 985 910 762 563 399 378 388 483 461 553 598 820 788 727 596 531 197 116 11 16 51 123 68
0 0 0 0 0 0 0 1 60 32 6 25 630 1408 1105 1004 756 934 936 787 841 861 789 903 654 644 536 422 407 234 228 288 380 505 618 761 703 467 146 77 22 14 7 11 0 0 0 0 0
0 0 0 0 0 0 0 21 70 0 3 128 906 1404 1583 1543 1278 909 626 543 522 611 581 362 207 181 119 117 138 144 232 384 504 620 766 757 546 185 33 0 0 0 0 0 0 0 0 0 0
0 0 0 0 0 0 0 0 0 0 0 269 948 1315 1390 1243 636 300 123 123 278 364 324 130 30 38 52 55 102 98 1 16 198 278 8 13 74 21 0 0 0 0 0 0 0 0 0 0 0
0 0 0 0 0 0 0 0 0 0 0 98 589 377 346 264 134 183 3 0 72 207 153 75 43 95 94 84 134 20 0 0 0 0 0 0 0 0 0 0 0 0 0 0 0 0 0 0 0
0 0 0 0 0 0 0 0 0 0 0 0 0 0 0 0 0 0 0 0 62 171 206 68 140 50 0 0 0 0 0 0 0 0 0 0 0 0 0 0 0 0 0 0 0 0 0 0 0
0 0 0 0 0 0 0 0 0 0 0 0 0 0 0 0 0 0 0 0 282 386 272 187 1 0 0 0 0 0 0 0 0 0 0 0 0 0 0 0 0 0 0 0 0 0 0 0 0
0 0 0 0 0 0 0 0 0 0 0 0 0 0 0 0 0 0 0 320 515 374 108 0 0 0 0 0 0 0 0 0 0 0 0 0 0 0 0 0 0 0 0 0 0 0 0 0 0
0 0 0 0 0 0 0 0 0 0 0 0 0 0 0 0 0 0 1 173 198 120 4 0 0 0 0 0 0 0 0 0 0 0 0 0 0 0 0 0 0 0 0 0 0 0 0 0 0
0 0 0 0 0 0 0 0 0 0 0 0 0 0 0 0 0 0 0 277 494 300 183 4 0 0 0 0 0 0 0 0 0 0 0 0 0 0 0 0 0 0 0 0 0 0 0 0 0
0 0 0 0 0 0 0 0 0 0 0 0 0 0 0 0 0 0 0 51 9 0 0 0 0 0 0 0 0 0 0 0 0 0 0 0 0 0 0 0 0 0 0 0 0 0 0 0 0
0 0 0 0 0 4 0 3 0 0 0 0 0 0 0 0 0 0 0 0 0 0 0 0 0 0 0 0 0 0 0 0 0 0 0 0 0 0 0 0 0 0 0 0 0 0 0 0 0
0 0 0 0 0 0 0 0 0 0 0 0 0 0 0 0 0 0 0 0 0 0 0 0 0 0 0 0 0 0 0 0 0 0 0 0 0 0 0 0 0 0 0 0 0 0 0 0 0
0 0 0 0 0 0 0 0 0 0 0 0 0 0 0 0 0 0 0 0 0 0 0 0 0 0 0 0 0 0 0 0 0 0 0 0 0 0 0 0 0 0 0 0 0 0 0 0 0
0 0 2 3 6 0 0 0 0 0 0 0 0 0 0 0 0 0 0 0 0 0 0 0 0 0 0 0 0 0 0 0 0 0 0 0 0 0 0 0 0 0 0 0 0 0 0 0 0
0 0 17 0 0 0 0 0 0 0 0 0 0 0 0 0 0 0 0 0 0 0 0 0 0 0 0 0 0 0 0 0 0 0 0 0 0 0 0 0 0 0 0 0 0 0 0 0 0
0 0 0 0 0 0 0 0 0 0 0 0 0 0 0 0 0 0 0 0 0 0 0 0 0 0 0 0 0 0 0 0 0 0 0 0 0 0 0 0 0 0 0 0 0 0 1 0 8
0 0 0 0 0 0 0 0 0 0 0 0 0 0 0 0 0 0 0 0 0 0 0 0 0 0 0 0 0 0 0 0 0 0 0 0 0 0 0 0 0 1 1 0 0 1 4 9 27
0 0 0 0 0 0 0 0 0 0 0 0 0 0 0 0 0 0 0 0 0 0 0 0 0 0 0 0 0 0 0 0 0 0 0 0 0 0 0 0 1 4 0 0 5 3 0 2 25
0 0 0 0 0 0 0 0 0 0 0 0 0 0 0 0 0 0 0 0 0 0 0 0 0 0 0 0 0 0 0 0 0 0 0 0 0 0 0 0 0 4 0 0 0 0 0 1 0

GFSSGP_con_sbcape_006.txt.gz
CAPE
0 0 0 0 0 0 0 0 227 550 565 509 489 283 181 163 582 470 648 743 921 1032 918 522 783 978 998 991 1112 1129 1163 885 788 685 538 471 388 310 287 250 304 71 7 0 0 0 0 0 0
0 0 0 0 0 0 1 0 15 588 292 64 21 91 23 12 202 783 719 949 930 1140 1154 691 680 890 1109 1174 1187 1173 1116 949 894 668 523 407 313 278 271 150 160 4 0 0 0 0 0 0 0
0 0 0 0 0 0 5 40 614 341 92 12 2 12 26 3 83 659 753 1057 1183 1134 1000 901 803 873 766 1090 1019 1095 1277 1375 993 713 527 385 222 192 116 36 0 0 0 0 0 0 0 0 0
0 0 0 0 0 0 14 470 416 294 174 47 0 0 7 60 73 388 758 1071 1166 1105 1190 521 642 631 602 946 1037 1489 1457 1344 1110 882 548 365 205 59 1 0 0 0 0 0 0 0 0 0 40
0 0 0 0 0 0 55 535 479 372 139 73 54 42 10 453 714 778 1230 1065 698 827 1160 894 693 597 698 1023 1356 1488 1333 1228 1041 755 576 393 170 0 0 0 0 0 0 0 0 0 15 46 97
0 0 0 0 0 0 0 446 597 292 17 33 71 256 301 1178 1208 1347 1335 763 825 1122 1129 923 746 824 776 1035 1216 1081 1005 1024 922 735 554 384 144 35 30 18 14 29 20 26 22 26 65 107 136
0 0 0 0 37 47 44 472 449 139 37 124 210 516 1244 1368 1487 1685 1261 977 1212 1399 1315 1061 998 952 1077 1024 926 808 851 900 829 696 556 339 176 128 110 143 203 187 104 112 167 156 227 237 257
0 0 0 2 116 200 279 520 59 0 9 328 489 502 1253 1488 1539 1286 1057 1204 1529 1323 1371 1357 1244 1230 1168 1246 946 853 807 802 768 568 419 309 301 231 264 123 240 288 307 327 362 494 551 444 432
0 0 0 77 169 349 400 160 112 23 207 466 254 823 1434 1683 1311 1312 1195 1171 1526 1274 1249 1006 1085 1106 1037 1070 1114 802 768 676 545 466 351 206 262 297 201 164 273 492 516 545 624 486 362 332 363
0 0 16 72 139 141 25 22 84 379 472 328 867 1404 1862 1528 1588 1561 1413 1217 1142 1235 1181 1234 1205 1054 1113 814 761 538 322 192 175 352 581 407 810 823 601 407 456 477 326 472 58 7 63 131 17
0 0 0 0 9 65 39 53 130 373 486 376 1027 1650 1688 1534 1602 1324 1021 952 794 771 962 907 944 922 867 620 386 112 68 216 474 724 853 894 1038 1079 735 431 290 326 50 91 6 4 0 17 0
0 0 0 0 0 4 28 66 222 195 89 234 1443 1681 1958 1749 1606 1430 1292 780 860 805 943 801 622 711 641 203 137 258 317 571 692 946 1090 1196 1117 1115 481 301 198 208 59 9 1 0 0 0 0
0 0 0 0 0 37 76 274 261 27 375 1076 1560 1671 1772 1310 1107 695 584 527 497 526 643 596 481 426 325 316 464 587 726 854 961 1140 1212 890 319 331 401 300 79 1 0 0 0 0 0 0 0
0 0 0 0 0 0 101 39 43 0 357 1124 1436 1380 1504 1422 814 553 436 384 296 536 563 412 248 358 587 769 867 429 286 311 618 952 575 194 180 35 117 27 0 0 0 0 0 0 0 0 0
0 0 0 0 0 0 0 0 0 3 185 1131 1087 1192 1336 1254 833 366 228 150 299 603 493 392 487 666 489 344 303 182 57 70 145 388 418 150 83 8 0 0 0 0 0 0 0 0 0 0 0
0 0 0 0 0 0 0 0 0 41 299 892 1111 1268 1166 868 578 412 283 118 329 642 573 375 436 445 276 93 0 0 6 25 18 5 0 0 0 0 0 0 0 0 0 0 0 0 0 0 0
0 0 0 0 0 0 0 0 0 157 302 423 683 786 497 311 335 386 196 169 401 681 650 602 437 76 0 16 0 0 0 0 0 0 0 0 0 0 0 0 0 0 0 0 0 0 0 0 0
0 0 0 0 0 0 5 32 0 164 341 320 385 436 407 352 376 374 164 314 568 849 813 598 353 287 402 157 0 0 0 0 0 0 0 0 0 0 0 0 0 0 0 0 0 0 0 0 0
0 1 0 0 12 96 86 86 35 137 354 489 450 364 323 312 386 496 662 718 779 979 850 670 458 307 364 76 39 0 0 0 0 0 0 0 0 0 0 0 0 0 0 0 0 0 0 0 0
0 0 32 0 0 118 180 207 95 63 161 412 500 498 448 371 497 631 810 850 844 767 701 598 456 377 46 9 0 0 0 0 0 0 0 0 0 0 0 0 0 0 0 0 0 0 0 0 5
72 80 84 32 26 118 221 273 219 115 85 79 248 369 398 590 693 831 963 1044 1035 961 927 615 215 1 0 0 0 0 0 0 0 0 0 0 0 0 0 0 0 0 0 0 0 0 0 0 0
125 13 19 50 72 125 52 277 335 287 268 235 184 286 478 693 924 965 1123 1193 1073 1004 500 26 0 0 0 0 0 0 0 0 0 0 0 0 0 0 0 0 0 0 0 1 4 0 0 0 0
102 62 81 58 157 137 119 180 432 284 344 328 277 352 439 555 500 388 270 249 11 0 0 0 0 0 0 0 0 0 0 0 0 0 0 0 0 0 0 0 0 0 0 7 10 3 0 0 0
5 59 68 81 139 163 117 120 191 357 351 360 212 66 53 26 1 0 0 0 0 0 0 0 0 0 0 0 0 0 0 0 0 0 0 0 0 0 0 0 0 8 15 30 6 0 0 1 0
60 128 130 78 139 140 9 34 73 126 131 373 209 0 0 0 0 0 0 0 0 0 0 0 0 0 0 0 0 0 0 0 0 0 0 0 0 0 0 0 0 9 44 5 1 1 0 11 10
91 112 69 9 105 43 0 14 32 0 0 239 86 0 0 0 0 0 0 0 0 0 0 0 0 0 0 0 0 0 0 0 0 0 0 0 0 0 0 0 7 15 11 1 6 67 48 24 20
0 4 11 34 1 71 22 41 8 0 0 33 4 0 0 0 0 0 0 0 0 0 0 0 0 0 0 0 0 0 0 0 0 0 0 0 0 0 0 12 26 25 10 33 39 44 25 22 13
0 0 5 21 9 0 0 3 2 0 0 0 0 0 0 0 0 0 0 0 0 0 0 0 0 0 0 0 0 0 0 0 0 0 0 0 0 0 0 28 48 14 46 51 58 41 27 16 27
0 0 0 0 0 0 0 0 0 0 0 0 0 0 0 0 0 0 0 0 0 0 0 0 0 0 0 0 0 0 0 0 0 0 0 0 0 0 0 15 44 59 55 71 72 30 25 25 36
0 0 0 0 0 0 0 0 0 0 0 0 0 0 0 0 0 0 0 0 0 0 0 0 0 0 0 0 0 0 0 0 0 0 0 0 0 0 0 7 29 57 64 62 15 23 36 44 38

GFSSGP_con_sbcape_009.txt.gz
CAPE
0 0 0 0 0 0 0 16 18 552 647 575 592 665 474 578 762 666 561 808 829 839 528 352 858 1039 962 901 1039 1083 1184 776 657 524 421 303 217 261 237 270 314 23 0 0 0 0 0 0 0
0 0 0 0 0 6 37 29 4 789 493 535 280 129 97 287 752 932 785 932 977 888 475 289 856 1001 1090 1042 973 1026 1018 880 630 472 342 240 202 170 146 121 168 2 0 0 0 0 0 0 0
0 0 0 0 0 1 50 145 776 675 491 358 98 3 6 25 594 883 923 917 1085 937 601 484 850 713 858 767 805 803 971 1111 801 605 324 183 119 62 60 0 0 0 0 0 0 0 0 0 30
0 0 0 0 0 7 0 717 570 455 290 168 84 101 0 1 248 753 1142 1174 951 952 765 466 597 655 862 723 787 889 1239 1057 930 691 300 151 21 0 0 0 0 14 11 0 0 12 27 57 129
0 0 0 0 0 23 0 314 167 395 242 220 247 2 0 4 355 377 852 884 928 578 422 481 379 410 752 809 845 1009 1219 983 837 534 336 109 0 0 0 0 21 27 28 11 15 32 70 107 122
0 0 0 0 33 8 0 358 297 97 51 30 147 57 130 634 427 680 810 521 346 421 467 495 463 636 650 695 936 916 984 868 750 506 288 69 26 42 26 42 67 49 41 73 76 105 171 205 244
0 0 0 34 31 28 12 268 138 198 37 3 90 304 814 729 911 1064 505 0 378 46 599 664 771 710 580 669 674 715 788 790 683 472 284 126 120 114 125 186 223 247 181 190 270 308 359 388 351
0 0 0 16 54 208 90 251 444 309 196 217 7 40 873 968 1533 1180 792 811 675 322 955 1070 1005 1043 1099 952 657 702 699 680 586 405 247 179 216 175 153 118 349 420 420 455 591 577 459 395 407
0 0 4 39 160 246 422 474 39 10 0 13 188 757 1024 1393 1535 1307 1107 1105 961 981 1151 1046 929 907 891 969 835 689 722 635 474 423 257 220 390 272 187 204 345 489 453 461 524 132 72 161 387
0 0 10 56 230 288 174 196 101 26 41 188 792 1251 1668 1529 1157 1315 1199 1151 978 904 836 896 936 855 951 568 542 334 107 99 163 428 361 410 505 347 5 140 394 458 308 324 303 73 173 111 3
0 0 19 9 23 62 23 13 68 17 256 446 1272 1344 1221 1272 1111 1170 1108 708 596 953 906 832 956 823 635 419 183 51 23 171 506 679 547 760 500 660 437 301 340 368 242 183 78 62 49 23 0
0 0 0 0 0 0 2 14 108 1 0 150 890 1285 1132 1506 1374 1240 1057 542 695 892 893 649 539 590 441 149 56 72 444 525 552 815 814 819 598 565 457 400 480 286 218 90 69 83 22 0 0
0 0 0 0 0 0 4 26 9 78 227 641 1186 1252 1054 1335 1009 794 456 429 480 532 498 453 440 421 382 337 511 712 946 934 1065 1088 1085 846 503 301 181 212 137 308 68 57 63 57 0 0 0
0 0 0 0 0 46 185 57 0 200 407 745 1009 771 620 641 432 338 352 325 325 488 532 386 232 383 619 883 805 470 452 518 470 786 1081 778 452 268 139 95 90 48 47 28 1 0 0 0 0
0 0 0 0 4 79 13 2 12 322 460 470 530 428 365 270 210 203 230 262 413 502 409 399 701 802 752 580 340 226 119 84 217 552 920 1064 679 445 265 8 46 60 0 0 0 0 0 0 0
0 0 20 13 8 0 0 3 8 225 491 514 516 540 582 489 301 184 125 147 633 593 466 606 752 667 462 319 0 56 93 76 40 1 21 0 0 0 0 0 0 0 0 0 0 0 0 0 0
0 0 2 12 5 0 0 1 39 130 452 611 760 874 797 626 468 373 237 214 683 842 668 612 755 549 465 138 174 38 1 0 0 0 0 0 0 0 0 0 0 0 0 0 0 0 0 0 0
2 9 5 3 0 0 12 24 70 158 301 612 749 912 784 697 573 536 406 293 615 936 843 817 681 440 546 550 93 0 0 0 0 0 0 0 0 0 0 0 0 0 0 0 1 0 0 1 12
0 0 4 5 0 1 61 27 49 206 220 297 507 733 773 777 840 809 547 623 819 1131 1086 973 736 636 706 348 108 11 0 0 0 0 0 0 0 0 0 0 0 0 0 1 9 18 24 8 1
1 4 24 3 1 129 103 157 94 178 268 400 407 482 601 725 814 784 884 871 1021 1291 1244 1019 826 727 280 76 10 41 16 0 0 0 0 0 0 0 0 0 0 1 0 2 10 25 19 1 0
10 7 33 75 116 117 124 228 239 171 321 491 560 586 612 750 901 1042 1069 1146 1238 1217 1060 924 700 273 23 5 0 0 0 0 0 0 0 0 0 0 0 0 0 0 2 0 10 7 16 5 0
32 83 40 62 153 114 54 135 180 344 297 292 455 632 726 870 1068 1248 1250 1144 1213 1191 984 525 144 3 0 0 0 0 2 2 0 0 0 0 0 0 0 0 0 0 0 1 3 6 12 11 7
195 164 149 159 210 150 163 112 31 422 414 340 379 497 660 864 1115 1254 1398 1370 1115 882 530 46 0 0 0 0 0 0 0 0 0 0 0 0 0 0 0 0 0 0 0 2 11 29 27 21 31
160 198 182 136 169 204 79 11 295 503 424 451 528 644 919 1134 1158 1000 811 710 374 111 2 0 0 0 0 0 0 0 0 0 0 0 0 0 0 0 0 0 0 0 0 10 30 34 30 33 19
168 220 165 192 344 186 104 148 134 99 226 417 541 626 737 699 430 202 163 0 0 0 0 0 0 0 0 0 0 0 0 0 0 0 0 0 0 0 0 0 0 0 2 19 11 21 24 31 45
116 117 188 57 141 127 148 74 87 123 39 178 514 425 416 236 16 0 0 0 0 0 0 0 0 0 0 0 0 0 0 0 0 0 0 0 0 0 0 0 0 8 16 10 20 57 77 66 50
74 101 90 155 148 139 52 39 94 84 54 187 503 309 226 38 0 0 0 0 0 0 0 0 0 0 0 0 0 0 0 0 0 0 0 0 0 0 0 0 7 25 32 36 63 60 77 68 54
41 36 47 13 0 37 74 71 48 165 63 104 446 238 97 2 0 0 0 0 0 0 0 0 0 0 0 0 0 0 0 0 0 0 0 0 0 0 0 0 0 20 54 59 52 56 63 39 53
12 0 0 36 153 113 1 32 2 0 18 67 258 205 93 4 0 0 0 0 0 0 0 0 0 0 0 0 0 0 0 0 0 0 0 0 0 0 0 0 0 8 25 44 58 63 76 50 65
3 43 8 0 0 1 27 2 0 0 0 10 73 141 81 7 0 0 0 0 0 0 0 0 0 0 0 0 0 0 0 0 0 0 0 0 0 0 0 0 8 22 31 28 30 50 45 66 59

GFSSGP_con_sbcape_012.txt.gz
CAPE
0 0 0 0 0 0 0 0 0 548 738 521 387 507 638 794 880 544 565 488 193 152 311 349 731 757 791 918 1077 1081 1107 913 698 492 389 344 234 193 293 262 102 39 0 0 0 0 0 0 0
0 0 0 0 0 0 0 1 846 828 627 378 320 307 259 778 1022 930 838 794 516 262 165 318 766 710 846 966 1041 952 1085 748 596 428 283 282 164 90 130 138 110 117 0 0 0 0 0 0 0
0 0 0 0 0 0 0 41 509 743 489 317 144 40 33 497 876 807 1046 806 758 252 163 576 749 512 604 819 800 835 962 773 578 418 213 73 26 1 0 215 200 56 0 0 0 0 19 62 253
0 0 0 0 0 0 0 122 821 592 465 225 122 5 0 0 566 909 869 750 739 623 330 429 362 327 528 584 888 1001 900 686 544 448 295 9 0 0 0 234 183 19 24 19 16 32 99 304 258
0 0 0 0 0 0 53 657 369 232 150 25 5 0 0 232 398 1056 817 776 528 160 152 223 166 370 537 575 1045 953 873 681 543 454 257 89 0 0 32 205 182 37 42 43 56 84 272 348 324
0 0 0 0 0 0 4 394 191 83 103 77 11 21 69 197 498 874 677 612 198 172 192 137 203 325 296 656 799 746 700 620 528 423 217 138 219 232 272 341 340 324 328 398 415 426 439 397 333
0 0 0 0 0 0 0 626 171 82 149 34 182 206 4 306 688 127 100 144 127 327 244 118 256 622 516 475 479 529 571 533 521 407 257 287 323 340 404 477 467 465 495 568 649 602 524 463 390
0 0 0 0 0 28 133 396 33 0 98 135 0 0 200 881 781 16 67 39 1 53 163 185 285 200 674 457 399 419 430 409 404 298 220 239 280 323 360 442 503 485 401 397 468 226 128 231 278
0 0 0 0 14 297 59 4 19 144 11 84 8 0 9 1270 1155 889 733 0 0 43 256 270 404 624 771 572 432 445 501 386 380 230 218 92 161 214 287 355 365 338 134 139 221 60 69 141 183
0 0 0 323 436 333 100 0 0 60 2 391 411 0 13 1125 1144 1150 1155 103 10 138 375 467 625 588 632 348 388 204 152 67 184 205 209 341 595 58 32 313 345 438 178 196 252 203 255 156 0
0 0 4 32 37 54 22 9 139 133 36 3 65 675 1296 1063 973 930 1072 805 453 478 602 668 698 791 636 387 305 86 193 304 679 631 761 717 780 671 523 477 541 385 251 220 157 134 53 17 0
0 0 0 29 0 14 87 159 0 0 0 0 32 784 1144 1111 1007 1046 603 616 664 691 702 710 636 420 227 86 53 150 347 609 639 801 675 793 888 701 480 239 52 61 109 133 131 58 22 0 0
0 0 0 0 0 12 23 12 0 0 0 4 77 776 1094 1104 1022 637 327 492 534 504 371 357 434 433 471 392 691 846 834 914 951 960 928 801 546 303 152 88 91 145 96 35 0 0 0 0 0
0 0 0 0 0 96 2 0 21 2 53 401 426 605 827 868 407 221 277 273 443 320 395 414 312 526 712 918 586 544 532 539 530 884 1031 781 555 312 130 64 0 1 0 0 0 0 0 0 0
0 0 0 0 0 35 21 16 58 244 355 320 221 260 284 355 198 280 254 274 417 405 341 252 400 1075 812 657 499 289 0 115 390 596 640 620 5 1 0 0 0 0 0 0 0 0 0 0 0
0 0 0 0 0 12 2 0 25 246 182 237 143 105 137 130 141 186 209 241 418 308 295 419 698 774 496 58 9 78 289 116 0 0 0 0 0 0 0 0 0 0 0 0 0 0 0 0 0
0 0 0 0 0 0 0 0 5 216 252 235 286 254 267 178 122 129 130 349 389 318 468 759 791 532 97 254 191 289 70 0 0 0 0 0 0 0 0 0 0 0 0 0 0 0 0 0 0
0 0 0 0 0 0 0 0 0 80 61 6 385 428 441 331 196 188 100 367 674 496 508 810 731 624 338 504 78 6 0 0 0 0 0 0 0 0 0 0 0 0 0 0 0 0 0 1 0
0 2 2 6 0 0 26 1 0 13 384 471 509 558 598 590 584 432 321 474 954 832 665 763 697 571 604 318 1 0 0 0 0 0 0 0 0 0 0 0 0 0 0 0 0 0 0 0 0
0 15 3 0 0 0 5 8 3 22 36 182 367 543 555 614 662 742 645 505 906 1010 873 884 688 657 682 182 44 59 0 0 0 0 0 0 0 0 0 0 0 0 0 0 0 0 0 0 0
0 16 16 7 0 0 62 46 4 12 56 99 154 327 517 628 867 886 708 935 1412 1058 1043 988 630 719 127 2 0 0 0 0 0 0 0 0 0 0 0 0 0 0 0 0 0 0 0 0 0
41 51 8 15 37 0 50 96 2 92 19 144 273 333 367 548 793 883 1055 1063 1416 996 997 788 620 5 0 0 0 0 0 0 0 0 0 0 0 0 0 0 0 0 0 0 0 0 0 0 0
23 21 36 44 73 148 80 69 91 1 151 174 359 515 608 716 814 1062 1149 1175 1152 806 1007 556 0 0 0 0 0 0 0 0 0 0 0 0 0 0 0 0 0 0 0 0 0 7 2 0 0
71 7 85 23 56 301 12 49 27 17 21 214 214 412 598 694 946 1066 1047 938 809 818 448 1 0 0 0 0 0 0 0 0 0 0 0 0 0 0 0 0 0 0 0 0 4 0 0 0 0
9 28 72 78 182 249 72 77 251 38 112 87 119 415 594 872 938 1014 1042 1030 656 222 3 0 0 0 0 0 0 0 0 0 0 0 0 0 0 0 0 0 0 0 0 0 0 0 0 0 0
52 1 168 8 0 52 36 38 18 213 159 98 340 552 854 986 1006 856 629 340 95 0 0 0 0 0 0 0 0 0 0 0 0 0 0 0 0 0 0 0 0 0 0 0 0 0 4 16 15
0 59 40 10 129 245 15 0 1 24 11 88 558 545 670 627 446 285 196 0 0 0 0 0 0 0 0 0 0 0 0 0 0 0 0 0 0 0 0 0 0 0 0 7 8 13 25 0 2
5 0 98 88 10 0 0 18 112 59 21 8 416 442 443 369 155 23 1 0 0 0 0 0 0 0 0 0 0 0 0 0 0 0 0 0 0 0 0 0 0 0 0 24 24 32 28 26 25
0 2 0 0 285 514 324 29 1 0 1 53 125 505 355 266 70 0 0 0 0 0 0 0 0 0 0 0 0 0 0 0 0 0 0 0 0 0 0 0 0 0 0 0 6 14 5 47 2
0 78 0 510 32 552 394 12 0 0 0 0 13 276 279 170 28 0 0 0 0 0 0 0 0 0 0 0 0 0 0 0 0 0 0 0 0 0 0 0 0 0 10 7 3 9 10 26 4

GFSSGP_con_sbcape_015.txt.gz
CAPE
0 0 0 0 0 0 0 0 22 707 646 353 694 837 896 1017 1108 485 602 250 128 306 534 575 658 739 842 1009 1096 981 884 570 360 338 331 264 137 79 150 124 104 65 0 0 0 0 0 0 0
0 0 0 0 0 0 0 32 698 442 312 235 135 264 714 950 1065 1034 407 228 43 312 312 424 667 743 868 992 1055 863 639 367 388 335 236 223 114 31 134 235 211 189 0 0 0 0 0 0 7
0 0 0 0 0 0 0 125 730 396 234 167 23 1 168 958 1033 896 478 211 137 134 292 496 580 544 757 1004 999 785 637 445 370 287 203 102 26 35 78 260 213 172 0 0 0 0 1 29 142
0 0 0 0 0 0 0 94 572 346 135 28 0 0 0 105 794 986 525 47 73 396 408 275 295 345 680 854 840 775 545 378 308 198 173 59 30 67 125 270 230 36 32 30 46 44 90 254 160
0 0 0 0 0 0 21 584 424 421 305 72 31 0 59 548 896 690 431 222 225 102 80 104 172 252 474 753 897 691 511 399 272 190 158 135 113 58 171 339 285 107 102 99 114 152 324 309 234
0 0 0 0 0 0 250 403 330 206 196 90 61 19 117 815 559 347 195 45 11 19 65 110 270 284 303 415 686 543 443 391 227 237 266 226 295 338 394 408 423 356 378 459 441 353 263 271 267
0 0 0 0 0 146 532 218 68 88 51 43 30 236 58 296 147 272 171 185 93 16 2 41 124 56 288 322 398 384 406 310 209 219 293 300 310 396 474 504 521 450 357 300 190 93 86 169 168
0 0 0 0 0 145 127 150 145 140 112 0 0 5 77 132 79 27 2 0 74 6 9 31 147 146 274 291 274 260 223 159 156 179 181 176 242 350 389 384 434 300 119 54 52 12 36 65 105
0 0 0 77 181 42 21 47 0 46 94 21 0 1 455 8 2 0 0 0 9 68 18 87 62 182 234 248 269 237 267 154 135 148 122 90 40 54 191 122 252 147 84 13 25 31 60 78 12
0 0 0 141 260 155 23 3 0 6 33 36 0 60 314 188 44 0 0 0 15 42 12 5 91 301 342 258 164 76 100 39 8 8 21 0 21 8 30 76 184 146 95 70 71 108 128 31 0
0 0 5 68 34 43 2 53 14 4 37 31 0 0 173 596 57 9 0 0 26 160 184 75 277 388 342 170 84 17 2 4 56 47 26 100 73 35 2 1 23 12 53 23 14 0 0 0 0
0 0 0 77 7 11 0 0 38 0 0 54 7 118 80 438 99 0 45 40 11 160 299 281 415 430 134 236 75 2 8 154 207 228 177 192 34 0 0 0 0 0 0 0 0 0 0 0 0
0 0 0 12 8 40 17 0 0 0 0 0 32 430 521 542 413 5 18 217 402 481 461 252 27 49 0 84 235 246 262 359 484 383 233 70 0 0 0 0 0 0 0 0 0 0 0 0 0
0 0 0 0 0 2 1 0 20 0 0 0 148 221 801 609 408 298 286 314 276 179 89 8 24 94 191 34 8 6 1 19 212 335 180 4 0 0 0 0 0 0 0 0 0 0 0 0 0
0 0 0 0 1 0 0 1 86 0 7 20 13 286 647 217 45 181 252 155 31 53 7 5 28 104 38 12 0 0 0 1 2 0 0 0 0 0 0 0 0 0 0 0 0 0 0 0 0
0 0 0 0 0 1 0 15 218 188 279 107 90 58 202 36 2 4 77 82 68 3 0 0 427 112 4 0 0 0 0 0 0 0 0 0 0 0 0 0 0 0 0 0 0 0 0 0 0
0 0 6 0 0 0 1 9 201 163 121 48 16 29 2 0 0 0 117 70 26 0 3 286 75 0 0 0 0 0 0 0 0 0 0 0 0 0 0 0 0 0 0 0 0 0 0 0 0
0 0 1 0 0 0 0 0 134 41 43 23 51 0 37 6 0 0 58 59 40 22 213 256 23 0 0 6 0 0 0 0 0 0 0 0 0 0 0 0 0 0 0 0 0 0 0 0 0
0 0 2 0 0 0 0 0 33 3 0 47 11 397 78 1 0 0 69 104 93 159 402 308 124 0 16 0 0 0 0 0 0 0 0 0 0 0 0 0 0 0 0 0 0 0 0 0 0
0 0 0 0 0 0 0 0 0 0 1 0 57 133 248 61 29 0 16 190 245 258 420 259 200 69 81 0 0 0 0 0 0 0 0 0 0 0 0 0 0 0 0 0 0 0 0 0 0
0 13 0 0 0 0 9 10 0 0 3 32 26 7 206 122 161 104 72 354 262 332 351 324 185 86 14 0 0 0 0 0 0 0 0 0 0 0 0 0 0 0 0 0 0 0 0 0 0
1 0 9 4 0 1 0 17 40 10 0 2 105 140 248 205 366 344 151 278 394 368 439 391 275 0 0 0 0 0 0 0 0 0 0 0 0 0 0 0 0 0 0 0 0 0 0 0 0
0 0 0 9 0 1 2 1 10 0 0 0 20 35 26 279 385 314 330 561 591 698 518 378 0 0 0 0 0 0 0 0 0 0 0 0 0 0 0 0 0 0 0 0 0 0 0 0 0
17 0 1 1 0 9 29 0 3 0 0 0 78 87 190 201 214 408 544 689 669 500 43 0 0 0 0 0 0 0 0 0 0 0 0 0 0 0 0 0 0 0 0 0 0 0 0 0 0
31 23 7 0 0 6 23 8 0 0 0 0 25 64 98 299 387 527 522 403 402 38 0 0 0 0 0 0 0 0 0 0 0 0 0 0 0 0 0 0 0 0 0 0 0 0 0 0 0
1 0 1 0 0 17 1 9 1 0 0 0 3 3 13 322 330 508 528 501 27 0 0 0 0 0 0 0 0 0 0 0 0 0 0 0 0 0 0 0 0 0 0 0 0 0 0 0 0
5 13 0 3 0 0 6 15 57 6 0 0 0 0 146 521 428 719 508 8 0 0 0 0 0 0 0 0 0 0 0 0 0 0 0 0 0 0 0 0 0 0 0 0 0 0 0 0 0
17 0 22 2 2 0 0 0 8 0 0 1 0 1 395 375 228 66 0 0 0 0 0 0 0 0 0 0 0 0 0 0 0 0 0 0 0 0 0 0 0 0 0 0 0 0 0 0 1
0 0 0 0 0 0 40 1 0 0 0 2 0 110 310 188 12 0 0 0 0 0 0 0 0 0 0 0 0 0 0 0 0 0 0 0 0 0 0 0 0 0 0 0 0 0 0 0 0
0 0 0 0 0 0 0 0 0 0 0 0 2 93 113 42 0 0 0 0 0 0 0 0 0 0 0 0 0 0 0 0 0 0 0 0 0 0 0 0 0 0 0 0 0 0 0 0 0

GFSSGP_con_sbcape_018.txt.gz
CAPE
0 0 0 0 0 0 0 0 0 107 468 417 952 1065 1028 994 947 156 549 460 579 656 640 543 553 693 896 1075 971 774 613 377 229 189 223 154 55 85 161 159 181 191 16 0 0 0 0 0 0
0 0 0 0 0 0 0 0 376 445 284 70 37 610 939 1109 1089 878 583 426 352 487 461 392 575 755 1055 1012 888 550 367 253 245 174 97 130 75 95 274 239 243 278 42 6 0 0 0 0 63
0 0 0 0 0 0 0 142 437 159 74 111 53 5 575 1207 1034 601 344 147 165 207 236 416 593 859 1074 909 686 492 471 368 317 221 105 109 130 108 199 304 330 249 46 26 10 4 0 82 169
0 0 0 0 0 0 0 3 480 256 246 121 0 37 296 695 1077 638 337 223 228 234 317 386 536 960 899 838 652 537 395 288 238 192 208 217 145 164 345 358 329 92 52 29 27 23 53 184 205
0 0 0 0 0 0 0 110 408 269 158 86 0 84 380 594 519 434 325 244 249 202 154 157 297 397 436 632 632 494 350 261 195 156 263 293 287 230 398 369 353 234 103 106 93 103 249 182 305
0 0 0 0 0 27 376 220 295 136 130 44 17 337 614 587 591 326 139 43 65 118 113 145 223 181 231 358 489 375 329 237 160 180 304 344 333 345 423 446 452 434 378 286 182 123 127 112 177
0 0 0 0 0 82 400 140 138 122 58 2 113 341 468 327 238 189 118 4 5 10 31 20 28 69 184 226 294 340 269 175 198 223 267 295 312 359 425 454 459 346 210 54 20 31 41 64 95
0 0 0 0 143 133 81 26 0 24 6 0 0 72 384 264 155 205 2 1 0 7 22 11 3 1 105 254 272 212 208 149 182 224 221 210 265 350 385 326 279 185 4 0 3 29 19 46 150
0 0 0 0 162 126 42 30 0 0 80 0 35 283 178 102 37 43 10 1 0 9 7 0 17 132 136 236 192 201 182 108 124 169 148 54 42 49 66 32 60 39 3 0 8 33 77 0 15
0 0 0 0 190 73 8 0 14 32 138 105 66 28 83 14 0 16 19 13 0 0 2 15 5 144 160 176 120 46 58 24 8 5 6 0 0 0 10 55 25 23 35 47 12 41 0 0 0
0 0 0 38 20 17 0 12 0 24 97 1 49 101 52 12 20 19 8 28 0 0 0 0 22 86 127 72 21 10 1 0 0 0 0 2 0 0 0 0 0 0 0 0 0 0 0 0 0
0 0 0 7 34 0 1 3 7 8 19 1 395 39 188 16 21 4 36 22 31 34 5 0 36 231 123 23 0 0 0 5 17 14 15 0 0 0 0 0 0 0 0 0 0 0 0 0 0
0 0 0 0 6 5 19 39 0 0 10 44 402 461 124 0 3 24 54 31 106 184 123 8 103 267 30 11 0 0 28 132 123 145 36 0 0 0 0 0 0 0 0 0 0 0 0 0 0
0 0 0 3 12 24 28 2 0 0 15 64 222 382 169 28 42 47 50 112 197 303 286 187 166 3 0 1 5 0 68 57 69 9 0 0 0 0 0 0 0 0 0 0 0 0 0 0 0
0 0 0 0 0 2 0 0 2 0 30 256 412 473 483 125 20 83 154 384 460 319 118 0 0 3 0 0 0 0 13 0 0 0 0 0 0 0 0 0 0 0 0 0 0 0 0 0 0
0 0 0 0 1 0 0 39 94 3 12 89 99 338 515 536 170 219 420 451 162 114 0 5 156 0 0 0 0 0 0 0 0 0 0 0 0 0 0 0 0 0 0 0 0 0 0 0 0
0 0 0 0 0 0 0 101 216 32 106 65 204 497 221 305 332 380 314 63 138 13 0 185 4 0 0 0 0 0 0 0 0 0 0 0 0 0 0 0 0 0 0 0 0 0 0 0 0
0 0 0 0 0 1 2 77 317 65 34 1 0 23 0 72 61 275 78 88 54 0 16 125 0 0 0 0 0 0 0 0 0 0 0 0 0 0 0 0 0 0 0 0 0 0 0 0 0
0 0 0 0 0 0 0 84 105 28 66 34 71 47 1 39 34 198 129 62 0 0 211 62 0 0 0 0 0 0 0 0 0 0 0 0 0 0 0 0 0 0 0 0 0 0 0 0 0
0 0 0 0 0 0 0 121 36 1 64 53 140 137 75 1 1 196 137 50 0 139 277 37 0 0 0 0 0 0 0 0 0 0 0 0 0 0 0 0 0 0 0 0 0 0 0 0 0
0 0 0 0 0 0 0 0 11 4 3 0 8 139 89 25 0 70 112 74 74 286 277 93 0 0 0 0 0 0 0 0 0 0 0 0 0 0 0 0 0 0 0 0 0 0 0 0 0
0 0 0 14 0 0 0 0 0 0 0 24 0 45 0 49 0 2 88 71 166 366 340 202 70 0 0 0 0 0 0 0 0 0 0 0 0 0 0 0 0 0 0 0 0 0 0 0 0
0 0 0 4 0 0 0 0 0 0 0 0 0 3 0 1 0 0 109 85 115 277 213 129 18 0 0 0 0 0 0 0 0 0 0 0 0 0 0 0 0 0 0 0 0 0 0 0 0
0 0 0 0 0 0 0 0 0 1 0 0 0 16 0 0 0 0 113 134 100 153 260 152 0 0 0 0 0 0 0 0 0 0 0 0 0 0 0 0 0 0 0 0 0 0 0 0 0
5 0 0 0 0 0 0 0 0 0 0 0 0 0 1 0 4 54 288 317 325 260 0 0 0 0 0 0 0 0 0 0 0 0 0 0 0 0 0 0 0 0 0 0 0 0 0 0 0
1 0 0 0 0 0 0 0 3 0 0 0 0 0 0 12 169 357 434 394 262 2 0 0 0 0 0 0 0 0 0 0 0 0 0 0 0 0 0 0 0 0 0 0 0 0 0 0 0
0 0 0 0 0 0 0 5 0 0 0 0 0 0 22 173 295 330 220 210 13 0 0 0 0 0 0 0 0 0 0 0 0 0 0 0 0 0 0 0 0 0 0 0 0 0 0 0 0
0 0 8 5 0 0 0 0 0 1 0 0 0 0 0 79 254 302 174 1 0 0 0 0 0 0 0 0 0 0 0 0 0 0 0 0 0 0 0 0 0 0 0 0 0 0 0 0 0
0 0 0 0 0 0 0 0 0 0 0 0 0 0 0 151 178 170 4 0 0 0 0 0 0 0 0 0 0 0 0 0 0 0 0 0 0 0 0 0 0 0 0 0 0 0 0 0 0
1 0 0 0 0 0 0 0 0 0 0 0 0 0 0 66 51 13 0 0 0 0 0 0 0 0 0 0 0 0 0 0 0 0 0 0 0 0 0 0 0 0 0 0 0 0 0 0 0

GFSSGP_con_sbcape_021.txt.gz
CAPE
0 0 0 0 0 0 0 0 0 0 685 733 990 1034 1009 931 603 194 434 465 732 665 663 604 620 831 966 939 753 611 453 332 133 106 112 80 121 175 184 195 198 143 70 0 0 0 0 0 60
0 0 0 0 0 0 0 0 0 126 475 371 488 938 1011 1327 1057 953 735 771 779 768 622 435 670 920 989 808 664 508 310 165 189 98 69 115 98 155 259 278 232 200 97 1 0 0 0 0 85
0 0 0 0 0 0 0 0 509 369 118 56 6 149 838 1176 971 806 696 700 724 636 483 568 794 877 976 706 497 410 401 332 226 151 128 117 148 112 192 325 288 219 22 25 11 7 10 81 62
0 0 0 0 0 0 0 0 556 283 246 21 0 153 735 938 960 618 481 556 401 408 414 458 858 906 876 712 621 545 410 261 194 238 309 274 269 134 297 330 279 59 32 41 48 25 167 171 38
0 0 0 0 0 0 7 250 187 365 145 10 55 744 845 967 671 460 569 519 390 183 208 358 665 672 582 725 604 474 382 281 263 359 414 462 456 296 408 323 306 226 79 64 48 153 245 170 23
0 0 0 0 0 0 311 128 294 265 75 26 507 545 853 1009 740 660 365 107 11 10 3 128 291 257 224 467 475 359 339 298 340 411 447 486 462 433 425 409 404 370 307 256 160 86 186 253 67
0 0 0 0 0 61 215 53 231 121 70 58 250 546 677 674 471 274 43 16 4 3 3 6 6 4 20 239 270 224 267 279 366 398 404 400 368 365 379 404 372 298 179 114 73 90 144 277 59
0 0 0 0 26 99 174 128 22 66 37 0 0 451 425 675 213 65 4 4 0 2 3 1 1 50 133 173 166 154 180 229 287 351 307 279 308 351 322 289 251 109 41 61 79 150 48 297 3
0 0 0 0 184 96 120 133 30 155 230 462 414 363 442 418 50 0 10 18 8 5 4 3 0 0 47 120 172 199 199 207 243 233 225 128 86 64 15 87 33 10 1 22 94 18 0 0 0
0 0 0 0 35 102 65 14 210 189 362 276 268 470 426 255 66 25 27 3 6 12 8 0 0 2 165 310 173 77 73 72 49 37 15 2 0 2 0 40 33 30 17 17 0 0 0 0 0
0 0 0 0 37 50 10 15 12 53 56 106 516 284 208 205 70 69 21 0 4 5 0 11 27 95 203 130 36 5 3 0 0 0 0 0 0 0 0 0 0 0 0 0 0 0 0 0 0
0 0 0 0 1 13 22 28 73 5 10 199 152 95 60 49 24 102 63 1 0 1 19 12 32 153 145 35 9 3 0 0 0 0 0 0 0 0 0 0 0 0 0 0 0 0 0 0 0
0 0 0 0 22 8 26 12 0 0 192 158 113 91 73 23 37 77 73 52 0 2 15 4 0 194 106 0 0 0 0 9 29 1 0 0 0 0 0 0 0 0 0 0 0 0 0 0 0
0 0 0 0 1 23 0 0 3 0 426 140 280 84 17 32 25 36 54 39 90 75 18 0 9 210 12 0 0 0 8 43 43 14 0 0 0 0 0 0 0 0 0 0 0 0 0 0 0
0 0 0 0 2 2 0 0 3 2 308 546 519 128 0 23 39 25 47 59 120 191 170 148 132 52 0 0 0 0 32 4 0 0 0 0 0 0 0 0 0 0 0 0 0 0 0 0 0
0 0 11 0 0 0 3 77 37 28 193 294 429 292 71 61 24 54 32 156 254 304 184 2 137 0 0 0 0 0 0 0 0 0 0 0 0 0 0 0 0 0 0 0 0 0 0 0 0
0 0 0 0 0 0 2 158 46 31 166 259 157 519 332 127 28 40 84 336 369 273 3 5 2 0 0 0 0 0 0 0 0 0 0 0 0 0 0 0 0 0 0 0 0 0 0 0 0
0 0 0 0 0 0 7 185 28 30 16 97 127 369 440 229 101 150 264 356 226 83 0 13 0 0 0 0 0 0 0 0 0 0 0 0 0 0 0 0 0 0 0 0 0 0 0 0 0
0 0 0 0 0 0 0 96 58 25 20 37 26 154 306 434 375 380 422 60 129 0 48 0 0 0 0 0 0 0 0 0 0 0 0 0 0 0 0 0 0 0 0 0 0 0 0 0 0
0 0 0 0 0 0 0 4 0 0 44 34 37 28 106 332 171 401 179 33 0 0 76 0 0 0 0 0 0 0 0 0 0 0 0 0 0 0 0 0 0 0 0 0 0 0 0 0 0
0 0 0 0 0 0 0 0 24 0 0 0 23 60 15 111 43 277 166 17 0 0 82 0 0 0 0 0 0 0 0 0 0 0 0 0 0 0 0 0 0 0 0 0 0 0 0 0 0
0 0 0 0 0 0 0 1 0 0 10 0 1 0 7 7 10 237 217 77 9 4 100 87 0 0 0 0 0 0 0 0 0 0 0 0 0 0 0 0 0 0 0 0 0 0 0 0 0
0 0 0 0 0 0 0 0 0 0 2 0 0 0 0 0 0 63 137 104 31 14 77 119 0 0 0 0 0 0 0 0 0 0 0 0 0 0 0 0 0 0 0 0 0 0 0 0 0
0 0 0 0 0 0 0 0 0 0 0 1 0 0 0 0 0 0 79 43 21 21 80 66 0 0 0 0 0 0 0 0 0 0 0 0 0 0 0 0 0 0 0 0 0 0 0 0 0
0 0 0 0 0 0 0 0 0 0 0 0 0 0 0 0 0 0 14 11 16 36 25 3 0 0 0 0 0 0 0 0 0 0 0 0 0 0 0 0 0 0 0 0 0 0 0 0 0
0 0 0 0 0 0 0 0 0 0 0 0 0 0 0 0 0 0 5 28 20 59 89 36 0 0 0 0 0 0 0 0 0 0 0 0 0 0 0 0 0 0 0 0 0 0 0 0 0
0 0 0 0 0 0 0 0 0 0 0 0 0 0 0 0 0 0 0 55 62 63 0 0 0 0 0 0 0 0 0 0 0 0 0 0 0 0 0 0 0 0 0 0 0 0 0 0 0
0 0 0 0 0 0 0 0 0 0 0 0 0 0 0 0 5 45 104 131 146 63 0 0 0 0 0 0 0 0 0 0 0 0 0 0 0 0 0 0 0 0 0 0 0 0 0 0 0
0 0 0 0 0 0 0 0 0 0 0 0 0 0 0 0 47 68 104 66 30 0 0 0 0 0 0 0 0 0 0 0 0 0 0 0 0 0 0 0 0 0 0 0 0 0 0 0 0
0 0 0 0 0 0 0 0 0 0 0 0 0 0 0 0 6 80 61 0 0 0 0 0 0 0 0 0 0 0 0 0 0 0 0 0 0 0 0 0 0 0 0 0 0 0 0 0 0

GFSSGP_con_sbcape_024.txt.gz
CAPE
0 0 0 0 0 0 0 0 0 0 806 971 1091 927 883 846 419 258 542 745 762 827 767 638 754 868 779 660 579 463 354 267 152 140 144 195 196 209 240 167 168 178 158 3 0 46 279 374 425
0 0 0 0 0 0 0 0 0 56 381 383 93 804 1016 1028 914 757 630 832 815 835 651 585 952 935 766 647 556 401 258 200 218 176 179 277 226 228 302 207 180 205 187 0 0 0 26 86 332
0 0 0 0 0 0 0 0 317 211 135 127 110 387 895 1027 950 868 1013 1009 957 784 500 704 927 841 801 655 479 370 315 258 237 224 201 253 247 184 253 283 263 311 255 3 2 0 4 56 111
0 0 0 0 0 0 0 0 1 244 167 31 64 549 1066 998 1153 831 899 821 857 679 458 591 702 798 761 681 593 475 344 254 251 309 349 373 320 186 390 323 303 264 173 20 12 0 13 150 44
0 0 0 0 0 0 2 310 404 326 154 262 227 769 757 920 803 804 575 493 365 204 135 341 422 539 649 825 674 488 353 330 408 466 455 456 487 428 463 393 419 333 226 166 85 126 40 102 44
0 0 0 0 0 0 420 263 438 322 195 305 612 579 847 950 757 363 12 2 1 1 1 45 225 244 344 549 475 378 409 469 565 581 601 618 531 499 486 487 437 352 256 236 300 270 75 52 102
0 0 0 0 0 0 418 198 442 279 169 258 458 738 911 911 447 15 3 3 3 2 3 3 3 25 163 276 318 318 380 475 551 555 524 512 475 437 440 404 392 342 282 217 257 437 130 12 4
0 0 0 0 0 77 338 271 178 118 98 113 163 630 782 750 213 4 2 2 1 2 4 3 1 8 61 145 222 239 283 338 377 408 372 303 337 388 314 278 312 237 197 243 170 222 32 0 0
0 0 0 0 2 13 187 199 59 454 601 441 601 537 724 272 48 3 2 6 6 4 1 5 5 17 1 148 223 250 300 264 275 255 237 99 85 72 1 61 86 82 64 121 40 0 0 0 0
0 0 0 0 0 38 102 35 237 424 555 478 875 949 658 231 10 15 4 3 4 6 2 0 0 0 0 212 145 46 93 68 72 72 46 24 5 0 3 24 91 64 47 0 0 0 0 0 0
0 0 0 0 0 94 51 69 104 326 318 277 902 783 648 288 62 65 5 1 3 5 1 7 1 0 0 165 88 36 13 1 3 5 0 0 0 0 0 0 0 0 0 0 0 0 0 0 0
0 0 0 0 1 61 63 39 29 1 14 437 565 433 360 159 82 67 10 6 6 0 0 0 0 69 113 15 0 0 0 0 0 0 0 0 0 0 0 0 0 0 0 0 0 0 0 0 0
0 0 0 0 10 19 27 0 0 225 422 394 356 256 126 57 79 72 47 11 3 5 0 2 0 58 72 0 0 0 0 0 0 0 0 0 0 0 0 0 0 0 0 0 0 0 0 0 0
0 0 0 0 10 28 0 0 14 352 266 38 101 42 65 0 38 65 53 0 1 18 5 0 0 90 34 0 0 0 0 0 0 0 0 0 0 0 0 0 0 0 0 0 0 0 0 0 0
0 0 0 1 14 27 0 0 15 348 218 169 161 120 123 34 46 57 44 0 0 0 0 0 0 63 3 0 0 0 0 6 0 0 0 0 0 0 0 0 0 0 0 0 0 0 0 0 0
0 0 3 0 0 0 0 27 16 408 304 340 282 199 57 26 28 8 24 7 11 54 59 3 52 30 0 0 0 0 0 0 0 0 0 0 0 0 0 0 0 0 0 0 0 0 0 0 0
0 0 0 1 0 3 0 99 5 137 521 276 400 272 52 46 38 22 10 34 117 170 148 33 39 0 0 0 0 0 0 0 0 0 0 0 0 0 0 0 0 0 0 0 0 0 0 0 0
0 0 0 0 0 0 4 99 0 49 293 304 269 413 188 130 98 29 15 122 204 162 19 17 1 0 0 0 0 0 0 0 0 0 0 0 0 0 0 0 0 0 0 0 0 0 0 0 0
0 0 0 0 0 1 0 112 0 18 40 96 127 269 411 368 248 73 76 200 170 17 0 4 0 0 0 0 0 0 0 0 0 0 0 0 0 0 0 0 0 0 0 0 0 0 0 0 0
0 0 0 0 0 0 0 10 10 0 72 25 99 172 330 413 248 185 177 98 103 18 0 0 0 0 0 0 0 0 0 0 0 0 0 0 0 0 0 0 0 0 0 0 0 0 0 0 0
0 0 0 0 0 0 0 0 92 14 0 3 31 99 153 234 305 302 301 68 87 6 0 0 0 0 0 0 0 0 0 0 0 0 0 0 0 0 0 0 0 0 0 0 0 0 0 0 0
0 0 0 0 0 0 0 0 0 13 11 0 0 22 75 47 198 244 351 129 8 0 0 6 0 0 0 0 0 0 0 0 0 0 0 0 0 0 0 0 0 0 0 0 0 0 0 0 0
0 0 0 0 0 0 0 0 0 0 31 16 0 0 0 0 25 81 261 246 49 6 0 0 0 0 0 0 0 0 0 0 0 0 0 0 0 0 0 0 0 0 0 0 0 0 0 0 0
0 0 0 0 0 0 0 0 0 0 15 133 9 0 0 0 0 3 115 94 31 0 6 1 0 0 0 0 0 0 0 0 0 0 0 0 0 0 0 0 0 0 0 0 0 0 0 0 0
0 0 0 0 0 0 0 0 0 0 0 0 0 0 0 0 0 0 12 40 19 0 11 18 0 0 0 0 0 0 0 0 0 0 0 0 0 0 0 0 0 0 0 0 0 0 0 0 0
0 0 0 0 0 0 0 0 0 0 0 0 0 0 0 0 0 0 0 35 21 0 3 19 0 0 0 0 0 0 0 0 0 0 0 0 0 0 0 0 0 0 0 0 0 0 0 0 0
0 0 0 0 0 0 0 0 0 0 0 0 0 0 0 0 0 0 0 0 2 0 16 14 19 0 0 0 0 0 0 0 0 0 0 0 0 0 0 0 0 0 0 0 0 0 0 0 0
0 0 0 0 0 0 0 0 0 0 0 0 0 0 0 0 0 0 0 0 0 0 8 0 3 0 0 0 0 0 0 0 0 0 0 0 0 0 0 0 0 0 0 0 0 0 0 0 0
0 0 0 0 0 0 0 0 0 0 0 0 0 0 0 0 0 0 0 0 0 0 0 0 0 0 0 0 0 0 0 0 0 0 0 0 0 0 0 0 0 0 0 0 0 0 0 0 0
0 0 0 0 0 0 0 0 0 0 0 0 0 0 0 0 0 0 0 0 0 0 0 0 0 0 0 0 0 0 0 0 0 0 0 0 0 0 0 0 0 0 0 0 0 0 0 0 0

GFSSGP_con_sbcape_027.txt.gz
CAPE
0 0 0 0 0 0 0 0 0 0 206 1144 1190 865 936 784 664 516 821 873 1014 859 565 741 871 833 751 693 593 450 366 327 265 290 256 244 294 258 263 254 256 258 325 377 512 449 392 456 433
0 0 0 0 0 0 0 0 0 309 337 376 324 1157 1129 893 879 841 957 1102 1050 851 563 493 846 711 728 645 532 428 358 276 288 340 320 382 389 368 308 290 278 267 272 259 324 504 579 525 413
0 0 0 0 0 0 0 0 90 501 274 301 465 898 1065 1200 1072 1005 1152 1224 1083 889 616 672 873 757 808 600 414 314 280 258 322 363 412 475 430 431 414 373 327 333 251 65 112 186 232 220 283
0 0 0 0 0 0 0 0 37 188 438 232 732 1004 1166 1043 1348 1245 1203 1198 1069 964 770 678 651 649 799 648 468 309 273 233 277 346 450 527 461 478 500 420 379 355 228 0 36 89 96 169 141
0 0 0 0 0 0 0 299 685 556 511 817 718 840 1020 1103 589 620 897 897 917 813 799 587 489 473 611 824 514 321 272 306 346 424 473 526 533 523 513 414 383 349 298 126 42 119 139 139 163
0 0 0 0 0 0 3 527 687 579 627 795 952 860 1109 1106 435 235 137 80 170 231 208 284 257 130 143 471 304 318 403 466 451 487 575 682 615 514 446 350 278 299 382 360 142 159 191 178 93
0 0 0 0 0 18 419 478 650 498 450 723 812 878 936 734 200 57 4 3 13 7 2 1 9 2 65 235 278 356 512 502 558 564 590 579 471 433 392 330 263 261 325 418 186 60 171 119 0
0 0 0 0 0 0 421 440 366 272 410 479 550 787 729 549 6 3 3 3 4 7 6 5 2 3 15 93 309 402 387 431 461 495 399 311 359 346 337 260 243 228 216 359 109 37 20 0 0
0 0 0 0 0 27 313 413 584 795 837 791 809 781 719 24 4 3 3 3 4 8 9 6 15 1 17 138 334 407 410 402 367 308 273 146 129 91 38 71 128 191 73 78 51 0 0 0 0
0 0 0 0 0 7 162 223 550 874 690 821 959 859 321 25 2 4 4 5 6 9 12 10 2 0 0 56 133 232 268 201 176 152 136 96 117 75 42 85 154 38 0 0 0 0 0 0 0
0 0 0 0 0 25 108 129 328 831 703 653 984 602 319 124 4 6 13 11 6 4 4 3 0 0 0 0 46 122 144 121 134 116 107 92 117 19 14 0 0 0 0 0 0 0 0 0 0
0 0 0 0 0 60 114 232 82 93 309 560 833 534 291 251 9 6 1 2 20 13 17 4 0 0 2 8 165 72 56 71 99 41 97 153 18 0 0 0 0 0 0 0 0 0 0 0 0
0 0 0 0 0 5 52 19 150 567 782 723 648 581 303 151 54 24 8 18 13 16 15 6 0 0 104 165 111 38 32 37 52 73 134 75 0 0 0 0 0 0 0 0 0 0 0 0 0
0 0 0 0 54 2 82 195 291 470 609 519 493 292 415 323 183 38 31 18 3 5 15 5 29 108 234 210 39 4 26 43 38 76 85 0 0 0 0 0 0 0 0 0 0 0 0 0 0
0 0 0 0 29 52 17 163 428 419 230 354 263 266 299 68 154 147 46 6 0 2 7 6 14 204 388 183 6 4 1 57 106 94 0 0 0 0 0 0 0 0 0 0 0 0 0 0 0
0 0 20 0 0 0 4 198 494 318 444 344 346 340 279 35 30 174 148 29 35 13 20 22 10 131 427 143 0 2 57 260 253 62 0 0 0 0 0 0 0 0 0 0 0 0 0 0 0
0 0 15 0 2 31 14 169 310 369 474 295 365 346 186 76 100 105 153 82 68 124 99 67 92 192 360 166 1 35 199 243 102 22 0 0 0 0 0 0 0 0 0 0 0 0 0 0 0
0 0 0 49 3 25 30 191 336 603 687 592 459 345 249 141 153 129 125 88 76 148 187 143 133 217 262 70 7 25 54 6 2 1 0 0 0 0 0 0 0 0 0 0 0 0 0 0 0
0 0 0 0 0 27 28 154 269 579 644 680 595 688 381 157 148 161 174 194 186 254 256 248 235 246 149 29 45 57 124 0 0 0 0 0 0 0 0 0 0 0 0 0 0 0 0 0 0
0 0 0 0 0 0 0 13 80 207 535 560 661 632 808 486 363 333 207 225 295 367 376 354 320 225 149 138 44 37 2 0 0 0 0 0 0 0 0 0 0 0 0 0 0 0 0 0 0
0 0 0 0 0 0 0 0 164 64 178 171 182 429 587 820 746 526 348 310 349 449 482 434 360 232 176 101 0 0 0 0 0 0 0 0 0 0 0 0 0 0 0 0 0 0 0 0 0
0 0 0 0 0 0 0 0 0 128 123 79 197 177 373 516 624 728 498 438 391 422 455 405 226 97 61 0 0 0 0 0 0 0 0 0 0 0 0 0 0 0 0 0 0 0 0 0 0
0 0 0 0 0 0 0 0 0 0 252 267 211 163 245 349 455 658 698 623 502 440 421 461 253 101 34 0 0 0 0 0 0 0 0 0 0 0 0 0 0 0 0 0 0 0 0 0 0
0 0 0 0 0 0 0 0 0 0 159 331 373 196 141 207 236 386 589 695 666 481 478 494 346 182 60 0 0 0 0 0 0 0 0 0 0 0 0 0 0 0 0 0 0 0 0 0 0
0 1 0 0 0 0 0 0 3 0 0 1 81 196 180 160 228 173 261 503 632 410 393 457 406 288 41 0 0 0 0 0 0 0 0 0 0 0 0 0 0 0 0 0 0 0 0 0 0
0 1 1 0 0 0 0 0 0 0 0 0 0 0 1 5 83 119 163 452 572 413 399 393 432 441 91 0 0 0 0 0 0 0 0 0 0 0 0 0 0 0 0 0 0 0 0 0 0
0 0 0 0 0 0 0 0 0 0 0 0 0 0 0 0 0 13 46 206 436 390 468 476 473 413 109 100 30 0 0 0 0 0 0 0 0 0 0 0 0 0 0 0 0 0 0 0 0
0 0 3 2 0 0 0 0 0 0 0 0 0 0 0 0 0 0 0 4 214 299 300 249 366 445 320 164 102 0 0 0 0 0 0 0 0 0 0 0 0 0 0 0 0 0 0 0 0
0 0 0 0 0 0 0 0 0 0 0 0 0 0 0 0 0 0 0 0 45 166 230 271 350 401 369 66 0 0 0 0 0 0 0 0 0 0 0 0 0 0 0 0 0 0 0 0 0
0 0 0 23 0 0 0 0 0 0 0 0 0 0 0 0 0 22 22 22 56 94 148 209 229 231 2 0 0 0 0 0 0 0 0 0 0 0 0 0 0 0 0 0 0 0 0 0 0

GFSSGP_con_sbcape_030.txt.gz
CAPE
0 0 0 0 0 0 0 0 0 13 77 1367 1632 694 175 1115 748 769 1342 1342 1245 667 315 782 908 977 936 852 669 491 356 290 332 226 230 321 373 369 365 344 480 765 921 486 301 369 196 57 82
0 0 0 0 0 0 0 0 25 421 667 977 991 1542 1185 956 981 1064 1251 1294 1178 713 453 235 956 922 866 709 574 456 374 397 312 318 416 444 462 481 426 406 459 872 1031 766 449 376 184 131 295
0 0 0 0 0 0 2 0 0 648 945 956 1210 777 209 689 943 1272 1533 1554 1282 1040 533 687 872 842 851 676 542 352 323 379 360 507 579 567 555 561 537 471 362 618 780 540 521 276 142 256 298
0 0 0 0 0 0 0 0 0 292 609 740 1163 1122 702 447 946 1669 1778 1450 1277 1174 800 678 749 852 830 688 486 353 358 333 418 538 590 632 657 665 612 541 400 365 419 221 222 34 100 211 183
0 0 0 0 0 0 0 9 974 947 473 947 1109 1163 1180 1094 1261 1252 1607 1496 1326 1184 1062 975 697 817 741 649 485 422 417 353 464 499 494 619 730 743 729 530 451 296 345 245 151 88 193 221 133
0 0 0 0 0 1 5 489 1143 890 1048 1249 1336 1376 1323 1104 922 872 1081 1294 1165 1061 877 581 565 397 438 437 384 385 388 465 535 519 572 661 651 574 515 487 533 410 263 332 278 246 185 77 0
0 0 0 4 44 348 914 1080 1049 960 1114 1328 1328 1256 1270 639 321 221 310 395 487 477 129 44 0 0 35 206 300 419 495 527 587 628 591 480 442 361 380 363 411 425 261 205 282 254 66 0 0
0 0 0 18 24 83 441 829 979 811 1069 1230 1264 1192 1164 390 131 41 38 19 5 4 5 3 1 0 0 117 340 430 444 488 505 500 344 335 291 332 325 302 351 473 276 159 169 71 0 0 0
0 0 29 5 0 1 154 722 1111 1024 1075 1306 1308 1476 753 183 76 121 9 7 6 6 9 5 1 7 35 104 261 452 572 441 339 342 280 145 44 28 59 183 293 339 160 43 1 0 0 0 0
0 0 4 0 0 0 2 504 1035 1192 1209 1330 1242 501 227 162 207 196 77 8 7 7 9 5 8 14 5 85 143 349 384 228 261 226 138 107 194 62 34 153 123 29 2 0 0 0 0 0 0
0 4 3 0 0 0 0 197 731 1078 884 1081 1024 521 262 137 93 18 13 11 11 12 13 6 2 2 1 0 77 227 197 253 266 197 122 154 206 139 165 132 4 0 0 0 0 0 0 0 0
0 0 0 0 0 3 439 473 601 806 1052 1319 1068 455 220 283 91 7 12 10 8 11 13 12 0 0 0 0 49 84 104 125 151 147 162 227 148 166 93 50 3 0 0 0 0 0 0 0 0
0 0 0 0 0 284 477 564 765 1152 1146 1399 892 596 379 167 115 93 28 17 14 13 15 0 0 0 0 6 11 79 151 123 62 87 112 97 46 115 36 3 0 0 0 0 0 0 0 0 0
1 0 0 0 58 476 548 596 581 914 1173 989 854 535 308 48 147 66 56 38 24 14 8 0 2 0 28 77 122 57 80 30 69 221 354 292 84 65 0 0 0 0 0 0 0 0 0 0 0
0 12 25 3 398 395 345 533 937 1001 1026 840 641 642 440 411 387 186 83 77 32 39 12 3 41 88 20 150 254 10 75 39 130 380 516 368 89 6 0 0 0 0 0 0 0 0 0 0 0
0 0 66 78 253 344 308 512 1089 908 858 688 637 623 572 588 458 307 88 29 27 60 22 35 71 149 176 267 206 0 53 117 290 511 592 323 76 0 0 0 0 0 0 0 0 0 0 0 0
9 28 51 23 124 396 453 521 945 898 866 531 481 423 255 230 268 314 413 27 12 19 12 44 117 214 441 587 187 10 142 425 702 742 597 295 42 0 0 0 0 0 0 0 0 0 0 0 0
31 28 30 51 174 227 357 502 853 1030 912 511 467 399 264 164 190 326 397 477 173 131 166 200 299 447 687 619 228 42 329 646 853 778 541 171 7 0 0 0 0 0 0 0 0 0 0 0 0
6 8 23 23 39 136 159 201 712 1052 1032 1035 857 538 357 229 184 213 373 448 369 434 303 289 303 425 749 647 171 92 439 663 825 765 456 113 0 0 0 0 0 0 0 0 0 0 0 0 0
18 14 28 7 0 11 74 87 477 1041 1171 1149 1095 1167 761 497 313 320 324 314 268 423 532 524 517 605 766 501 156 176 375 623 819 575 355 105 0 0 0 0 0 0 0 0 0 0 0 0 0
34 29 11 5 0 0 33 41 210 606 1051 1044 1071 1045 1032 665 601 549 511 464 390 366 476 544 630 710 711 479 250 437 555 298 473 187 120 110 0 0 0 0 0 0 0 0 0 0 0 0 0
27 7 11 2 2 32 9 38 69 240 702 912 866 953 1056 893 745 816 1030 969 735 658 594 647 615 723 805 749 522 411 459 525 432 204 147 16 0 0 0 0 0 0 0 0 0 0 0 0 0
21 0 12 31 15 25 19 24 84 95 379 516 747 889 1018 976 843 947 963 1139 1199 1001 885 1035 984 902 840 847 650 582 688 746 683 117 11 0 0 0 0 0 0 0 0 0 0 0 0 0 0
0 8 15 32 48 43 44 41 60 47 71 84 279 513 770 886 977 946 1039 1198 1248 1303 1164 1096 1213 1099 920 944 862 844 861 888 388 18 0 0 0 0 0 0 0 0 0 0 0 0 0 0 0
0 15 80 83 86 66 2 40 59 41 18 47 62 130 528 747 889 1094 1154 1246 1401 1437 1441 1366 1341 1195 1091 1071 978 1001 976 791 203 2 0 0 0 0 0 0 0 0 0 0 0 0 0 0 0
0 16 49 33 58 42 0 28 66 36 30 31 50 37 14 344 740 965 1100 1248 1350 1542 1592 1563 1397 1400 1253 1128 958 683 483 237 3 0 0 0 0 0 0 0 0 0 0 0 0 0 0 0 0
2 9 18 64 14 21 23 3 5 0 0 101 141 98 161 132 109 397 714 1107 1248 1460 1651 1671 1480 1268 1380 1231 1075 871 532 180 19 0 0 0 0 0 0 0 0 0 0 0 0 0 0 0 0
24 11 32 81 47 1 18 0 1 0 0 0 0 9 60 171 136 72 215 444 711 1098 1400 1497 1559 1343 1333 1352 1145 1036 699 147 2 0 0 0 0 0 0 0 0 0 0 0 0 0 0 0 3
24 27 7 81 70 43 10 16 0 0 0 0 0 0 11 151 283 346 194 253 353 659 1027 1138 1241 1114 1234 1458 1269 1187 874 35 2 1 1 0 0 0 0 0 0 0 0 0 0 0 0 0 0
43 53 101 150 79 26 81 10 0 3 0 0 0 0 0 67 164 437 513 445 466 646 790 879 1021 1099 1227 1268 1191 1098 295 10 8 4 7 2 2 0 0 0 0 0 0 0 0 0 0 0 0

GFSSGP_con_sbcape_033.txt.gz
CAPE
0 0 0 0 0 0 0 21 41 41 41 581 756 404 116 635 769 558 1841 1708 1130 867 1040 1374 1354 1418 1321 1131 879 642 475 509 540 442 442 465 450 539 575 701 737 772 773 477 122 0 0 21 68
0 0 0 0 0 13 57 27 0 30 429 919 1143 1576 1003 929 1085 1163 1511 1444 732 755 996 1434 1235 1197 1094 906 724 565 578 570 498 536 576 544 606 599 764 1100 1140 945 937 493 137 60 53 91 147
0 0 0 7 8 7 34 31 17 23 738 932 1055 1292 603 369 73 714 1537 1686 366 554 746 1297 1036 1003 977 793 638 547 638 467 525 646 720 705 630 602 702 1065 1165 1136 1079 444 135 102 91 137 223
0 0 0 0 1 20 0 0 0 149 367 712 995 1139 600 15 0 13 723 1413 696 290 625 881 899 907 890 794 639 634 460 470 623 691 761 768 673 661 525 647 919 1147 974 180 140 67 48 212 199
0 0 0 12 1 0 0 0 28 370 465 675 719 1051 1355 612 338 451 376 980 442 298 1174 1048 865 896 910 778 694 614 500 641 702 699 714 744 722 696 531 416 571 657 556 263 111 52 93 132 55
0 0 6 65 12 0 4 113 456 740 792 988 905 1471 1617 855 1036 868 1424 1082 490 1076 925 816 961 836 689 591 577 500 571 672 690 730 837 903 753 638 618 418 450 542 395 348 286 213 106 0 0
0 3 29 9 55 128 482 775 840 1007 964 910 938 965 1369 703 274 284 446 419 285 311 179 256 345 443 344 273 316 389 529 658 717 754 640 460 397 411 413 341 296 355 348 350 239 114 13 0 0
0 0 28 31 40 31 244 601 776 781 1114 1146 1396 1326 1471 535 223 62 22 11 77 58 1 1 2 42 384 328 351 431 520 611 572 439 353 330 340 382 367 348 294 298 363 310 94 9 0 0 0
0 1 26 32 18 8 16 331 1035 1110 935 1236 1674 1553 837 372 191 90 3 4 4 3 4 0 0 5 64 180 427 562 610 424 373 334 237 146 121 108 151 324 360 249 196 130 25 0 0 0 0
0 19 20 0 4 3 68 322 727 857 1143 1127 674 505 438 365 427 280 13 5 4 5 4 7 2 0 0 0 2 49 77 143 220 137 221 140 270 299 133 223 206 94 7 0 0 0 0 0 0
6 5 8 33 0 0 2 215 412 638 29 0 800 448 364 463 365 66 9 5 4 12 16 6 0 0 0 0 0 84 167 243 301 373 311 361 371 283 277 97 9 0 0 0 0 0 0 0 0
0 4 0 3 0 85 463 34 0 867 471 392 732 447 357 393 352 20 10 11 11 14 12 12 24 1 0 0 29 121 105 186 249 265 311 457 401 488 442 219 47 13 0 0 0 0 0 0 0
0 1 0 0 0 328 471 677 732 1186 1094 1218 690 528 581 386 239 13 8 7 6 6 1 1 0 0 0 0 0 75 103 139 163 292 306 286 370 445 272 207 62 2 0 0 0 0 0 0 0
5 0 0 0 5 243 391 635 720 1144 1281 871 962 677 209 129 61 60 18 9 6 4 4 0 0 0 0 1 2 67 185 96 167 248 252 208 212 418 216 161 14 1 0 0 0 0 0 0 0
0 0 0 0 35 86 108 40 790 1240 1165 814 670 483 9 150 63 114 80 14 4 0 2 0 0 0 20 16 2 33 61 140 177 167 599 370 173 314 232 146 42 0 0 0 0 0 0 0 0
0 0 15 73 109 157 47 2 1101 1166 833 610 616 268 400 393 243 109 106 73 23 0 0 0 0 13 16 49 88 141 126 123 107 302 604 586 402 330 243 142 42 0 0 0 0 0 0 0 0
21 26 23 80 8 257 163 0 909 978 629 422 399 416 387 477 417 102 60 39 29 0 1 18 73 13 73 242 214 120 181 194 237 748 909 686 475 284 261 152 32 0 0 0 0 0 0 0 0
20 37 41 38 36 60 195 219 886 897 716 614 371 128 116 153 158 224 31 75 86 76 30 86 183 158 149 356 344 109 15 126 358 712 777 765 504 274 260 130 0 0 0 0 0 0 0 0 0
20 25 51 32 35 31 151 111 365 859 795 583 515 390 140 81 100 224 328 116 151 120 67 55 110 193 377 402 285 49 15 163 551 784 845 697 464 254 197 79 8 0 0 0 0 0 0 0 0
8 35 51 39 0 1 32 92 87 692 857 788 617 510 443 124 104 187 352 391 295 267 283 220 189 301 379 258 258 30 64 163 547 1029 793 708 577 226 144 109 0 0 0 0 0 0 0 0 0
17 53 45 44 17 0 4 74 60 197 645 908 709 583 357 337 244 228 233 432 459 451 397 400 397 434 548 427 280 39 40 360 482 690 778 755 534 244 95 63 0 1 0 0 0 0 0 0 0
31 10 7 0 8 30 7 55 35 82 336 708 841 666 454 332 394 336 323 299 419 456 585 535 504 485 532 531 333 107 228 294 561 691 702 602 538 290 77 13 3 0 0 0 0 0 0 0 0
32 8 41 62 79 72 19 0 3 1 94 289 572 767 625 486 412 469 506 470 420 571 564 728 609 627 649 728 640 463 438 477 538 691 730 561 597 227 48 0 1 0 0 0 0 0 0 0 0
16 1 38 68 71 136 17 43 1 24 37 58 143 427 629 529 546 453 571 764 811 766 1002 1040 710 639 715 861 942 1264 886 768 769 1171 703 573 259 12 0 0 0 0 0 0 0 0 0 0 0
4 28 92 103 214 150 66 11 37 3 43 17 3 150 378 677 589 487 506 698 881 1227 1301 1179 951 869 887 1042 1104 1288 1028 1117 1088 960 644 129 4 0 0 0 0 0 0 0 0 0 0 0 0
2 21 67 32 138 231 77 15 34 68 39 1 0 0 20 454 669 701 613 631 825 1039 1449 1525 1300 1219 1128 1503 1348 1467 1116 1179 1466 1034 533 48 0 0 0 0 0 0 0 0 0 0 0 0 0
27 57 4 65 77 155 162 46 33 36 0 0 39 71 137 110 364 695 712 885 999 1106 1621 2127 1647 1459 1418 1476 1280 1553 1308 1272 1403 1061 542 0 0 0 0 0 0 0 0 0 0 0 0 0 5
3 44 66 94 118 130 109 132 63 0 0 0 0 39 45 191 303 258 473 841 1045 1244 1528 2318 1945 1813 1684 1741 1524 1551 1555 1255 1130 781 34 0 0 0 0 0 0 0 0 0 1 2 0 1 0
11 30 26 58 156 173 170 185 46 14 3 0 0 0 0 59 345 500 354 416 675 1122 1412 1753 2038 2033 1959 1747 1813 1888 1505 1121 942 287 0 1 0 0 0 0 0 0 0 0 0 0 0 0 2
28 34 62 207 150 225 360 261 14 2 32 6 0 0 0 80 221 588 633 524 523 719 1037 1442 1718 1791 1877 1777 1726 1707 1036 242 88 7 2 5 6 6 0 0 0 0 0 0 1 0 0 11 2

GFSSGP_con_sbcape_036.txt.gz
CAPE
0 0 0 0 0 0 0 0 0 0 7 339 490 210 88 811 484 377 840 0 195 1248 1808 1686 1450 1543 1458 1169 929 746 711 772 660 538 539 622 687 747 800 751 772 829 306 0 0 0 0 0 0
0 0 0 0 0 0 0 0 32 4 349 291 141 133 0 592 519 1164 1430 1235 1215 1440 1754 1696 1369 1315 1233 1015 794 754 826 795 686 712 728 799 867 1022 976 897 834 739 405 0 0 0 0 0 44
0 0 0 0 0 0 1 0 0 0 0 248 320 1035 762 226 287 493 195 784 832 1215 1501 1465 1212 1126 1081 874 743 750 756 688 738 780 917 884 1110 1360 1268 992 950 821 484 68 0 0 0 7 52
0 0 0 0 0 0 5 0 0 0 24 72 406 531 379 160 92 72 0 0 22 318 1221 942 971 931 899 827 892 801 677 720 744 811 869 863 1151 1376 1305 1126 1068 830 447 83 0 0 0 60 11
0 0 0 0 0 1 0 0 0 0 44 168 277 531 253 1333 841 684 9 33 0 20 939 734 723 743 874 976 928 785 836 817 855 878 812 784 834 976 1062 1129 945 491 419 126 12 0 5 13 0
0 0 0 4 12 108 76 34 9 57 185 184 303 97 742 664 562 471 728 360 55 125 518 552 831 775 719 800 770 766 820 862 907 894 916 933 685 627 798 777 566 448 370 306 211 145 14 0 0
0 0 0 2 48 60 3 0 19 439 376 84 0 1 616 383 261 227 396 332 0 1 109 166 291 568 490 465 552 617 692 807 883 863 709 605 461 394 558 651 516 441 340 240 175 66 0 0 0
0 0 0 17 25 33 25 0 6 378 421 214 0 23 753 246 74 19 49 53 27 17 59 28 78 227 296 365 434 524 610 569 418 397 332 298 338 350 348 389 419 391 282 172 32 0 0 0 0
0 0 0 5 0 0 0 50 0 12 0 0 317 540 279 221 100 3 1 1 3 5 4 0 9 102 150 187 335 361 483 349 284 247 234 113 89 58 174 291 394 371 221 93 0 0 0 0 0
0 0 1 0 0 0 0 1 261 94 8 0 6 290 383 405 112 14 1 2 1 6 3 1 0 0 10 51 122 169 205 161 99 64 136 149 192 168 253 253 272 229 133 30 0 0 0 0 0
0 0 0 0 0 0 0 25 135 442 0 0 0 328 360 176 80 15 5 4 4 6 2 0 0 0 0 0 0 0 44 173 203 226 205 270 217 209 198 88 38 3 1 0 0 0 0 0 0
0 0 0 0 0 0 166 199 16 684 0 55 413 377 418 343 5 5 8 6 6 9 6 11 0 0 0 0 0 0 23 129 299 252 361 415 355 299 149 76 51 0 0 0 0 0 0 0 0
0 0 2 0 0 4 22 144 784 990 928 685 509 667 454 121 5 6 6 8 3 6 6 3 0 0 0 0 0 1 46 125 170 333 371 403 336 394 235 167 64 0 8 0 0 0 0 0 0
0 0 0 0 0 24 46 195 56 918 862 832 682 466 150 17 5 8 4 5 1 1 2 0 1 0 0 33 45 16 73 72 135 284 330 359 389 365 334 313 216 89 0 0 0 0 0 0 0
0 0 0 0 0 27 1 0 0 571 470 451 460 88 9 18 7 4 4 4 2 1 0 0 0 0 0 0 2 17 43 2 58 220 296 321 162 231 351 153 166 91 3 1 0 0 0 0 0
0 0 0 6 14 1 0 0 0 0 584 391 0 4 0 1 27 4 3 2 0 0 0 0 0 0 0 0 0 0 5 87 154 160 370 365 321 360 480 285 150 57 0 0 0 0 0 0 0
0 0 1 13 26 113 15 0 2 43 612 378 13 41 185 122 0 36 0 0 2 0 0 0 0 0 0 0 0 4 56 211 214 158 569 555 551 379 348 283 158 39 0 0 0 0 0 0 0
1 3 15 51 29 55 56 6 31 79 454 326 83 162 97 142 7 0 0 0 0 0 0 0 0 0 0 0 0 4 24 81 54 129 465 423 442 402 343 380 129 0 0 0 0 0 0 0 0
0 1 15 13 20 19 92 188 453 334 518 413 139 6 12 28 71 12 0 1 0 0 0 0 0 0 18 15 7 109 0 2 11 331 483 494 490 327 328 286 39 0 0 0 0 0 0 0 0
0 0 3 15 0 0 0 273 256 277 589 204 330 114 4 1 58 50 20 38 6 0 0 0 3 5 8 18 122 103 0 0 21 472 521 376 333 242 294 246 34 8 0 0 0 0 0 0 0
0 0 0 29 0 0 0 0 173 327 458 407 262 379 179 0 59 115 109 71 108 32 7 52 116 95 67 118 181 153 10 3 2 565 650 564 476 447 157 142 79 27 5 0 0 0 0 0 0
0 0 1 38 12 1 6 7 14 204 225 433 401 388 216 152 38 130 158 275 132 205 130 89 41 45 98 173 88 134 0 0 56 532 581 586 646 493 247 150 115 44 2 1 0 0 0 0 0
0 0 6 31 4 35 25 15 7 3 9 191 555 544 451 255 211 73 125 283 401 388 346 278 263 244 270 345 368 247 12 3 35 512 558 624 553 498 211 174 19 4 0 0 0 0 0 0 0
1 2 13 27 26 56 45 37 21 0 2 51 247 535 525 361 271 279 176 201 374 405 517 588 459 442 376 449 411 494 84 191 346 489 575 510 357 453 234 27 0 0 0 0 0 0 0 0 0
4 15 29 44 46 95 61 46 62 10 0 0 165 44 17 471 406 310 363 286 285 372 495 643 642 586 603 670 759 500 626 434 484 665 680 408 331 45 0 0 0 0 0 0 0 0 0 0 0
1 2 51 51 115 90 8 75 35 1 1 0 8 107 35 505 518 517 310 496 546 501 586 581 622 622 584 677 838 864 649 825 842 737 558 309 162 0 0 0 0 0 0 0 0 0 0 0 0
21 2 7 49 124 57 0 105 35 30 0 0 0 0 32 33 576 546 513 449 752 905 932 954 895 762 738 762 764 736 1080 755 680 476 397 192 0 0 0 0 0 0 0 0 0 0 0 0 0
0 1 76 75 93 39 20 123 66 15 10 0 0 1 30 163 221 392 597 661 686 784 1242 1380 1116 972 1008 1017 1053 1015 659 739 633 515 679 33 0 0 0 0 0 0 0 0 0 0 0 0 0
1 0 7 84 123 158 101 77 45 11 12 7 0 0 2 50 411 355 353 369 739 878 818 1127 1255 1378 1308 1285 1230 1038 449 100 32 689 252 0 0 0 0 0 0 0 0 0 0 0 0 0 0
1 25 10 66 76 160 365 113 8 0 1 41 6 12 0 39 189 465 540 448 508 706 1183 1688 1665 1683 1798 1693 964 941 1073 1073 574 145 2 0 0 0 0 0 0 0 0 0 0 0 0 0 0

GFSSGP_con_sbcape_039.txt.gz
CAPE
0 0 0 0 0 0 0 0 0 1 189 346 519 214 473 1001 1136 450 314 27 13 0 6 1273 1456 1578 1378 1040 806 748 766 629 632 761 782 865 909 851 957 455 254 234 123 0 0 0 0 0 0
0 0 0 0 0 0 0 0 0 0 433 213 266 175 582 605 465 954 586 60 9 0 0 970 1392 1493 1260 877 804 779 756 718 833 883 925 986 1011 986 1019 394 287 285 128 0 0 0 0 0 10
0 0 0 0 0 0 0 0 0 0 0 151 824 725 922 552 359 293 111 316 40 233 921 1193 1193 1276 1031 824 816 690 708 779 887 962 1141 1141 1157 1186 1024 498 414 402 153 0 0 0 0 0 14
0 0 0 0 0 0 0 4 9 0 1 284 480 165 194 206 317 179 25 3 189 477 835 830 956 1000 982 896 877 762 757 760 849 996 1350 1476 1457 1314 1031 633 608 415 85 0 0 0 0 0 0
0 0 0 0 0 0 9 4 12 183 140 124 624 354 143 731 634 746 26 31 137 318 735 558 698 674 887 1068 959 893 772 818 857 1121 1421 1533 1472 1394 1130 671 562 298 143 6 0 0 0 0 0
0 0 0 0 0 26 7 0 0 183 217 2 0 188 685 435 584 634 399 161 31 242 124 37 358 684 755 762 763 947 917 837 828 911 1126 1391 1405 1328 942 623 485 321 247 131 31 0 0 0 0
0 0 0 0 0 3 18 0 50 219 154 46 0 0 67 131 238 375 269 0 60 200 370 132 232 476 196 87 528 731 791 810 851 726 701 740 834 857 702 608 492 336 237 125 20 0 0 0 0
0 0 0 0 0 58 20 0 29 228 123 126 0 136 113 178 103 48 88 94 27 93 63 144 82 90 227 284 422 572 603 455 339 324 229 237 474 630 510 400 342 242 184 86 0 0 0 0 0
0 0 0 0 0 0 0 0 0 47 0 27 72 289 182 161 57 30 7 73 18 52 54 75 49 46 66 131 368 493 456 229 178 136 56 8 31 112 212 325 308 227 112 34 0 0 0 0 0
0 0 0 0 0 0 0 5 101 14 18 0 127 214 233 103 93 53 1 17 39 28 11 1 2 19 9 50 98 145 78 18 11 4 7 1 40 84 205 278 258 186 97 37 12 0 0 0 0
0 0 0 0 0 0 17 91 383 0 0 0 26 150 238 119 43 3 2 2 2 2 1 0 0 0 0 2 12 22 21 9 22 39 46 74 99 74 66 93 77 49 10 0 0 0 0 0 0
0 0 0 0 0 0 2 83 274 2 12 0 196 381 207 72 6 6 2 4 2 1 1 0 0 0 0 0 0 0 19 28 36 88 103 93 98 58 47 13 0 0 0 0 0 0 0 0 0
0 0 0 0 0 0 24 643 474 572 377 261 209 357 175 4 5 6 4 3 4 3 4 0 0 0 0 0 0 0 7 31 60 143 153 172 117 66 42 10 0 0 0 0 0 0 0 0 0
0 0 0 0 0 1 5 25 333 640 284 327 318 173 17 5 5 5 1 2 1 4 3 5 0 0 0 0 0 0 26 25 14 120 156 186 148 100 48 47 0 0 0 0 0 0 0 0 0
0 0 0 0 0 7 0 0 2 329 474 342 171 13 0 0 2 3 2 1 1 3 3 4 3 0 0 0 1 1 31 15 8 5 148 137 160 140 173 47 19 0 0 0 0 0 0 0 0
0 0 0 0 10 0 0 8 0 0 328 136 12 0 0 0 0 0 0 0 0 0 0 0 0 0 0 0 0 2 0 0 0 0 63 100 37 43 62 16 9 0 0 0 0 0 0 0 0
0 0 0 0 3 0 0 0 0 14 495 14 0 0 0 0 0 0 0 1 0 0 0 0 0 0 0 0 0 0 0 0 0 0 0 83 147 63 119 44 4 0 0 0 0 0 0 0 0
0 0 0 1 7 19 2 0 0 1 315 122 0 0 0 0 0 0 0 0 0 0 0 0 0 0 0 0 0 0 0 0 0 10 91 161 175 153 110 69 13 0 0 0 0 0 0 0 0
0 0 0 0 4 23 37 0 0 0 53 156 0 0 64 0 0 0 0 0 0 0 0 0 0 0 0 0 0 0 0 0 1 0 196 198 178 250 65 55 8 0 0 0 0 0 0 0 0
0 0 0 0 3 9 65 24 0 0 74 6 0 0 25 0 0 0 0 0 0 0 0 0 0 0 0 0 0 0 0 0 0 0 61 187 241 160 51 0 0 0 0 0 0 0 0 0 0
0 0 0 0 0 2 0 90 86 56 4 148 0 0 0 0 0 0 0 0 0 0 0 0 0 0 0 0 0 0 0 0 0 0 39 156 47 0 42 0 0 0 0 0 0 0 0 0 0
0 0 0 0 3 0 0 0 129 19 145 154 22 0 0 0 0 0 0 0 0 0 0 0 0 0 0 0 0 0 0 0 0 0 109 73 67 13 55 2 0 0 0 0 0 0 0 0 0
0 0 2 0 0 0 0 9 0 36 129 138 18 47 3 4 0 0 0 0 0 0 0 0 0 0 0 0 0 0 0 0 0 0 139 115 92 117 38 0 0 0 0 0 0 0 0 0 0
0 0 0 0 0 0 0 16 9 68 92 155 18 96 26 0 0 2 0 0 0 0 0 0 0 0 0 0 0 3 0 0 0 0 214 179 160 94 6 6 0 0 0 0 0 0 0 0 0
0 0 0 0 0 0 28 41 22 0 0 13 229 194 64 38 0 5 14 17 0 0 0 0 0 0 0 0 0 0 0 0 0 0 43 111 74 16 34 0 0 0 0 0 0 0 0 0 0
0 0 0 0 0 0 0 0 10 0 0 0 247 243 102 7 3 0 23 30 73 17 23 14 4 5 8 4 48 33 11 0 0 9 17 38 71 76 0 0 0 0 0 0 0 0 0 0 0
0 0 0 0 54 12 0 5 5 0 0 0 0 2 2 0 0 10 2 3 26 132 90 129 179 132 106 88 88 97 56 42 44 49 70 96 82 0 0 0 0 0 0 0 0 0 0 0 0
0 0 0 0 6 10 4 3 15 0 0 0 0 0 0 0 1 32 3 11 12 22 124 132 207 323 263 168 111 213 230 125 117 54 0 4 0 0 0 0 0 0 0 0 0 0 0 0 0
0 0 0 2 0 6 0 0 0 1 0 0 0 0 0 3 0 20 39 3 43 67 65 94 146 189 380 264 118 179 176 179 226 66 5 3 0 0 0 0 0 0 0 0 0 0 0 0 0
0 0 0 0 0 4 3 0 0 0 0 0 0 0 0 60 104 105 50 24 14 68 196 181 216 342 4 1 165 227 44 44 2 0 0 0 0 0 0 0 0 0 0 0 0 0 0 0 0

GFSSGP_con_sbcape_042.txt.gz
CAPE
0 0 0 0 0 0 0 0 0 0 0 209 237 335 694 696 778 394 300 136 184 386 1105 877 678 1252 1130 906 833 722 701 956 1099 997 972 1177 794 650 546 397 208 56 6 0 3 3 5 20 36
0 0 0 0 0 0 0 0 0 0 92 109 471 592 688 543 590 634 481 167 28 248 616 450 531 967 1027 886 769 658 887 1026 1121 1084 1106 1265 815 684 537 360 177 41 0 0 0 0 0 0 6
0 0 0 0 0 0 0 0 0 21 92 432 729 510 666 551 499 477 242 574 202 2 45 461 594 584 939 943 704 662 846 939 1013 1085 1300 1409 884 794 623 361 214 86 2 0 0 0 0 0 0
0 0 0 0 0 0 0 0 0 159 123 98 264 286 387 939 733 785 148 578 504 386 501 816 614 747 843 675 795 840 889 809 906 1049 1375 1455 971 885 676 366 243 73 0 0 0 0 0 1 26
0 0 0 0 0 0 0 0 56 96 112 48 287 280 480 787 599 693 79 300 675 581 584 655 476 347 521 337 730 973 890 912 1010 1142 1265 1302 1050 965 706 334 154 40 0 0 0 0 0 0 27
0 0 0 0 0 0 0 0 64 77 52 7 10 207 606 537 420 574 256 137 126 236 471 629 748 548 321 205 795 758 847 1100 1223 1198 1253 1331 1079 852 638 330 207 131 52 0 0 0 0 0 0
0 0 0 0 0 0 0 0 232 210 167 36 0 18 9 196 150 415 72 78 282 402 256 229 65 79 245 149 450 524 700 824 1045 1136 1183 1173 699 679 555 399 256 79 34 0 0 0 0 0 0
0 0 0 0 0 0 7 0 89 15 20 59 0 40 49 208 90 191 118 170 228 203 108 36 97 20 5 58 408 448 457 382 465 644 620 519 536 543 416 209 163 72 27 7 0 0 0 0 0
0 0 0 0 0 0 0 0 2 0 0 82 108 362 174 121 35 130 176 121 197 154 78 1 3 22 12 125 315 296 324 200 209 296 227 134 111 96 22 84 141 63 29 2 0 0 0 0 0
0 0 0 0 0 0 0 4 0 0 0 118 124 227 129 200 43 91 111 64 76 87 53 8 0 38 43 91 66 65 35 1 10 2 0 0 0 31 28 63 64 39 37 20 0 0 0 0 0
0 0 0 0 0 0 235 155 0 0 0 0 10 244 200 79 13 2 2 16 22 1 10 2 4 9 0 20 13 0 0 0 0 0 23 0 25 43 36 29 6 0 11 0 0 0 0 0 0
0 0 0 0 0 0 1 76 106 2 0 0 20 184 54 2 3 4 4 2 0 1 1 4 6 8 9 4 0 0 0 0 0 5 24 4 5 12 4 5 0 0 0 0 0 0 0 0 0
0 0 0 0 0 43 200 338 497 351 72 28 61 180 73 18 0 3 3 3 2 1 0 0 0 0 0 0 0 0 0 2 24 10 3 9 6 3 0 0 0 0 0 0 0 0 0 0 0
0 0 0 0 0 107 336 454 293 349 82 15 176 131 3 17 2 2 3 3 2 3 1 0 0 0 0 0 0 0 0 3 43 10 22 23 10 2 0 0 0 0 0 0 0 0 0 0 0
0 0 0 0 0 0 0 1 79 399 117 136 67 1 0 1 1 1 1 1 2 5 4 1 0 0 0 0 0 0 0 0 2 1 23 50 32 28 6 0 0 0 0 0 0 0 0 0 0
0 0 0 0 0 0 0 0 9 313 330 78 0 0 0 0 0 0 1 1 3 3 4 2 0 0 0 0 0 0 0 0 0 0 17 55 83 67 31 31 0 0 0 0 0 0 0 0 0
0 0 0 0 0 0 0 0 0 102 354 57 6 0 0 0 0 0 0 1 1 0 1 2 0 0 0 0 0 0 0 0 0 0 2 47 52 30 18 0 0 0 0 0 0 0 0 0 0
0 0 0 0 1 4 1 0 0 0 205 1 0 0 0 0 0 0 0 0 0 0 0 0 0 0 0 0 0 0 0 0 0 0 0 1 18 15 7 0 0 0 0 0 0 0 0 0 0
0 0 0 0 0 27 4 0 0 0 230 23 0 0 0 0 0 0 0 0 0 0 0 0 0 0 0 0 0 0 0 0 0 0 0 21 0 70 0 0 0 0 0 0 0 0 0 0 0
0 0 0 0 1 14 1 2 0 0 36 182 0 0 0 0 0 0 0 0 0 0 0 0 0 0 0 0 0 0 0 0 0 0 0 6 72 37 4 0 0 0 0 0 0 0 0 0 0
0 0 0 0 0 0 1 13 3 0 0 12 124 0 0 0 0 0 0 0 0 0 0 0 0 0 0 0 0 0 0 0 0 0 0 0 40 44 23 0 0 0 0 0 0 0 0 0 0
0 0 0 0 0 0 0 0 0 0 0 0 11 0 8 0 0 0 0 0 0 0 0 0 0 0 0 0 0 0 0 0 0 0 0 0 4 8 0 0 0 0 0 0 0 0 0 0 0
0 0 0 0 0 0 0 0 0 10 2 4 27 0 1 0 0 0 0 0 0 0 0 0 0 0 0 0 0 0 0 0 0 0 0 0 0 0 0 0 0 0 0 0 0 0 0 0 0
0 0 0 0 0 0 0 0 0 15 17 0 29 0 3 0 0 0 0 0 0 0 0 0 0 0 0 0 0 0 0 0 0 0 0 0 0 1 0 0 0 0 0 0 0 0 0 0 0
0 0 0 0 0 0 0 0 0 0 0 1 49 0 0 7 4 0 0 0 0 0 0 0 0 0 0 0 0 0 0 0 0 0 0 0 0 0 1 3 0 0 0 0 0 0 0 0 0
0 0 0 0 0 0 0 0 0 0 0 0 8 17 11 0 6 5 0 0 0 0 0 0 0 0 0 0 0 0 0 0 0 0 0 4 32 57 26 6 0 0 0 0 0 0 0 0 0
0 0 0 0 0 0 0 0 0 0 0 0 0 22 76 29 0 17 2 1 0 0 0 0 0 0 0 0 0 0 0 1 19 0 0 0 6 80 4 0 0 0 0 0 0 0 0 0 0
0 0 0 0 0 0 0 0 0 0 0 0 0 19 2 0 0 0 8 46 40 5 0 0 0 0 0 0 0 0 0 6 15 1 0 0 0 0 0 0 0 0 0 0 0 0 0 0 0
0 0 0 0 0 0 0 0 0 0 0 0 0 0 0 0 0 0 0 26 52 70 32 6 0 0 0 4 9 4 0 4 18 0 0 0 0 0 0 0 0 0 0 0 0 0 0 0 0
0 0 0 0 0 0 0 0 0 0 0 0 0 0 0 0 0 0 0 0 14 21 55 137 88 110 134 87 59 16 0 2 3 3 0 0 0 0 0 0 1 0 0 0 0 0 0 0 0

GFSSGP_con_sbcape_045.txt.gz
CAPE
0 0 0 0 0 0 0 0 0 0 0 59 223 622 437 391 694 277 404 276 731 1198 1199 1005 1072 1094 765 887 1017 1133 1269 1253 1372 1127 980 959 727 633 400 255 368 476 437 107 64 29 24 8 59
0 0 0 0 0 0 0 0 0 1 6 65 363 473 381 468 531 715 611 231 284 1248 892 844 1045 917 664 543 733 1166 1367 1295 1460 1203 990 841 676 493 269 197 350 533 440 100 58 30 21 7 16
0 0 0 0 0 0 0 0 0 0 6 169 387 257 489 456 482 520 321 403 338 398 855 578 906 645 378 200 444 1165 1194 1176 1450 1154 1039 812 666 489 239 120 269 503 218 13 0 0 0 26 183
0 0 0 0 0 0 0 0 0 7 8 3 13 50 406 686 494 841 349 802 759 261 346 681 794 562 387 184 219 1089 1139 1026 1311 984 930 814 607 445 242 80 226 458 45 0 0 0 2 21 14
0 0 0 0 0 0 0 0 9 22 8 1 44 75 380 854 715 864 470 731 524 424 152 414 626 444 402 236 253 1089 1008 1023 1072 925 814 675 541 427 166 97 136 50 0 0 0 200 55 9 0
0 0 0 0 0 0 0 0 16 41 12 0 2 166 596 430 484 753 458 169 490 586 461 375 504 436 228 126 140 853 984 984 1020 903 799 778 497 306 150 88 13 0 0 0 0 22 0 0 0
0 0 0 0 0 0 0 0 8 92 81 20 0 0 139 175 224 336 62 169 513 417 686 437 331 258 81 1 39 327 908 855 840 853 783 696 324 181 143 15 0 0 0 0 0 0 0 0 0
0 0 0 0 0 0 0 0 4 6 1 49 0 1 18 158 139 193 165 419 432 222 155 182 91 93 24 30 95 363 757 885 1002 936 614 372 249 137 24 0 0 0 0 0 0 0 6 12 0
0 0 0 0 0 0 0 0 0 0 0 89 150 313 110 105 92 150 129 279 253 161 49 46 105 26 0 0 1 226 724 839 845 567 361 87 0 0 0 0 0 0 0 0 0 0 11 4 0
0 0 0 0 0 0 0 0 0 0 0 56 65 86 154 88 67 226 69 121 143 29 3 0 1 12 16 6 4 120 447 320 312 238 46 0 0 0 0 0 0 0 0 0 0 0 0 0 0
0 0 0 0 0 0 1 0 0 0 0 0 0 128 123 32 4 5 11 34 37 29 2 1 0 0 3 41 65 92 68 54 83 56 0 0 0 0 0 0 0 0 0 0 0 0 0 0 0
0 0 0 0 0 0 0 0 4 0 0 0 0 49 4 1 2 2 2 2 1 3 5 0 6 11 1 0 2 25 47 44 55 0 0 0 0 0 0 0 0 0 0 0 0 0 0 0 0
0 0 0 0 0 0 29 98 188 56 0 0 0 72 2 11 3 1 0 1 1 0 3 1 0 0 12 19 16 0 13 30 0 0 0 0 0 0 0 0 0 0 0 0 0 0 0 0 0
0 0 0 0 0 138 85 100 56 129 1 0 45 5 7 12 0 2 1 2 2 2 1 1 2 0 0 1 0 0 2 0 0 0 0 0 0 0 0 0 0 0 0 0 0 0 0 0 0
0 0 0 0 0 30 6 11 100 98 0 4 52 18 0 0 0 1 1 1 1 5 1 0 0 1 0 0 0 0 0 11 0 0 0 0 0 0 0 0 0 0 0 0 0 0 0 0 0
0 0 0 0 0 0 0 0 0 96 28 29 0 1 0 0 0 0 1 2 1 2 2 0 1 0 0 0 0 0 6 18 11 2 0 0 0 1 0 0 0 0 0 0 0 0 0 0 0
0 0 0 0 0 0 0 0 0 83 130 1 0 0 0 0 0 0 0 1 2 2 2 1 0 0 0 0 0 0 0 0 1 4 7 11 9 23 13 8 0 0 0 0 0 0 0 0 0
0 0 0 0 0 0 0 0 0 124 197 15 0 0 0 0 0 0 0 1 1 0 1 0 0 0 0 0 0 0 0 0 0 0 9 28 22 34 19 0 0 0 0 0 0 0 0 0 0
0 0 0 0 0 0 0 0 0 1 78 11 0 0 0 0 0 0 0 0 1 0 0 1 2 0 0 0 0 0 0 0 0 0 0 0 10 36 2 0 0 0 0 0 0 0 0 0 0
0 0 0 0 0 0 0 0 0 0 76 21 0 0 0 0 0 0 0 0 0 0 0 0 0 0 0 0 0 0 0 0 0 0 0 0 15 13 14 0 0 0 0 0 0 0 0 0 0
0 0 0 0 0 0 1 1 1 0 1 36 7 0 0 0 0 0 1 0 0 0 0 0 0 0 0 0 0 0 0 0 0 0 0 0 0 8 15 0 0 0 0 0 0 0 0 0 0
0 0 0 0 0 0 0 0 0 0 0 1 11 4 0 0 0 0 0 0 0 0 0 0 0 0 0 0 0 0 0 0 0 0 0 0 0 6 43 23 0 0 0 0 0 0 0 0 0
0 0 0 0 0 0 0 0 0 0 0 0 0 0 0 0 0 0 0 0 0 0 0 0 0 0 0 0 0 0 0 0 0 0 0 0 0 0 0 3 0 0 0 0 0 0 0 0 0
0 0 0 0 0 0 0 0 0 0 0 0 0 0 0 0 0 0 0 0 0 0 0 0 0 0 0 0 0 0 0 0 0 0 0 0 0 0 0 0 0 0 0 0 0 0 0 0 0
0 0 0 0 0 0 0 0 0 0 0 0 0 0 0 0 0 0 0 0 0 0 0 0 0 0 0 0 0 0 0 0 0 0 0 0 0 0 0 0 0 0 0 0 0 0 0 0 0
0 0 0 0 0 0 0 0 0 0 0 0 0 0 0 0 0 0 0 0 0 0 0 0 0 0 0 0 0 0 0 0 0 0 0 0 0 0 0 0 0 0 0 0 0 0 0 0 0
0 0 0 0 0 0 0 0 0 0 0 0 0 0 0 0 0 0 0 0 0 0 0 0 0 0 0 0 0 0 0 0 0 0 0 0 0 0 0 0 0 11 1 0 0 0 0 0 0
0 0 0 0 0 0 0 0 0 0 0 0 0 0 0 0 0 0 0 0 0 0 0 0 0 0 0 0 0 0 0 0 0 0 0 0 0 0 0 0 0 0 0 0 0 0 0 0 0
0 0 0 0 0 0 0 0 0 0 0 0 0 0 0 0 0 0 1 0 0 0 0 0 0 0 0 0 0 0 0 0 0 0 0 0 0 0 0 0 0 0 0 0 0 0 0 0 0
0 0 0 0 0 0 0 0 0 0 0 0 0 0 0 0 0 0 0 0 0 2 14 0 0 0 0 0 0 0 0 0 0 1 0 0 0 0 0 0 0 0 0 0 0 0 0 0 0

GFSSGP_con_sbcape_048.txt.gz
CAPE
0 0 0 0 0 0 0 0 0 0 0 61 193 227 237 281 247 83 304 315 819 1261 1122 688 1383 1377 1263 1070 1200 1166 1203 1394 1369 1134 1023 979 889 625 482 520 501 487 419 89 97 71 36 17 11
0 0 0 0 0 0 0 0 0 0 0 0 76 235 248 349 410 526 454 313 535 1297 971 999 1380 1355 1314 1311 1422 1406 1626 1588 1286 1173 1033 943 778 581 674 531 454 516 492 154 178 220 102 26 56
0 0 0 0 0 0 0 0 0 0 0 35 209 89 256 244 248 404 232 307 621 1173 945 1239 1166 946 1073 1192 1396 1462 1607 1375 1204 1183 1013 904 711 754 729 538 469 555 441 149 171 157 73 50 44
0 0 0 0 0 0 0 0 0 0 0 0 0 0 246 412 249 439 159 593 533 621 918 1250 932 911 798 858 1244 1250 1447 1223 1111 1019 951 775 601 746 678 427 453 358 39 0 0 32 166 14 1
0 0 0 0 0 0 0 0 0 0 3 0 0 11 103 765 495 574 350 662 582 391 699 922 810 685 632 565 595 831 1013 1179 981 894 708 564 455 462 516 372 178 14 7 17 111 65 24 0 0
0 0 0 0 0 0 0 0 0 0 26 1 0 27 422 349 292 382 289 322 635 371 210 597 840 754 478 110 35 266 416 805 832 748 631 512 333 342 392 86 0 10 368 337 232 19 0 0 0
0 0 0 0 0 0 0 0 0 9 29 13 0 0 10 102 159 308 111 93 566 505 228 123 479 493 283 14 4 100 313 596 774 674 570 459 296 177 102 1 0 1 189 92 19 0 0 0 0
0 0 0 0 0 0 0 0 0 0 0 8 0 0 1 67 121 139 183 427 363 343 502 105 309 74 0 0 0 10 150 279 656 680 569 359 238 104 0 0 0 0 0 0 7 3 0 0 0
0 0 0 0 0 0 0 0 0 0 0 53 87 278 92 79 149 134 199 313 208 104 178 329 176 0 0 0 0 0 11 310 555 658 400 183 40 0 0 0 0 0 0 0 17 29 2 0 0
0 0 0 0 0 0 0 0 0 0 0 10 23 71 86 105 131 182 169 206 37 23 53 41 30 7 7 17 0 0 4 162 375 355 217 69 0 0 0 0 0 0 0 0 28 28 16 0 0
0 0 0 0 0 0 0 0 0 0 0 0 0 8 89 69 48 61 60 32 17 2 1 0 1 0 1 1 1 0 37 69 225 169 137 19 1 0 0 0 0 0 0 0 0 0 0 0 0
0 0 0 0 0 0 0 0 0 0 0 0 0 0 0 6 17 4 2 1 2 1 3 5 1 0 0 0 45 3 11 15 116 122 56 40 11 0 0 0 0 0 0 0 0 0 0 0 0
0 0 0 0 0 0 0 0 0 7 1 0 3 0 0 16 33 1 0 0 2 1 4 12 5 2 0 0 10 2 8 40 80 79 60 52 7 0 0 0 0 0 0 0 0 0 0 0 0
0 0 0 0 0 10 0 2 57 14 4 0 20 0 0 0 0 1 1 1 0 2 1 3 8 2 8 3 2 2 20 64 62 24 11 10 0 0 0 0 0 0 0 0 0 0 0 0 0
0 0 0 0 0 0 0 0 0 17 5 1 4 0 0 2 0 0 0 0 0 1 2 1 0 8 9 14 13 2 1 0 9 1 0 2 1 0 0 0 0 0 0 0 0 0 0 0 0
0 0 0 0 0 0 0 0 0 0 14 11 0 0 0 0 0 0 0 0 0 1 2 2 6 4 8 4 0 0 0 2 7 13 5 3 0 0 0 0 0 0 0 0 0 0 0 0 0
0 0 0 0 0 0 0 0 0 1 22 14 0 0 0 0 0 0 0 0 0 0 1 3 2 1 1 0 0 0 0 4 7 17 17 3 0 0 0 0 0 0 0 0 0 0 0 0 0
0 0 0 0 0 0 0 0 0 37 18 60 0 0 0 0 0 0 0 0 1 0 0 1 1 0 0 0 0 0 0 0 2 21 45 37 24 15 1 0 0 0 0 0 0 0 0 0 0
0 0 0 0 0 0 0 0 0 5 31 54 0 0 0 0 0 0 1 0 1 1 1 0 1 2 0 0 0 1 5 0 0 0 13 72 61 55 30 8 0 0 0 0 0 0 0 0 0
0 0 0 0 0 0 0 0 0 0 20 58 10 0 0 0 1 1 0 0 0 0 0 0 0 1 1 0 0 0 0 0 0 0 0 13 40 58 36 1 0 0 0 0 0 0 0 0 0
0 0 0 0 0 0 0 0 0 0 0 14 9 0 0 0 0 0 0 0 0 0 0 0 0 0 0 0 0 0 0 0 0 0 0 0 0 8 14 10 1 0 0 0 0 0 0 0 0
0 0 0 0 0 0 0 0 0 0 0 0 0 7 0 0 0 0 0 0 0 1 0 0 0 0 0 0 0 0 0 0 0 0 0 0 0 0 4 3 0 0 0 0 0 0 0 0 0
0 0 0 0 0 0 0 0 0 0 0 0 0 0 0 0 0 0 0 0 0 0 0 0 0 0 0 0 0 0 0 0 0 0 0 0 0 0 0 1 0 0 0 0 0 0 0 0 0
0 0 0 0 0 0 0 0 0 0 0 0 0 0 0 0 0 0 0 0 0 0 0 0 0 0 0 0 0 0 0 0 0 0 0 0 0 0 0 0 0 0 0 0 0 0 0 0 0
0 0 0 0 0 0 0 0 0 0 0 0 0 0 0 0 0 0 0 0 0 0 0 0 0 0 0 0 0 0 0 0 0 0 0 0 0 0 0 0 0 0 0 0 0 0 0 0 0
0 0 0 0 0 0 0 0 0 0 0 0 0 0 0 0 0 0 0 0 0 0 0 0 0 0 0 0 0 0 0 0 0 0 0 0 0 0 0 0 0 0 0 0 0 0 0 0 0
0 0 0 0 0 0 0 0 0 0 0 0 0 0 0 0 0 0 0 0 0 0 0 0 0 0 0 0 0 0 0 0 0 0 0 0 0 0 0 0 0 0 0 0 0 0 0 0 0
0 0 0 0 0 0 0 0 0 0 0 0 0 0 0 0 0 0 0 0 0 0 0 0 0 0 0 0 0 0 0 0 0 0 0 0 0 0 0 0 0 0 0 1 0 0 0 0 0
0 0 0 0 0 0 0 0 0 0 0 0 0 0 0 0 0 0 0 0 0 0 0 0 0 0 0 0 0 0 0 0 0 0 0 0 0 0 0 0 0 0 0 0 0 0 0 0 1
0 0 0 0 0 0 0 0 0 0 0 0 0 0 0 0 0 0 0 0 0 0 0 0 0 0 0 0 0 0 0 0 0 0 0 0 0 0 0 0 0 0 0 0 0 0 0 0 0

GFSSGP_con_sbcape_051.txt.gz
CAPE
0 0 0 0 0 0 0 0 0 0 0 31 173 274 134 264 280 120 407 265 554 252 913 1028 1299 1555 1620 1698 1825 1835 1831 1690 1600 1381 1318 1296 1093 804 642 522 412 380 292 23 27 23 26 44 38
0 0 0 0 0 0 0 0 0 0 0 3 12 154 258 245 445 650 576 274 496 824 1351 1292 1414 1345 1611 1603 1579 1619 1841 1767 1532 1428 1268 1162 878 774 688 519 394 397 344 33 36 27 23 37 67
0 0 0 0 0 0 0 0 0 0 0 15 177 107 342 310 263 478 194 338 614 1376 1351 1460 1550 1495 1649 1677 1576 1705 1693 1524 1391 1280 1199 963 900 852 757 567 585 477 336 111 64 49 37 37 62
0 0 0 0 0 0 0 0 0 0 0 0 1 41 198 445 347 654 374 524 558 1058 1382 1460 1480 1537 1739 1809 1721 1733 1497 1325 1184 1126 996 958 1006 956 755 600 497 533 487 355 96 15 10 59 13
0 0 0 0 0 0 0 0 0 0 0 0 25 72 70 683 559 701 667 552 470 908 1560 1351 1099 1156 1671 1862 1866 1725 1422 1255 1100 1036 794 883 987 823 644 517 468 433 404 303 221 4 6 6 0
0 0 0 0 0 0 0 0 0 0 0 0 0 0 238 425 353 399 474 547 899 398 1178 1286 1086 955 1161 1433 1499 1403 1263 1174 1051 839 667 827 753 562 478 253 153 150 286 442 257 60 2 0 0
0 0 0 0 0 0 0 0 0 0 0 2 0 0 0 132 224 297 322 382 691 447 256 719 840 576 352 579 760 827 906 833 753 570 422 461 449 379 202 140 359 333 418 281 150 2 0 0 0
0 0 0 0 0 0 0 0 0 0 0 0 0 4 1 77 134 232 345 335 394 568 317 216 256 558 116 69 33 407 510 317 253 420 258 260 250 150 55 224 474 427 289 190 55 14 1 4 0
0 0 0 0 0 0 0 0 0 0 0 8 78 155 55 44 171 322 246 486 444 211 667 517 666 447 65 1 0 128 358 262 174 325 203 132 118 0 0 54 258 220 109 63 30 14 10 4 0
0 0 0 0 0 0 0 0 0 0 0 0 35 21 17 21 130 253 277 311 354 194 349 247 218 113 3 1 1 41 165 133 123 334 254 97 39 0 0 21 58 85 90 68 55 24 6 0 0
0 0 0 0 0 0 0 0 0 0 0 0 14 9 40 29 64 200 67 123 51 46 17 36 7 2 4 4 0 0 19 59 94 343 159 47 0 0 1 2 14 32 57 52 22 4 0 0 0
0 0 0 0 0 0 0 0 0 0 0 0 0 8 13 7 85 61 18 6 2 3 3 3 5 4 5 7 0 1 29 40 91 310 88 0 10 0 3 2 0 0 9 63 12 0 0 0 0
0 0 0 0 0 0 0 0 0 2 0 0 8 9 0 2 2 9 3 9 2 2 4 2 1 2 3 1 19 11 8 50 93 195 72 6 12 5 0 0 0 0 0 0 0 0 0 0 0
0 0 0 0 0 0 0 0 91 9 0 0 36 0 2 1 2 0 1 1 8 7 9 4 3 1 0 11 3 20 4 33 97 141 79 74 25 6 0 0 0 0 0 0 0 0 0 0 0
0 0 0 0 0 0 0 1 18 3 0 0 3 0 2 1 4 5 0 0 1 5 6 6 10 5 1 9 9 25 9 41 84 90 91 107 17 12 3 0 0 0 0 0 0 0 0 0 0
0 0 0 0 0 0 0 0 0 6 41 24 8 2 1 0 2 0 1 0 1 1 6 5 12 6 1 15 17 32 2 19 33 58 93 49 25 6 0 0 0 0 0 0 0 0 0 0 0
0 0 0 0 0 0 0 0 0 14 59 69 15 0 2 0 1 0 3 1 3 1 1 6 5 6 8 1 12 17 2 12 17 40 74 58 30 3 3 0 0 0 0 0 0 0 0 0 0
0 0 0 0 0 0 0 0 0 27 78 96 79 5 1 1 1 1 9 1 4 2 3 4 7 8 14 6 0 1 11 0 13 52 57 42 43 25 14 1 0 0 3 0 0 0 0 0 0
0 0 0 0 0 0 0 0 0 0 60 114 114 31 2 0 0 1 3 9 1 8 6 6 3 2 2 2 7 6 3 0 8 93 75 77 77 65 58 34 10 0 0 21 2 0 0 0 0
0 0 0 0 0 0 0 0 0 0 20 60 129 99 21 0 3 1 0 7 6 5 4 2 3 2 2 1 1 0 0 0 4 12 57 86 91 64 81 84 53 23 9 13 4 0 0 0 0
0 0 0 0 0 0 0 0 0 0 0 1 60 100 61 0 0 1 1 2 3 4 5 5 2 1 1 6 0 0 0 0 0 0 7 29 71 67 115 146 146 102 114 36 24 3 0 0 0
0 0 0 0 0 0 0 0 0 0 0 0 0 40 71 4 0 0 1 3 5 1 2 2 12 3 2 1 0 0 0 0 0 0 0 0 12 69 116 183 136 90 134 129 98 13 0 0 0
0 0 0 0 0 0 0 0 0 0 0 0 0 0 20 8 0 0 0 0 0 3 3 0 9 12 6 0 0 0 0 0 0 0 0 0 0 6 26 62 111 141 119 112 82 11 0 0 7
0 0 0 0 0 0 0 0 0 0 0 0 0 0 0 0 0 0 0 0 0 1 1 2 7 9 6 3 0 0 0 0 0 0 0 0 0 0 1 7 65 104 114 99 57 42 0 0 0
0 0 0 0 0 0 0 0 0 0 0 0 0 0 0 0 0 0 0 0 0 1 0 0 3 3 5 2 0 0 0 0 0 0 0 0 0 0 0 5 25 29 31 73 90 38 19 0 0
0 0 0 0 0 0 0 0 0 0 0 0 0 0 0 0 0 0 0 0 0 1 0 1 5 4 1 2 0 0 0 0 0 0 0 0 0 0 0 1 5 5 0 11 47 75 57 27 9
0 0 0 0 0 0 0 0 0 0 0 0 0 0 0 0 0 0 0 0 0 0 0 1 1 1 2 0 0 0 0 0 0 0 0 0 0 0 0 0 0 0 0 10 14 27 41 31 14
0 0 0 0 0 0 0 0 0 0 0 0 0 0 0 0 0 0 0 0 0 0 0 0 0 0 0 0 0 0 0 0 0 0 0 0 0 0 0 0 0 0 1 0 2 21 23 8 3
0 0 0 0 0 0 0 0 0 0 0 0 0 0 0 0 0 0 0 0 0 0 0 0 0 0 0 0 0 1 1 0 0 0 0 0 0 0 0 0 0 1 8 32 38 44 38 0 1
0 0 0 0 0 0 0 0 0 0 0 0 0 0 0 0 0 0 0 0 0 0 0 0 0 0 0 0 0 1 1 0 0 0 0 0 0 0 0 0 0 0 7 36 21 10 1 0 0

GFSSGP_con_sbcape_054.txt.gz
CAPE
0 0 0 0 0 0 0 0 0 0 0 0 161 228 93 178 162 216 846 880 1202 1093 1172 1176 1515 1637 2140 1992 1912 1869 1965 1878 1669 1623 1611 1525 1464 1412 1209 978 789 699 595 126 21 22 26 28 24
0 0 0 0 0 0 0 0 0 0 0 12 137 95 226 226 513 877 963 888 1144 907 1259 1035 1560 1579 2131 2110 2030 2010 2127 1965 1710 1785 1664 1512 1244 1065 892 602 459 382 332 26 29 34 25 24 72
0 0 0 0 0 0 0 0 0 0 0 13 42 203 315 378 499 902 677 771 942 1125 1095 928 1526 1744 1826 2123 2121 2056 1948 1812 1694 1674 1536 1349 1199 984 760 417 305 334 223 24 24 38 34 31 40
0 0 0 0 0 0 0 0 0 0 0 0 6 29 260 504 580 900 708 822 866 1517 1405 1384 1385 1640 1736 1945 2021 1997 1819 1601 1458 1398 1303 1309 1274 1038 758 403 387 501 382 68 20 26 26 23 17
0 0 0 0 0 0 0 0 0 0 0 0 26 14 123 761 754 841 932 716 1180 805 1690 1477 1311 1529 1321 1072 2009 1891 1676 1463 1415 1251 1217 1240 1228 1021 754 476 514 510 438 78 18 19 5 1 1
0 0 0 0 0 0 0 0 0 0 0 0 0 5 95 762 691 797 678 998 1420 919 1785 1549 1444 1290 1153 1275 1168 1482 1369 1129 1264 1189 1216 1263 1107 836 656 597 508 341 331 144 100 23 2 0 0
0 0 0 0 0 0 0 0 0 0 0 0 0 6 53 287 501 747 576 926 1158 765 615 1547 1401 1037 946 804 1111 1166 1102 1031 1019 1120 1150 1011 801 641 518 372 368 423 338 175 116 12 0 0 0
0 0 0 0 0 0 0 0 0 0 0 45 6 4 22 409 287 464 719 795 1043 1089 280 633 634 866 839 1009 286 697 851 831 778 875 748 569 520 291 300 299 511 497 305 148 111 28 0 0 0
0 0 0 0 0 0 0 0 0 0 0 36 128 137 375 172 208 422 609 790 834 621 717 423 88 78 355 304 245 637 663 561 523 537 390 265 294 192 112 105 413 351 132 101 99 26 0 0 0
0 0 0 0 0 0 0 0 0 0 0 0 79 279 182 49 131 320 365 606 529 366 393 564 17 233 219 109 11 54 215 377 257 112 181 326 335 141 38 347 312 211 100 103 74 22 0 0 0
0 0 0 0 0 0 0 0 0 0 0 0 2 137 179 138 101 231 417 320 498 374 92 582 192 255 61 1 1 7 89 57 33 38 93 238 225 53 243 417 286 173 53 8 9 0 0 0 0
0 0 0 0 0 0 0 0 0 0 0 0 0 14 126 156 205 232 274 306 162 107 139 132 305 178 145 28 27 29 97 64 74 56 94 405 192 169 143 142 156 108 52 34 13 2 0 0 0
0 0 0 0 0 0 0 0 0 0 4 0 33 67 111 204 187 94 80 219 105 6 61 82 32 21 5 5 6 14 43 30 55 85 171 206 147 140 61 107 129 127 141 94 45 17 11 0 0
0 0 0 0 0 0 0 0 5 2 44 72 133 85 95 40 44 20 2 8 134 5 3 4 8 10 9 6 13 11 8 25 67 80 182 104 98 101 24 33 12 29 97 89 23 15 4 0 0
0 0 0 0 0 0 0 0 11 0 99 117 167 74 9 66 27 12 5 21 7 24 7 7 5 4 3 9 13 4 35 33 93 131 184 92 63 79 63 3 6 6 10 18 1 6 0 0 0
0 0 0 0 0 0 0 0 0 8 91 91 168 44 16 27 9 0 5 1 2 10 7 9 11 11 10 14 16 2 45 43 82 139 132 70 16 63 51 9 6 2 2 3 0 3 0 0 0
0 0 0 0 0 0 0 0 0 0 37 27 153 145 53 24 13 0 0 8 3 5 12 6 9 17 19 29 27 10 16 16 46 138 96 60 21 4 26 8 15 28 10 6 0 0 0 0 0
0 0 0 0 0 0 0 0 0 0 4 38 102 219 87 44 4 0 2 5 7 8 8 7 11 16 20 26 44 33 15 8 31 64 122 94 32 41 38 14 34 53 27 27 1 0 0 0 0
0 0 0 0 0 0 0 0 0 0 0 42 127 276 184 76 16 0 1 4 8 15 12 8 6 10 11 13 31 37 17 0 14 5 75 174 58 53 70 32 56 51 73 73 52 27 4 0 0
0 0 0 0 0 0 0 0 0 0 0 58 124 253 312 141 58 1 0 6 5 14 14 17 7 13 9 10 17 18 5 0 0 8 50 135 171 60 88 64 49 46 101 146 128 93 44 22 0
0 0 0 0 0 0 0 0 0 0 0 8 71 104 292 318 120 39 0 0 12 15 21 11 12 6 8 4 10 6 4 6 8 6 68 144 190 114 104 114 103 85 87 127 194 187 164 175 52
0 0 0 0 0 0 0 0 0 0 0 0 2 171 250 367 244 88 31 0 0 5 19 27 13 8 7 7 8 4 0 2 1 0 31 93 168 150 115 133 157 204 151 131 207 215 206 276 198
0 0 0 0 0 0 0 0 0 0 0 0 0 6 184 313 407 207 89 66 5 0 13 13 20 19 6 8 6 0 5 0 0 0 23 113 155 146 107 133 208 274 346 302 354 300 302 289 483
0 0 0 0 0 0 0 0 0 0 0 0 0 0 20 129 321 329 168 86 43 0 6 8 17 23 11 6 9 0 0 3 8 0 0 5 21 132 180 173 268 303 292 361 490 467 398 372 306
0 0 0 0 0 0 0 0 0 0 0 0 0 0 0 41 192 276 265 150 70 23 1 6 7 12 21 12 11 12 7 4 28 0 0 1 0 7 30 111 123 120 159 224 258 369 427 429 407
0 0 0 0 0 0 0 0 0 0 0 0 0 0 0 16 161 190 289 237 143 69 1 0 1 6 16 20 14 29 28 61 21 9 1 2 0 22 17 42 66 56 73 94 119 138 215 262 391
0 0 0 0 0 0 4 1 0 0 0 0 0 0 0 0 77 132 195 296 236 124 25 0 0 0 2 15 40 28 26 39 40 14 18 8 8 4 27 9 9 3 7 27 56 134 89 226 394
0 0 0 0 2 7 0 1 3 0 0 0 0 0 0 0 0 15 143 259 243 186 52 0 0 0 0 6 32 33 46 47 62 70 45 22 32 12 0 0 0 12 20 42 42 143 120 182 349
0 0 0 5 5 6 11 14 1 0 0 0 0 0 0 0 7 34 103 216 226 226 142 42 5 0 1 7 16 37 114 62 52 171 101 44 34 22 5 8 4 7 17 41 82 146 181 254 365
5 0 0 1 13 0 8 11 3 0 0 0 0 0 0 0 0 2 141 239 220 249 203 175 79 36 9 0 4 91 43 38 79 126 109 151 108 10 31 22 5 5 54 77 99 106 70 135 188

GFSSGP_con_sbcape_057.txt.gz
CAPE
0 0 0 0 0 0 0 0 0 0 0 0 0 0 2 0 1 154 1099 1201 1544 1346 1544 1183 1444 1784 2089 1960 1798 1789 1843 1856 1720 1592 1603 1618 1489 1406 1290 1057 925 925 697 115 57 163 110 79 48
0 0 0 0 0 0 8 0 0 0 0 0 0 0 1 16 139 258 1009 1233 1336 1313 1611 1194 1549 1636 2081 1969 1819 1819 1850 1875 1772 1699 1745 1650 1405 1287 1214 991 890 815 525 18 17 65 55 8 8
0 0 0 0 0 0 2 0 0 0 0 0 0 17 0 0 382 712 1066 1166 1320 1528 1525 1462 1549 1669 1952 1985 1897 1842 1884 1725 1794 1755 1918 1618 1370 1332 1100 753 686 639 366 51 14 28 17 14 10
0 0 0 0 0 0 0 0 0 0 0 0 0 2 54 361 603 1033 1047 1023 1490 1676 1320 1073 1422 1650 1976 1850 1939 1883 1780 1490 1300 1459 1774 1617 1431 1184 885 539 488 478 273 100 70 26 10 0 0
0 0 0 0 0 0 0 0 0 0 0 0 3 14 18 676 752 896 1014 979 1348 1768 1635 1449 1279 1548 1637 1751 1697 1569 1472 1252 1361 1556 1517 1385 1169 988 686 491 344 337 265 189 50 12 0 0 0
0 0 0 0 0 0 0 0 0 0 0 0 3 2 8 958 610 940 912 1132 1191 1689 1929 1603 1367 1263 1243 1330 769 677 865 1074 1284 1374 1400 1318 1000 728 667 659 555 266 188 195 95 11 4 6 0
0 0 0 0 0 0 0 0 0 0 0 0 32 0 1 369 531 680 864 932 1166 1485 1811 1894 1610 1256 840 610 585 376 915 1097 1203 1171 1142 1031 761 658 669 690 540 257 184 142 31 14 12 0 0
0 0 0 0 0 0 0 0 0 0 0 13 0 0 1 818 569 598 669 700 767 1390 1185 1429 1319 1159 804 1021 280 224 289 569 983 1074 963 872 709 690 585 419 435 251 205 133 34 8 14 0 0
0 0 0 0 0 0 0 0 0 0 0 0 11 11 200 505 334 412 534 518 765 1100 950 340 874 883 751 596 334 372 322 327 766 969 615 473 611 579 320 267 370 227 79 53 3 5 0 0 0
0 0 0 0 0 0 0 0 0 0 0 0 0 4 398 356 215 203 197 343 651 790 870 470 198 440 438 366 61 203 170 213 445 747 621 211 253 322 247 296 265 118 42 0 2 0 0 0 0
0 0 0 0 0 0 0 0 0 0 0 9 0 0 334 383 143 250 126 365 492 549 698 233 104 79 197 54 250 76 861 619 300 83 2 0 198 274 352 430 365 61 1 0 0 0 0 0 0
0 0 0 0 0 0 0 0 0 0 0 0 0 0 168 155 204 267 260 410 475 549 405 297 29 59 75 65 119 79 24 34 11 24 31 58 142 278 443 307 211 22 0 0 0 0 14 0 0
0 0 0 0 0 0 0 0 0 0 0 1 0 54 59 6 106 243 268 358 282 238 350 79 68 190 31 6 33 22 99 36 29 4 32 51 171 241 386 309 221 65 87 1 3 10 5 2 4
0 0 0 0 0 0 0 0 0 0 0 0 11 171 83 17 33 167 282 367 249 26 4 5 3 7 9 7 13 18 50 21 18 0 18 53 183 205 310 319 290 188 170 69 20 32 4 1 3
0 0 0 0 0 0 0 0 0 0 0 0 45 173 122 69 20 31 123 285 240 137 16 5 8 8 2 3 7 14 17 20 3 9 47 126 182 265 393 369 306 256 242 158 57 16 3 0 1
0 0 0 0 0 0 0 0 0 0 0 0 46 128 137 44 3 4 31 162 135 19 7 15 7 3 3 5 9 4 3 12 13 23 113 156 168 224 284 164 130 84 152 83 31 0 1 0 0
0 0 0 0 0 0 0 0 0 0 0 0 24 129 153 147 8 0 1 36 133 8 2 8 15 14 11 12 4 7 9 16 39 63 144 171 126 88 114 28 85 92 81 59 13 9 6 1 0
0 0 0 1 1 0 0 0 0 0 0 0 10 78 208 162 90 7 0 0 57 15 5 8 12 12 16 14 3 9 6 26 46 73 110 79 59 84 117 102 187 77 40 15 6 60 8 10 1
0 7 7 0 0 0 0 0 0 0 0 0 9 40 189 196 131 0 11 0 14 12 22 22 9 16 22 18 9 16 9 13 30 83 89 107 69 72 110 69 190 169 98 69 135 13 3 1 1
0 0 0 0 0 0 0 0 0 0 0 0 4 36 117 288 175 36 43 0 17 9 22 13 7 12 14 24 43 5 1 5 7 15 120 122 145 63 95 110 78 156 151 261 227 168 34 5 2
0 0 0 0 0 0 0 0 0 0 0 0 0 0 24 223 264 184 58 42 0 17 18 12 5 12 14 22 58 33 38 7 13 0 34 108 163 72 78 119 144 167 239 327 333 239 200 92 61
0 0 0 0 0 0 0 0 0 0 0 0 0 0 0 45 273 249 125 129 17 2 11 19 11 6 21 18 17 15 11 13 0 0 0 45 137 114 52 130 253 293 229 352 426 319 297 341 253
0 0 2 0 0 0 0 0 0 0 1 0 0 0 0 0 210 319 259 171 93 24 11 17 11 8 8 15 11 20 19 10 0 0 0 67 130 75 101 193 296 327 314 371 405 440 463 378 367
0 0 0 2 0 0 0 0 0 0 1 0 0 0 0 0 90 299 298 245 181 36 35 16 27 11 7 14 15 17 9 6 3 1 0 48 93 154 125 186 241 346 468 498 437 436 529 549 474
0 3 9 8 8 0 0 0 0 0 0 0 0 0 2 2 1 277 365 304 238 105 34 6 10 27 11 8 6 15 22 1 8 7 0 0 8 33 121 198 182 324 414 453 252 379 590 626 648
0 0 0 0 23 14 0 6 0 0 0 0 0 0 0 0 5 230 411 430 281 250 75 9 2 8 24 16 12 20 21 15 25 14 15 6 0 0 62 212 305 399 481 525 403 451 457 271 387
6 5 0 2 5 30 11 6 0 0 0 0 0 0 0 0 10 106 235 490 494 357 210 58 1 0 8 23 16 10 8 12 23 38 49 30 12 22 54 125 249 323 360 375 368 458 487 420 566
0 1 4 10 13 9 16 33 47 0 0 2 1 5 4 15 32 27 142 327 545 497 365 169 29 0 5 8 20 21 13 7 58 32 119 90 31 37 50 52 69 78 156 216 268 217 267 258 343
0 1 19 12 18 21 33 30 11 15 0 0 0 1 12 2 0 6 13 137 449 554 498 341 92 24 11 81 79 63 98 72 71 129 226 265 239 85 50 45 60 51 72 91 128 104 130 177 214
23 9 6 19 18 31 75 10 1 0 0 0 0 0 0 0 1 3 36 174 366 544 575 434 173 75 39 61 212 373 479 390 254 311 509 495 400 339 221 72 103 52 45 89 145 122 79 155 177

GFSSGP_con_sbcape_060.txt.gz
CAPE
0 0 0 0 0 0 0 0 0 0 0 0 0 0 0 0 0 282 1120 1255 1382 1350 1507 1449 1809 1975 1985 1852 1774 1727 1776 1738 1623 1661 1588 1524 1389 1278 1228 1177 1020 969 969 573 455 299 190 227 234
0 0 0 0 0 0 0 0 0 0 0 0 0 0 0 0 133 272 1361 1266 1223 1181 1495 1522 1520 2011 2042 1849 1762 1767 1859 1848 1741 1767 1679 1556 1505 1492 1268 1062 883 874 780 456 356 241 105 117 258
0 0 0 0 0 0 0 0 0 0 0 0 0 0 0 0 225 395 1122 1205 1170 1303 1735 1487 1413 1579 2035 1857 1764 1628 1653 1619 1605 1709 1807 1659 1648 1396 1053 1028 837 745 576 250 246 108 34 52 56
0 0 0 0 0 0 0 0 0 0 0 0 0 0 8 102 128 891 974 873 1388 1552 1721 1074 1316 1440 1692 1891 1719 1634 1452 1427 1477 1556 1634 1685 1610 1422 1175 918 749 614 369 103 122 59 25 27 21
0 0 0 0 0 0 0 0 0 0 0 0 0 0 3 592 809 768 927 876 1253 1597 1983 1378 1247 1507 1747 1682 1552 1556 1377 1357 1429 1502 1532 1482 1440 1264 1046 861 734 661 459 200 53 6 1 3 0
0 0 0 0 0 0 1 0 0 0 0 0 0 0 15 787 583 983 1018 881 1442 1562 1994 1813 1232 1409 1188 1586 1305 944 690 835 1226 1337 1438 1419 1094 907 817 693 627 534 352 191 78 15 1 0 0
0 0 0 0 0 0 1 0 0 0 0 0 6 0 0 532 538 721 987 864 1308 1448 1642 1926 1722 1353 711 746 532 219 4 2 727 1185 1116 984 756 724 740 827 582 439 251 144 62 3 0 0 0
0 0 0 0 0 0 0 0 0 0 0 0 0 0 0 899 625 716 651 656 919 1571 1656 1415 1370 1313 643 549 233 7 11 0 6 906 792 552 597 712 761 510 441 317 196 132 41 0 0 0 0
0 0 0 0 0 0 0 0 0 0 0 0 0 0 284 508 245 369 432 561 568 1121 1176 897 1131 1234 870 207 220 10 5 0 58 591 483 312 392 441 414 258 283 212 104 66 10 0 0 0 0
0 0 0 0 0 0 2 0 0 0 0 0 0 16 404 328 162 82 110 388 626 772 1067 635 770 674 306 157 130 6 1 1 105 359 284 324 360 246 235 155 205 158 66 7 0 0 0 0 0
0 0 0 0 0 0 0 0 0 0 0 0 8 0 647 491 160 157 85 165 466 621 877 730 381 446 193 113 116 41 39 124 61 149 153 161 168 205 169 107 74 13 1 0 0 0 0 0 0
0 0 0 0 0 0 0 0 0 0 0 0 0 0 0 213 205 267 140 297 475 494 419 384 297 167 130 184 139 29 10 70 19 0 0 49 32 113 169 108 3 0 0 0 0 0 0 0 0
0 0 0 0 0 0 0 0 0 0 0 0 0 0 0 31 0 68 130 303 280 220 417 185 16 9 120 126 180 79 66 2 0 0 0 0 10 48 115 83 1 0 0 0 0 0 0 0 0
0 0 0 0 0 0 0 0 0 0 0 0 0 0 40 42 0 24 159 288 230 57 51 23 16 78 9 110 78 113 50 2 0 0 0 9 18 25 110 136 22 0 0 0 0 1 0 0 0
0 0 0 0 0 0 0 0 0 0 0 0 0 0 75 60 0 0 127 276 232 47 1 4 1 0 3 37 57 40 38 2 0 0 0 4 1 24 145 151 107 27 6 0 0 5 0 4 2
0 0 0 0 0 0 0 0 0 0 0 0 0 7 107 73 35 3 0 166 173 17 2 2 4 2 3 8 12 22 46 11 2 0 0 0 3 91 136 149 124 64 35 28 35 0 0 1 0
0 0 0 0 0 0 0 0 0 0 0 0 0 13 121 128 47 11 0 89 114 4 5 9 4 3 2 2 4 4 5 2 1 0 0 0 0 78 62 46 60 102 57 35 17 1 0 0 4
0 0 0 0 0 0 0 0 0 0 0 0 0 0 86 153 143 29 1 0 66 0 4 5 11 10 6 5 4 9 3 2 3 0 0 21 21 13 1 26 12 9 15 28 10 5 4 3 2
0 0 0 0 1 0 0 0 0 0 0 1 0 0 14 213 189 42 28 0 35 0 10 3 8 13 7 4 5 2 8 15 11 11 5 27 19 4 29 35 46 31 3 0 23 36 13 7 0
0 0 0 0 0 0 0 0 0 0 0 0 0 7 0 89 169 82 51 0 38 6 4 16 8 14 11 2 2 2 4 2 9 21 0 0 4 7 30 50 60 73 119 102 50 15 25 5 0
0 0 0 0 0 0 0 0 0 0 0 0 0 0 10 40 180 112 112 21 31 20 6 5 9 10 7 9 4 2 2 3 1 1 3 15 14 3 15 58 90 96 118 84 71 73 49 0 0
0 0 0 0 1 0 0 0 0 0 0 0 0 0 0 3 234 211 144 114 2 24 1 4 6 3 7 9 12 1 3 6 0 0 2 25 79 30 32 61 79 70 47 126 140 139 127 104 2
0 3 1 0 3 0 0 0 0 0 0 0 0 0 0 0 67 260 200 189 46 28 1 0 6 4 3 12 11 11 5 1 0 0 0 2 59 121 39 54 100 67 42 43 99 149 165 150 147
0 0 1 0 13 0 0 0 0 0 0 0 5 3 0 2 6 227 304 201 181 15 23 1 10 10 6 3 11 11 7 0 0 0 0 0 4 91 98 49 68 110 122 74 109 155 171 157 205
0 0 6 1 8 2 0 0 0 0 0 0 0 0 0 15 20 174 345 214 237 79 55 1 2 13 13 2 2 3 14 2 0 0 0 0 0 22 62 42 41 78 77 126 159 145 160 230 168
0 0 9 10 23 0 0 0 0 0 0 0 0 0 3 6 26 47 305 324 281 169 111 0 2 9 9 10 4 4 3 6 1 0 0 0 0 1 19 21 15 46 60 87 167 170 135 112 117
0 0 0 0 0 0 0 1 0 0 0 0 0 0 0 0 0 35 310 466 309 286 107 32 0 6 9 0 12 8 10 1 1 0 0 0 0 0 8 32 35 19 34 87 122 119 105 80 104
0 0 2 0 0 1 19 23 5 11 0 0 3 0 1 20 10 36 87 529 440 391 227 126 9 0 0 4 6 5 5 4 0 2 0 0 0 0 0 7 55 55 47 83 126 107 73 92 95
1 1 3 5 12 18 11 5 12 0 4 22 3 10 5 10 0 5 84 157 543 485 382 193 81 10 0 0 5 8 2 2 7 3 2 0 0 0 0 0 1 10 42 50 49 44 52 69 62
0 0 2 20 16 13 20 24 7 0 0 0 0 0 1 6 18 17 19 170 290 568 515 416 172 76 15 9 0 2 7 3 2 0 0 2 0 0 0 0 0 0 0 4 11 14 13 18 18

GFSSGP_con_sbcape_063.txt.gz
CAPE
0 0 0 0 0 0 0 0 0 0 0 0 0 0 0 0 30 376 974 931 1210 1105 1353 1704 1783 1672 1713 1666 1690 1714 1661 1671 1711 1675 1488 1233 1225 1168 1158 1234 1190 1219 1181 691 390 482 271 356 493
0 0 0 0 0 0 0 0 0 0 0 0 0 0 0 1 839 1109 1117 997 961 1259 1276 1641 1922 1806 1811 1700 1764 1805 1835 1799 1856 1779 1566 1408 1515 1499 1353 1203 1176 1233 1093 667 495 336 416 439 415
0 0 0 0 0 0 0 0 0 0 0 0 0 0 0 121 187 938 923 1089 981 1123 1212 1575 1880 1898 1861 1770 1807 1832 1799 1695 1800 1727 1685 1678 1706 1604 1429 1156 1179 1148 1158 714 497 255 269 412 328
0 0 0 0 0 0 0 0 0 0 0 0 0 0 7 30 202 929 834 1047 1112 1087 1326 1381 1608 1899 1894 1860 1823 1696 1696 1479 1615 1619 1681 1805 1748 1577 1316 1024 958 1063 1114 469 215 219 211 60 50
0 0 0 0 0 0 0 0 0 0 0 0 0 0 102 607 798 727 676 662 1066 1051 1098 1075 1240 1536 1869 1932 1822 1604 1520 1194 1547 1604 1740 1662 1538 1337 1100 878 855 912 885 526 166 167 68 12 22
0 0 0 0 0 0 0 0 0 0 0 0 0 0 221 495 519 727 633 656 892 1105 1207 1118 1128 1410 1411 1610 1378 1366 1357 948 970 1331 1491 1529 1265 1083 887 788 618 558 465 267 166 57 24 9 0
0 0 0 0 0 0 0 0 0 0 0 0 0 0 191 291 667 721 496 498 593 845 1031 1144 839 982 911 752 617 135 330 21 92 309 1209 1068 844 817 819 840 677 504 270 151 77 41 0 0 0
0 0 0 0 0 0 0 0 0 0 0 0 0 0 356 393 282 200 405 440 424 647 845 865 842 769 303 156 47 10 0 1 0 5 100 546 372 637 675 600 546 362 184 124 82 24 0 0 0
0 0 0 0 0 0 0 0 0 0 0 0 0 0 591 418 250 133 147 118 114 600 440 471 708 658 85 85 14 0 1 0 2 8 0 319 379 376 323 337 337 202 80 49 7 0 0 0 0
0 0 0 0 0 0 0 0 0 0 0 0 0 371 367 77 48 16 0 83 180 292 266 321 320 340 105 96 24 16 2 0 2 11 3 219 265 181 224 186 176 99 40 22 0 0 0 0 0
0 0 0 0 0 0 0 0 0 0 0 0 1 292 202 23 0 0 0 33 102 256 356 171 254 43 42 12 2 16 1 0 0 53 98 176 225 180 61 66 50 20 3 0 0 0 0 0 0
0 0 0 0 0 0 0 0 0 0 0 0 0 268 295 138 0 0 0 74 238 277 374 167 116 26 2 24 3 0 1 12 4 39 84 93 93 47 34 31 26 5 0 0 0 0 0 0 0
0 0 0 0 0 0 0 0 0 0 0 0 0 0 3 10 0 2 47 42 22 153 116 113 48 9 7 15 1 3 35 17 11 27 26 18 35 16 0 2 1 0 0 0 0 0 0 0 0
0 0 0 0 0 0 0 0 0 0 0 0 0 0 0 0 0 0 29 52 0 13 0 14 3 2 5 3 2 0 20 1 0 5 7 0 21 10 0 0 0 0 0 0 0 0 0 0 0
0 0 0 0 0 0 0 0 0 0 0 0 0 0 0 0 0 0 0 24 0 0 0 3 6 0 10 0 9 5 1 0 0 0 0 0 0 0 11 0 0 0 0 0 0 0 0 0 0
0 0 0 0 0 0 0 0 0 0 0 0 0 0 0 0 0 0 0 13 0 0 0 3 5 2 6 0 0 3 0 0 0 0 0 0 0 0 28 4 0 1 0 0 0 0 0 0 0
0 0 0 0 0 0 0 0 0 0 0 0 0 0 0 0 0 0 0 0 0 0 0 1 0 1 0 0 1 7 3 0 0 0 0 0 0 0 33 25 1 14 0 0 1 0 0 0 0
0 0 0 0 0 0 0 0 0 0 0 0 0 0 0 0 0 0 0 0 0 0 0 0 4 1 1 1 2 3 31 8 0 0 0 0 0 4 3 32 24 28 24 6 1 0 0 0 0
0 0 0 0 0 0 0 0 0 0 0 0 0 0 0 0 0 0 0 0 0 0 0 0 4 3 1 1 2 2 1 1 1 0 0 0 0 0 0 5 4 0 15 0 0 0 0 0 0
0 0 0 0 0 0 0 0 0 0 0 0 0 0 0 0 0 0 0 0 0 0 0 0 0 3 3 8 6 7 2 1 0 1 0 0 0 0 0 0 0 0 1 0 0 2 1 0 0
0 0 0 0 0 0 0 0 0 0 0 0 0 0 0 1 0 0 0 0 0 0 0 0 0 4 4 0 1 2 1 3 2 3 1 0 0 0 0 0 0 0 1 1 1 1 0 3 0
0 0 0 0 0 0 0 0 0 0 0 0 0 0 0 9 0 0 0 0 0 0 0 0 0 1 1 2 1 1 1 2 1 1 0 0 0 0 0 0 0 0 15 41 15 2 2 0 0
0 0 0 0 0 0 0 0 0 0 0 0 0 0 0 4 0 0 0 0 0 0 0 0 1 1 1 3 1 0 0 0 1 0 0 0 0 0 0 0 0 5 16 40 18 8 1 13 5
0 0 0 0 0 0 0 0 0 0 0 0 0 0 0 0 0 0 0 0 0 0 0 0 0 2 4 2 2 0 0 0 0 0 0 0 0 0 0 0 4 5 0 2 46 29 13 17 43
0 0 0 0 0 0 0 0 0 0 0 0 0 0 0 0 2 0 0 0 0 0 0 0 0 2 7 3 1 0 0 0 0 0 0 0 0 2 9 1 5 27 15 0 8 54 54 44 33
0 0 0 3 0 0 0 0 0 0 0 0 0 0 0 0 25 1 0 0 0 0 0 0 0 1 8 2 1 0 0 0 0 0 0 0 0 0 2 6 1 8 39 45 71 72 75 85 35
0 0 0 0 0 0 0 0 0 0 0 0 0 0 1 3 2 37 2 2 0 0 0 0 0 0 6 6 1 0 3 0 0 0 0 0 0 0 0 1 8 4 16 41 67 100 54 60 52
0 0 0 1 3 0 0 0 0 0 0 0 0 0 0 0 0 35 35 15 15 0 0 0 0 0 0 5 4 3 1 3 0 0 0 0 0 0 0 0 0 2 6 28 52 66 77 56 16
1 11 5 5 0 0 0 0 0 0 0 0 0 0 0 0 0 0 72 34 33 0 0 0 0 0 0 0 1 8 2 1 3 0 0 0 0 0 0 0 0 1 0 0 9 25 36 30 17
4 13 0 19 7 0 0 0 0 0 0 0 0 0 0 0 0 0 0 0 32 21 0 0 0 0 0 0 0 0 4 5 6 3 0 0 0 0 0 0 0 0 0 1 0 0 5 3 0

GFSSGP_con_sbcape_066.txt.gz
CAPE
0 0 0 0 0 0 0 0 0 0 0 0 0 0 2 7 48 10 493 855 1173 1192 1613 1444 1478 1666 1756 1704 1679 1648 1803 1810 1695 1548 1397 1288 1214 1051 917 875 1012 1193 1167 757 633 743 736 477 634
0 0 0 0 0 0 0 0 0 0 0 0 0 0 0 471 948 1008 802 969 1105 1149 1472 1690 1537 1674 1784 1747 1740 1739 1864 1875 1747 1517 1449 1366 1295 1535 1434 1263 1145 1202 1061 580 388 745 567 574 516
0 0 0 0 0 0 0 0 0 0 0 0 0 0 0 398 1044 987 739 760 1091 1148 1409 1800 1627 1656 1718 1767 1740 1715 1763 1808 1712 1518 1568 1536 1673 1677 1582 1414 1322 1338 1282 861 707 560 597 555 291
0 0 0 0 0 0 0 0 0 0 0 0 0 0 22 30 934 763 903 714 991 1056 1445 1723 1658 1679 1757 1799 1794 1760 1701 1662 1620 1504 1678 1770 1781 1720 1594 1342 1319 1249 1185 937 663 564 643 257 139
0 0 0 0 0 0 0 0 0 0 0 0 0 0 62 673 624 698 774 847 588 881 1226 1527 1621 1754 1785 1824 1823 1749 1607 1594 1624 1605 1719 1779 1732 1575 1362 1131 1099 1037 1136 975 774 640 398 166 59
0 0 0 0 0 0 0 0 0 0 0 0 0 98 241 639 582 452 387 595 634 910 909 1161 1391 1762 1710 1550 1417 1559 1414 1469 1540 1566 1686 1756 1488 1249 1159 1076 973 992 735 618 453 158 75 21 0
0 0 0 0 0 0 0 0 0 0 0 0 0 7 350 406 531 382 293 445 639 999 827 890 1129 1253 762 1062 1011 797 658 829 772 119 745 1160 989 930 1015 981 900 639 480 451 237 97 12 10 0
0 0 0 0 0 0 0 0 0 0 0 0 0 294 476 402 572 308 185 78 419 381 815 734 692 626 141 71 163 115 226 151 17 5 2 104 551 771 735 637 582 464 367 256 165 41 23 2 1
0 0 0 0 0 0 0 0 0 0 3 0 0 138 209 441 206 164 6 0 234 448 211 279 400 224 41 0 16 34 72 155 51 1 0 1 100 290 428 337 340 310 139 121 81 10 15 0 0
0 0 0 0 0 0 0 0 0 0 0 0 336 565 451 278 78 63 38 0 340 234 112 178 222 71 17 1 0 0 0 5 2 0 1 0 61 178 293 267 211 125 116 90 40 0 0 0 0
0 0 0 0 0 0 0 0 0 0 0 0 93 549 364 212 21 8 0 0 1 81 79 60 88 133 101 2 4 2 0 0 0 0 0 0 122 157 199 124 65 53 81 7 0 0 0 0 0
0 0 0 0 0 0 0 0 0 0 0 0 101 370 74 21 13 0 0 0 57 181 36 38 36 136 35 1 1 1 0 0 0 2 0 13 45 84 57 22 9 11 0 0 0 0 0 0 0
0 0 0 0 0 0 0 0 0 0 0 0 132 161 57 11 0 0 0 23 17 110 66 50 55 60 42 2 2 1 0 7 0 37 1 25 57 32 16 12 3 0 0 0 0 0 0 0 0
0 0 0 0 0 0 0 0 0 0 0 0 156 50 97 0 1 0 13 12 16 1 17 15 47 35 22 1 1 0 9 14 15 68 33 58 7 3 6 1 0 0 0 0 0 0 0 0 0
0 0 0 0 0 0 0 0 0 0 0 0 0 0 0 0 0 12 26 10 8 0 0 11 7 19 2 1 0 8 2 6 17 25 7 17 12 0 0 0 0 0 0 0 0 0 0 0 0
0 0 0 0 0 0 0 0 0 0 0 0 0 0 0 0 1 23 18 0 0 0 0 0 16 13 4 3 2 1 0 0 0 0 0 1 2 0 0 0 0 0 0 0 0 0 0 0 0
0 0 0 0 0 0 0 0 0 0 0 0 0 0 0 0 0 2 15 0 0 0 0 1 2 2 1 2 1 0 0 0 0 0 0 7 0 0 0 0 0 0 0 0 0 0 0 0 0
0 0 0 0 0 0 0 0 0 0 0 0 0 0 0 2 0 0 23 0 0 0 0 0 0 1 0 4 4 2 1 0 0 0 0 1 0 13 3 0 0 0 0 0 0 0 0 0 0
0 0 0 0 0 0 0 0 0 0 0 0 0 0 0 0 0 1 3 0 0 0 0 0 1 1 1 1 1 3 2 1 1 0 0 0 0 0 19 0 0 2 0 0 0 0 0 0 0
0 0 0 0 0 0 0 0 0 0 0 0 0 0 0 2 0 3 3 0 0 0 0 0 1 1 1 1 0 0 0 0 1 0 0 0 0 0 4 11 1 13 2 0 0 0 0 0 0
0 0 0 0 0 0 0 0 0 0 0 0 0 0 0 5 0 0 7 0 0 0 0 0 1 1 0 0 0 0 0 1 1 1 2 0 0 0 0 6 0 4 0 0 0 0 0 0 0
2 0 0 0 0 0 0 0 0 0 0 0 0 0 0 0 0 0 14 0 0 0 0 0 0 0 0 0 0 1 1 2 4 0 0 2 0 0 0 0 0 2 5 0 0 0 0 0 2
9 22 0 0 0 0 0 0 0 0 0 0 0 0 0 0 0 0 11 0 0 0 0 0 0 0 1 2 0 1 1 1 0 1 1 1 0 0 0 0 0 0 4 0 0 0 0 0 0
34 8 0 0 0 0 0 0 0 0 0 0 0 0 0 0 0 0 0 0 0 0 0 0 0 0 0 8 2 1 0 0 0 0 0 0 0 0 0 0 1 0 0 0 0 0 0 0 1
21 5 2 0 0 0 0 0 0 0 0 0 0 0 0 0 3 0 0 0 0 0 0 0 0 1 0 1 4 0 0 0 0 0 0 0 0 0 0 0 0 0 0 0 22 11 6 7 8
2 0 0 9 0 0 0 0 0 0 0 0 0 0 0 0 0 0 0 0 0 0 0 0 0 0 0 1 0 0 0 0 0 0 0 0 0 0 0 0 0 0 0 0 1 66 50 14 5
0 6 0 0 0 0 0 0 0 0 0 0 0 0 0 2 0 0 0 0 0 0 0 0 0 0 0 0 1 0 0 0 0 0 0 0 0 0 0 0 0 0 6 17 10 2 12 25 21
7 2 8 38 13 0 0 0 0 0 0 0 0 0 0 35 31 17 2 0 0 0 0 0 0 0 0 0 1 0 0 0 0 0 0 0 0 0 0 2 1 0 0 3 13 23 20 13 10
0 12 5 1 2 1 0 1 0 0 0 0 0 0 0 0 0 3 0 0 0 0 0 0 0 0 0 0 0 1 0 0 0 0 0 0 0 0 0 0 0 1 2 0 0 9 15 8 8
0 0 6 23 5 0 0 2 5 0 0 0 0 0 0 0 0 0 0 0 0 0 0 0 0 0 0 0 0 0 0 2 2 0 0 0 0 0 0 0 0 0 0 0 0 0 0 6 10

GFSSGP_con_sbcape_069.txt.gz
CAPE
0 0 0 0 0 0 0 0 0 0 0 0 0 0 0 2 0 0 156 846 1038 1237 1328 1326 1495 1646 1623 1491 1603 1689 1669 1687 1625 1588 1540 1471 1384 1310 1269 1302 1362 1346 1347 1139 1043 1007 1009 881 863
0 0 0 0 0 0 0 0 0 0 0 0 0 0 0 285 777 722 711 949 1093 1359 1387 1328 1512 1647 1744 1657 1668 1750 1842 1779 1673 1565 1491 1393 1350 1303 1274 1301 1296 1313 1329 1193 1138 1107 929 717 698
0 0 0 0 0 0 0 0 0 0 0 0 0 0 3 274 876 750 575 1162 918 1276 1437 1376 1534 1603 1742 1729 1727 1771 1784 1724 1604 1527 1519 1382 1267 1251 1345 1300 1247 1304 1318 1194 1045 894 733 600 391
0 0 0 0 0 0 0 0 0 0 0 0 0 0 0 243 846 818 659 1076 953 993 1478 1532 1455 1532 1764 1785 1764 1743 1756 1545 1504 1473 1463 1505 1623 1573 1490 1303 1248 1240 1165 1267 1069 680 462 390 291
0 0 0 0 0 0 0 0 0 0 0 0 0 0 6 615 628 684 667 1031 959 861 1280 1561 1374 1501 1729 1844 1795 1681 1690 1511 1382 1419 1438 1636 1701 1697 1563 1350 1354 1249 1161 1195 944 608 365 348 144
0 0 0 0 0 0 0 0 0 0 0 0 0 1 144 612 707 464 507 632 743 818 1005 1386 1523 1486 1636 1718 1410 1393 1533 1488 1392 1469 1547 1638 1574 1494 1394 1319 1140 978 914 707 544 323 296 119 50
0 0 0 0 0 0 0 0 0 0 0 0 0 70 264 626 501 267 328 372 719 693 822 1040 1466 1679 1364 1282 1254 877 875 910 1070 977 704 849 923 1154 1157 1202 1075 948 657 517 358 257 43 89 23
0 0 0 0 0 0 0 0 0 0 0 0 36 209 504 566 543 173 139 390 581 522 520 696 737 387 140 344 805 472 144 73 45 183 296 282 221 517 765 809 886 745 531 386 222 45 22 64 0
0 0 0 0 0 0 0 0 0 0 0 0 0 307 257 470 427 118 0 0 156 335 289 199 270 126 71 171 500 401 105 0 15 139 88 6 7 172 304 400 401 474 250 209 80 10 28 18 0
0 0 0 0 0 0 0 0 0 0 0 0 43 510 648 695 388 147 46 4 227 221 9 18 40 30 15 113 66 128 0 7 7 4 5 2 4 111 106 242 304 249 177 108 34 9 14 0 0
0 0 0 0 0 0 0 0 0 0 0 0 0 503 691 577 182 17 10 0 243 45 0 0 4 40 2 1 1 1 4 17 1 0 0 0 4 101 95 108 116 88 90 5 0 0 0 0 0
0 0 0 0 0 0 0 0 0 0 0 0 0 454 587 458 91 3 17 0 5 4 0 1 13 34 33 2 1 1 0 1 0 0 0 4 4 44 100 100 16 3 0 0 0 0 0 0 0
0 0 0 0 0 0 0 0 0 0 0 0 23 581 562 410 113 0 0 0 0 13 0 0 0 14 21 1 1 1 0 1 1 0 0 4 23 74 73 36 6 0 0 0 0 0 0 0 0
0 0 0 0 0 0 0 0 0 0 0 0 460 430 265 185 5 0 0 1 22 2 1 0 0 48 47 9 1 1 0 1 0 3 0 39 42 86 22 11 0 0 0 0 0 0 0 0 0
0 0 0 0 0 0 0 0 0 0 0 0 422 376 171 37 0 0 0 23 42 15 0 0 0 30 53 13 1 2 3 2 0 2 0 17 92 72 13 0 0 0 0 0 0 0 0 0 0
0 0 0 0 0 0 0 0 0 0 0 0 6 186 240 73 23 0 9 29 26 0 0 1 0 0 20 1 1 1 1 0 4 24 38 8 75 33 2 0 0 0 0 0 0 0 0 0 0
0 0 0 0 0 0 0 0 0 0 0 0 0 0 2 70 9 0 15 17 13 0 0 1 1 0 1 5 2 1 0 0 0 1 1 24 5 0 0 0 0 0 0 0 0 0 0 0 0
0 0 0 0 0 0 0 0 0 0 0 0 0 0 0 2 20 0 11 5 0 0 0 0 0 1 1 3 1 1 1 1 0 0 0 0 7 0 0 0 0 0 0 0 0 0 0 0 0
0 0 0 0 0 0 0 0 0 0 0 0 0 0 0 0 0 0 7 0 0 0 0 1 0 2 1 2 3 1 1 1 0 0 0 0 12 0 0 0 0 0 0 0 0 0 0 0 0
0 0 0 0 0 0 0 0 0 0 0 0 0 0 0 0 0 12 10 0 0 0 0 0 0 2 1 2 2 5 4 1 0 0 0 0 0 6 0 0 0 0 0 0 0 0 0 0 0
0 0 0 0 0 0 0 0 0 0 0 0 0 0 0 0 0 20 12 2 1 0 0 0 0 0 1 0 0 0 0 1 1 1 1 0 0 0 2 0 0 0 0 2 0 0 0 0 0
0 0 0 0 0 0 0 0 0 0 0 0 0 0 0 0 0 7 15 3 0 0 0 0 1 0 0 0 0 0 0 0 0 1 1 2 0 0 0 5 0 0 12 11 3 0 0 0 0
0 23 16 0 0 0 0 0 0 0 0 0 0 0 0 0 0 1 20 17 0 0 0 1 0 0 0 0 0 0 0 0 0 0 1 2 1 0 0 0 0 0 14 16 10 1 0 1 1
0 20 2 5 0 0 0 0 0 0 0 0 0 0 0 0 0 0 24 7 0 0 0 0 0 0 0 0 0 0 0 0 2 5 3 3 1 0 0 0 0 0 4 2 2 2 0 0 4
3 19 7 1 0 0 0 0 0 0 0 0 0 0 0 0 0 0 1 3 0 1 0 0 0 0 0 0 0 0 0 0 5 0 2 1 1 0 0 0 0 0 0 6 0 0 0 0 0
0 49 19 4 6 0 0 0 0 0 0 0 0 0 0 0 0 0 1 5 0 0 0 0 0 0 0 0 0 0 0 0 0 1 0 0 0 0 0 0 0 0 0 0 3 0 0 0 0
16 23 6 4 1 0 0 0 0 0 0 0 0 0 0 0 0 0 1 3 0 0 0 0 0 1 0 0 0 0 0 0 0 0 0 0 0 0 0 0 0 0 0 0 0 0 1 0 0
3 15 31 26 30 0 0 19 0 0 0 0 0 0 0 0 0 0 0 1 0 0 0 0 0 1 0 0 0 0 0 0 0 0 0 0 0 0 0 0 0 0 0 0 0 0 0 0 0
19 43 8 13 33 2 4 24 1 1 0 0 0 0 0 0 0 0 0 0 0 0 1 1 0 1 1 0 0 0 0 0 0 0 0 0 0 0 0 0 0 0 0 0 0 0 0 0 4
0 7 15 9 10 1 12 0 18 6 0 0 0 0 0 0 0 0 0 0 0 0 0 0 0 0 0 0 1 0 0 0 0 0 0 0 0 0 0 0 0 1 0 0 0 4 14 18 11

GFSSGP_con_sbcape_072.txt.gz
CAPE
0 0 0 0 0 0 0 0 0 0 0 0 0 0 0 0 0 0 8 826 815 924 1090 1256 1236 1147 1501 1543 1550 1711 1867 2031 2011 1918 1847 1818 1803 1673 1643 1654 1575 1561 1576 1153 1323 1269 1184 1105 971
0 0 0 0 0 0 0 0 0 0 0 0 0 0 0 0 606 505 683 706 993 989 1043 1217 1359 1264 1549 1603 1599 1715 1930 1850 2024 1972 1925 1855 1772 1723 1779 1666 1579 1553 1355 1291 1349 1277 1113 953 889
0 0 0 0 0 0 0 0 0 0 0 0 0 0 0 1 697 596 522 783 1009 1175 1089 1183 1448 1450 1599 1585 1648 1664 1879 1671 1845 1936 1950 1832 1770 1765 1816 1633 1578 1538 1550 1693 1362 1178 975 857 616
0 0 0 0 0 0 0 0 0 0 0 0 0 0 0 67 551 642 730 1130 1049 1211 1166 1169 1397 1492 1618 1614 1664 1696 1670 1588 1664 1699 1819 1887 1852 1827 1780 1554 1475 1437 1459 1404 1086 1094 780 571 437
0 0 0 0 0 0 0 0 0 0 0 0 0 0 0 142 536 635 1212 1098 909 1004 1155 1137 1330 1469 1661 1715 1744 1698 1616 1537 1524 1620 1672 1671 1758 1782 1630 1466 1422 1489 1517 1318 1157 919 630 405 291
0 0 0 0 0 0 0 0 0 0 0 0 0 0 0 305 719 566 982 1109 788 752 1029 1177 1220 1432 1594 1646 1591 1324 1548 1524 1491 1537 1532 1576 1376 1154 1357 1366 1248 1223 1287 979 909 697 496 290 154
0 0 0 0 0 0 0 0 0 0 0 0 0 0 18 526 403 514 668 735 729 607 865 1102 1115 1366 1456 1471 1025 721 858 1255 1393 907 947 932 1062 1119 840 1003 1096 1053 833 755 631 455 264 175 72
0 0 0 0 0 0 0 0 0 0 0 0 1 6 41 409 346 357 469 515 546 530 600 712 1117 1264 802 374 197 326 219 338 566 247 42 128 302 440 494 677 666 849 617 537 491 265 216 109 17
0 0 0 0 0 0 0 0 0 0 0 0 0 44 146 435 267 269 276 358 489 464 286 287 580 348 89 147 129 150 196 458 435 347 163 109 175 170 189 175 523 583 324 372 178 160 151 31 0
0 0 0 0 0 0 0 0 0 0 0 0 0 103 526 622 403 329 201 427 428 450 181 47 17 1 3 198 402 48 52 30 47 66 31 54 68 121 101 107 192 150 173 97 49 138 60 0 0
0 0 0 0 0 0 0 0 0 0 0 0 0 0 520 721 510 318 66 103 395 170 19 0 0 0 0 7 30 4 1 0 0 2 13 0 1 95 79 44 64 89 52 0 0 8 0 0 0
0 0 0 0 0 0 0 0 0 0 0 0 0 0 288 715 652 421 186 1 107 76 6 0 1 1 0 0 0 3 9 3 4 3 1 19 32 82 1 39 21 38 0 0 0 0 0 0 0
0 0 0 0 0 0 0 0 0 0 0 0 0 0 167 657 688 395 100 0 24 53 0 0 3 1 1 1 1 1 1 2 1 1 0 1 12 35 0 56 19 15 0 0 0 0 0 0 0
0 0 0 0 0 0 0 0 0 0 0 0 0 0 249 599 560 66 18 7 2 25 0 0 1 1 0 1 1 1 0 1 1 1 0 5 4 44 43 46 10 0 0 0 0 0 0 0 0
0 0 0 0 0 0 0 0 0 0 0 0 0 17 384 554 234 116 35 0 4 11 0 0 0 0 0 0 1 1 0 2 1 1 1 13 19 49 95 31 0 0 0 0 0 0 0 0 0
0 0 0 0 0 0 0 0 0 0 0 0 0 10 439 403 195 92 0 1 6 5 2 0 1 0 0 0 1 1 2 3 1 3 1 3 33 100 78 16 1 0 0 0 0 0 0 0 0
0 0 0 0 0 0 0 0 0 0 0 0 0 0 275 306 99 0 0 15 18 12 9 0 0 0 1 1 2 3 1 2 5 3 5 1 78 67 22 0 2 0 0 0 0 0 0 0 0
0 0 0 0 0 0 0 0 0 0 0 0 0 0 0 64 154 26 0 20 9 1 1 0 2 0 0 1 1 1 1 1 0 2 5 2 39 4 0 0 0 0 0 0 0 0 0 0 0
0 0 0 0 0 0 0 0 0 0 0 0 0 0 0 0 33 3 7 2 0 0 0 0 0 3 5 2 1 1 1 1 1 0 1 7 1 0 0 0 0 0 0 0 0 0 0 0 0
0 0 0 0 0 0 0 0 0 0 0 0 0 0 0 0 0 14 11 0 2 0 0 0 0 5 5 3 0 1 0 1 0 0 0 6 2 0 0 0 0 0 0 0 0 0 0 0 0
0 0 0 0 0 0 0 0 0 0 0 0 0 0 0 0 0 12 30 6 12 0 0 0 0 4 4 0 0 1 0 1 1 1 1 0 1 1 0 0 0 0 0 0 0 0 0 0 0
0 0 0 0 0 0 0 0 0 0 0 0 0 0 0 0 0 11 7 14 30 3 0 0 0 1 1 0 1 0 1 0 3 1 0 2 0 2 0 0 0 0 0 0 0 0 0 0 0
0 0 5 23 4 0 0 0 0 0 0 0 0 0 0 0 0 7 4 7 20 3 0 0 0 0 0 1 0 1 0 0 0 0 0 2 1 0 0 0 0 0 0 0 0 0 0 0 0
0 1 13 1 2 3 0 0 0 0 0 0 0 0 0 0 0 0 1 6 7 1 1 0 0 0 0 0 0 0 0 0 1 1 1 2 1 0 0 2 0 0 0 0 0 1 0 8 0
0 24 4 2 0 1 0 0 0 0 0 0 0 0 0 0 0 0 0 6 2 0 0 0 0 0 0 0 0 0 0 0 0 0 1 1 2 1 0 0 0 0 0 0 0 0 0 1 3
0 7 0 3 0 0 0 0 0 0 0 0 0 0 0 0 0 0 0 0 3 0 0 0 0 0 0 0 0 0 0 0 0 5 1 6 14 4 0 0 0 0 0 0 0 0 5 1 0
2 33 15 41 31 1 0 0 0 0 0 0 0 0 0 0 0 0 0 0 3 0 0 0 0 0 0 0 0 0 0 0 0 0 0 3 0 0 0 0 0 0 0 0 0 1 9 9 8
12 13 35 29 29 1 0 14 7 2 0 0 0 0 0 0 0 0 0 1 0 0 0 1 0 0 0 0 0 0 0 0 0 0 0 0 0 0 0 0 0 0 0 0 0 0 0 0 4
1 13 7 17 0 49 12 10 30 4 0 0 0 0 0 0 0 0 1 0 3 1 2 0 0 0 0 0 0 0 0 0 0 0 0 0 0 0 0 0 0 0 0 0 0 0 0 0 0
15 10 3 37 21 33 27 6 21 1 0 1 1 2 3 1 0 1 0 1 1 2 3 0 0 1 0 0 0 0 0 0 0 0 0 0 0 0 0 0 0 0 0 0 1 0 0 0 0

GFSSGP_con_sbcape_075.txt.gz
CAPE
0 0 0 0 0 0 0 0 0 0 0 0 0 0 0 0 0 0 114 1342 1275 1313 1300 1312 971 1277 1565 1620 1647 1885 2117 2102 2114 2058 1998 1980 1967 1790 1681 1755 1723 1722 1740 1770 1484 1468 1317 1053 1187
0 0 0 0 0 0 0 0 0 0 0 0 0 0 0 0 213 231 889 1265 1313 1462 1427 1524 1153 1320 1584 1627 1754 1745 2171 2321 2254 2184 2118 2073 1937 1838 1839 1824 1766 1805 1801 1610 1496 1502 1235 1210 1060
0 0 0 0 0 0 0 0 0 0 0 0 0 0 0 0 637 523 748 1472 1465 1464 1434 1465 1118 1049 1362 1633 1726 1712 1750 2061 2195 2156 2214 2137 2018 2023 2024 1826 1800 1780 1717 1835 1504 1363 1254 1080 862
0 0 0 0 0 0 0 0 0 0 0 0 0 0 0 42 746 822 848 1561 1703 1563 1448 1224 1237 1234 1275 1682 1696 1834 1486 1527 2013 2066 2133 2148 2148 2166 2001 1788 1832 1847 1868 1849 1643 1292 1080 818 637
0 0 0 0 0 0 0 0 0 0 0 0 0 0 0 227 703 918 1396 1522 1812 1468 1589 1606 1343 1335 1454 1698 1667 1743 1688 1264 1765 1963 1958 1999 2043 2042 1612 1538 1692 1524 1732 1699 1462 1185 892 641 466
0 0 0 0 0 0 0 0 0 0 0 0 0 0 0 442 1003 1216 1592 1739 1804 1748 1342 1424 1394 1489 1463 1524 1588 1467 1421 1380 1466 1743 1829 1832 1601 1540 1337 1175 1135 1398 1548 1366 1150 876 710 532 293
0 0 0 0 0 0 0 0 0 0 0 0 0 0 0 631 1028 1335 1759 1804 1788 1838 1908 1325 1322 1618 1454 1381 1413 1099 975 994 1336 1220 1010 641 511 595 677 884 1072 1241 1142 1089 872 662 483 376 168
0 0 0 0 0 0 0 0 0 0 0 0 0 0 0 232 934 1264 1451 1733 1766 1638 1814 1643 1196 1441 1810 1870 596 646 672 615 624 453 328 126 121 156 330 510 909 830 941 695 655 473 366 221 68
0 0 0 0 0 0 0 0 0 0 0 0 0 0 34 296 772 1073 1241 1380 1564 1413 1486 1170 1052 1516 1354 1820 682 558 594 633 394 451 127 93 183 98 102 159 301 620 428 391 424 349 204 82 14
0 0 0 0 0 0 0 0 0 0 0 0 0 0 354 676 963 1231 1268 1458 1489 1505 1358 1324 1216 929 921 1113 772 1081 938 993 764 273 66 313 169 93 43 62 207 237 197 192 256 202 50 30 31
0 0 0 0 0 0 0 0 0 0 0 0 0 0 0 573 918 1164 1077 1274 1479 1434 1234 1117 772 650 598 335 597 676 831 983 583 155 78 250 256 110 109 64 110 81 148 276 251 167 98 49 12
0 0 0 0 0 0 0 0 0 0 0 0 0 0 0 0 801 1138 1068 1013 1167 1112 1187 962 608 477 175 217 123 322 273 284 224 276 122 175 306 85 45 43 107 92 68 252 257 169 41 6 0
0 0 0 0 0 0 0 0 0 0 0 0 0 0 0 0 0 811 1120 837 924 1010 979 591 363 320 186 54 24 47 108 164 35 73 7 8 178 183 79 34 166 35 4 168 122 28 5 0 0
0 0 0 0 0 0 0 0 0 0 0 0 0 0 0 0 1 513 919 788 670 760 838 304 203 275 145 46 4 6 45 42 12 10 7 31 175 201 46 100 135 4 0 12 12 20 7 0 0
0 0 0 0 0 0 0 0 0 0 0 0 0 0 0 0 258 746 823 959 689 635 713 165 183 150 55 26 4 6 4 3 6 5 5 34 123 74 33 132 64 1 0 0 0 0 2 0 0
0 0 0 0 0 0 0 0 0 0 0 0 0 0 0 0 296 751 789 767 428 582 418 143 36 64 29 2 3 5 4 2 3 3 6 7 50 126 55 65 32 1 0 0 0 0 0 0 0
0 0 0 0 0 0 0 0 0 0 0 0 0 0 0 0 255 639 536 419 387 462 436 58 59 50 24 3 4 3 9 5 5 5 3 2 10 69 91 30 3 0 0 0 0 0 1 2 0
0 0 0 0 0 0 0 0 0 0 0 0 0 0 0 0 2 318 360 316 355 414 340 84 78 30 6 7 10 14 19 13 19 10 3 2 18 50 28 8 2 1 1 0 0 0 0 8 0
0 0 0 0 0 0 0 0 0 0 0 0 0 0 0 0 0 35 282 338 377 314 100 50 64 32 6 3 13 12 5 7 2 24 44 3 6 70 1 0 0 0 0 0 0 0 0 0 0
0 0 0 0 0 0 0 0 0 0 0 0 0 0 0 0 0 28 280 343 329 167 124 59 92 59 62 10 2 4 5 4 2 18 6 81 24 5 0 0 0 0 16 0 0 0 0 2 1
0 0 0 0 0 0 0 0 0 0 0 0 0 0 0 0 0 0 214 313 341 161 140 37 44 90 50 18 18 5 8 6 5 2 3 6 2 2 0 1 0 0 0 0 0 0 0 0 1
0 0 0 0 0 0 0 0 0 0 0 0 0 0 0 0 0 0 119 225 307 278 164 17 7 27 30 15 8 5 5 13 8 3 1 3 3 3 1 0 0 0 0 0 0 0 0 0 0
0 0 0 0 7 9 1 0 0 0 0 0 0 0 0 0 0 0 61 194 260 203 62 2 1 6 12 16 5 6 10 28 8 6 3 2 3 1 2 1 0 0 0 0 0 0 0 3 30
0 0 0 0 12 11 0 0 0 0 0 0 0 0 0 0 0 0 40 120 177 123 7 1 1 4 10 14 14 21 18 1 4 6 18 9 2 3 1 1 0 0 0 0 0 0 0 7 23
0 0 5 4 10 0 0 0 0 0 0 0 0 0 0 0 0 8 90 108 126 75 3 3 0 2 3 16 17 7 3 1 2 6 9 6 2 1 2 1 1 1 0 0 0 0 0 2 8
0 0 2 5 3 2 0 0 0 0 0 0 0 0 0 0 0 1 119 128 106 26 2 0 3 2 2 2 9 4 0 0 1 1 2 12 12 2 0 2 0 1 1 0 0 0 0 0 3
0 10 8 73 2 18 2 0 1 0 0 0 0 0 0 1 0 0 71 104 95 2 2 1 1 1 2 2 1 4 0 0 0 4 16 30 30 16 2 1 1 2 1 0 0 0 0 0 1
11 11 70 54 4 13 0 14 38 1 0 0 2 2 4 7 4 0 52 44 39 3 1 3 1 3 1 1 7 6 4 3 1 6 6 13 24 24 13 23 2 0 0 1 1 0 0 0 4
23 6 27 16 14 16 21 36 13 10 4 3 4 2 2 2 3 4 6 24 4 4 6 4 1 3 3 2 2 11 8 5 4 0 0 1 1 0 0 2 3 2 3 2 1 1 0 2 0
24 24 25 25 29 39 20 1 45 12 3 2 2 2 2 1 2 1 8 5 6 7 4 4 2 1 3 1 2 1 10 10 8 11 8 9 3 0 0 0 3 11 6 16 13 7 1 0 0

GFSSGP_con_sbcape_078.txt.gz
CAPE
0 0 0 0 0 0 0 0 0 0 0 0 0 0 0 0 0 0 540 1523 1439 1689 1947 1474 1143 1423 1719 1783 1826 2036 2184 2127 2100 2073 2049 2072 2089 2065 1847 1794 1960 1977 1976 1907 1582 1617 1552 1443 1348
0 0 0 0 0 0 0 0 0 0 0 0 0 0 0 0 0 120 1138 1392 1434 1535 2040 1940 1227 1438 1797 1891 1986 2119 2296 2318 2212 2106 2131 2173 2158 2015 1844 1826 1932 2000 2108 2182 1822 1579 1547 1367 1240
0 0 0 0 0 0 0 0 0 0 0 0 0 0 0 0 178 194 620 1532 1562 1647 1896 2001 1274 1359 1769 1900 1944 1961 2201 2232 2182 2194 2304 2301 2168 2050 1969 1862 1951 2093 2151 2227 1909 1594 1502 1265 1029
0 0 0 0 0 0 0 0 0 0 0 0 0 0 0 0 400 412 807 1536 1584 1762 1828 1387 1128 1180 1699 1826 1917 1835 1772 2026 2131 2133 2297 2324 2202 2115 1918 1865 1987 2177 2169 2050 1766 1437 1359 991 826
0 0 0 0 0 0 0 0 0 0 0 0 0 0 0 5 497 958 1222 1709 1785 2010 2046 1989 1021 1177 1415 1842 1941 1882 1709 1638 2063 2142 2173 2165 2105 1982 1612 1795 1860 1924 1956 1833 1607 1455 1086 856 674
0 0 0 0 0 0 0 0 0 0 0 0 0 0 0 160 541 1139 1595 1962 2244 2226 2260 2228 1458 1400 1425 1582 1688 1760 1565 1288 1728 2023 1848 1842 1583 1652 1371 1295 1623 1664 1301 1241 1372 1115 920 699 512
0 0 0 0 0 0 0 0 0 0 0 0 0 0 0 16 648 1486 1770 2055 2456 2398 2386 2390 1837 1764 1321 1338 1459 1412 1252 1145 1120 1486 1169 922 646 852 703 688 820 1107 1038 1191 1126 923 721 532 244
0 0 0 0 0 0 0 0 0 0 0 0 0 0 0 0 859 1754 1913 1939 2164 2604 2680 1947 1869 1918 2099 2000 1123 1159 938 872 930 748 512 353 351 335 260 221 429 554 972 1019 906 710 506 274 79
0 0 0 0 0 0 0 0 0 0 0 0 0 0 0 0 522 1750 2015 1945 2066 2394 2511 2283 1847 1879 2033 2196 1931 954 891 791 570 501 297 279 615 294 383 280 424 486 521 580 571 387 214 103 30
0 0 0 0 0 0 0 0 0 0 0 0 0 0 0 0 111 1388 1677 1811 2123 2250 2300 2341 1846 1749 1977 1889 2145 1991 1710 1243 1051 1047 881 1006 507 379 494 279 339 286 230 303 242 154 43 100 210
0 0 0 0 0 0 0 0 0 0 0 0 0 0 0 0 0 429 1467 1459 1857 1948 2008 2142 2325 2209 2126 1864 1756 2042 1636 1394 1371 1173 842 859 555 328 78 151 396 296 195 298 245 258 386 335 250
0 0 0 0 0 0 0 0 0 0 0 0 0 0 0 0 0 9 503 1439 1646 1885 1886 1913 1717 1674 1724 1612 1338 1547 1605 1524 1481 1240 938 518 442 234 145 124 207 144 244 183 471 685 423 331 182
0 0 0 0 0 0 0 0 0 0 0 0 0 0 0 0 0 0 9 503 1507 1796 1808 1853 1535 1226 1141 1054 1032 978 1438 983 888 1194 1102 574 382 424 328 334 233 98 137 117 590 350 291 250 225
0 0 0 0 0 0 0 0 0 0 0 0 0 0 0 0 0 0 0 268 1202 1669 1854 1884 1540 1325 1369 1147 752 781 753 917 608 722 966 888 534 333 184 146 243 109 38 89 345 246 286 237 209
0 0 0 0 0 0 0 0 0 0 0 0 0 0 0 0 0 0 0 433 1163 1591 1780 1812 1331 967 1132 1132 570 369 346 491 546 336 568 325 246 319 125 105 158 90 44 71 234 244 201 181 165
0 0 0 0 0 0 0 0 0 0 0 0 0 0 0 0 0 0 63 534 1147 1555 1695 1556 1022 1210 1211 730 332 120 98 259 397 239 273 179 189 258 200 115 78 18 1 47 185 172 161 154 162
0 0 0 0 0 0 0 0 0 0 0 0 0 0 0 0 0 0 177 754 1248 1577 1720 1560 1141 1025 848 488 196 53 36 97 57 55 54 136 199 188 217 135 117 6 0 1 145 173 192 150 153
0 0 0 0 0 0 0 0 0 0 0 0 0 0 0 0 0 0 168 843 1300 1516 1752 1470 840 851 652 440 127 31 137 55 16 8 15 17 28 92 75 161 18 20 1 1 125 194 173 180 165
0 0 0 0 0 0 0 0 0 0 0 0 0 0 0 0 0 0 113 848 1270 1569 1699 1396 810 710 492 293 61 44 170 81 34 26 21 23 12 4 96 35 3 9 0 0 30 172 175 150 150
0 0 0 0 0 0 0 0 0 0 0 0 0 0 0 0 0 0 161 892 1267 1508 1586 1278 926 512 392 264 13 25 16 50 107 75 59 85 185 90 4 3 4 1 1 0 97 169 154 148 134
0 0 0 0 0 0 0 0 0 0 0 0 0 0 0 0 0 0 128 827 1164 1443 1516 1187 931 849 518 441 184 317 38 44 52 41 38 53 221 25 7 4 4 2 2 2 75 150 166 110 124
0 0 0 0 0 0 0 0 0 0 0 0 0 0 0 0 0 0 5 533 994 1265 1394 1165 1009 576 645 441 207 158 28 11 43 23 5 32 20 4 1 1 2 2 13 8 54 90 163 147 112
0 0 0 0 0 8 0 0 0 0 0 0 0 0 0 0 0 1 6 162 693 1139 1305 1210 981 514 519 290 133 116 31 24 54 17 11 15 9 6 1 2 2 2 4 90 161 118 138 117 109
1 0 0 2 17 7 0 0 0 0 0 0 0 0 0 0 6 0 0 209 600 1045 1214 975 719 341 392 305 150 62 12 34 111 23 30 8 5 5 5 3 2 0 0 51 76 26 38 80 81
1 0 0 21 17 1 0 2 0 0 0 0 0 0 3 63 83 1 139 337 670 1039 633 395 560 189 149 179 81 70 66 66 35 64 14 21 10 5 2 2 4 0 0 2 13 22 20 32 64
0 0 5 14 16 15 17 1 12 0 0 0 0 0 140 348 307 0 282 397 612 861 107 127 313 41 50 80 51 69 39 13 17 50 91 78 35 43 46 2 1 2 0 0 0 0 2 14 25
47 43 29 37 9 25 0 2 14 7 6 1 7 0 0 267 526 64 137 535 632 708 26 93 76 5 3 5 17 88 56 41 28 26 8 4 19 29 21 3 5 3 0 0 0 0 0 0 0
79 52 27 62 34 21 20 26 39 23 18 6 5 5 3 2 237 92 269 449 594 218 30 99 48 4 3 3 10 6 30 35 18 12 16 29 31 41 54 22 2 2 2 4 1 0 0 0 0
68 88 34 26 55 47 42 108 16 4 5 8 9 5 6 5 4 136 206 229 131 20 33 24 28 13 10 7 3 6 4 22 15 17 8 8 15 33 9 37 34 10 4 3 4 3 0 0 0
45 44 69 63 41 69 78 57 29 7 0 1 2 3 5 4 5 2 0 10 10 23 14 24 16 20 14 7 3 5 11 26 34 25 12 17 28 28 36 31 26 10 2 2 3 2 3 3 0

GFSSGP_con_sbcape_081.txt.gz
CAPE
0 0 0 0 0 0 0 0 0 0 0 0 0 0 0 0 0 61 439 1463 1131 1419 1347 1351 1459 1740 1852 1904 1916 2076 2167 2080 2047 2078 2105 2121 2147 2172 2097 2014 2001 2039 2280 2129 1647 1529 1522 1441 1553
0 0 0 0 0 0 0 0 0 0 0 0 0 0 0 0 0 49 704 1222 1359 1362 1815 1474 1256 1678 1897 1935 1984 2076 2356 2307 2184 2150 2163 1897 2220 2206 1767 2053 2013 2158 2150 1894 1732 1742 1761 1564 1417
0 0 0 0 0 0 0 0 0 0 0 0 0 0 0 0 0 0 899 1163 854 874 1527 1981 1257 1528 1904 1996 2044 2112 2335 2297 2178 2113 2277 2253 2292 2262 1872 1718 2085 2069 2292 1951 1758 1915 1645 1378 1161
0 0 0 0 0 0 0 0 0 0 0 0 0 0 0 0 98 140 1011 1068 850 922 1199 1149 1160 1449 1831 2021 2067 2180 2196 2215 2130 2094 2255 2360 2304 2171 1514 1416 2057 2132 2281 2094 1962 1654 1478 1140 1002
0 0 0 0 0 0 0 0 0 0 0 0 0 0 0 0 0 342 823 1022 1289 1285 1631 2147 1136 1209 1720 2003 2092 1993 1927 2098 2125 2137 2157 2190 2190 2037 1315 1587 1861 1991 1818 1880 1627 1648 1243 1029 926
0 0 0 0 0 0 0 0 0 0 0 0 0 0 0 0 0 266 873 1418 1478 1726 1965 2345 1302 1268 1446 1807 1941 1860 1745 1720 1990 2039 1860 2010 1449 1396 966 1186 1323 1270 1252 1108 1448 1260 1076 929 813
0 0 0 0 0 0 0 0 0 0 0 0 0 0 0 0 33 376 1025 1648 1971 2083 2298 2625 2001 1618 1213 1401 1616 1755 1708 1514 1341 1815 1172 1258 727 642 500 721 748 889 699 1033 1100 1038 871 799 513
0 0 0 0 0 0 0 0 0 0 0 0 0 0 0 0 8 845 1430 1651 2052 2294 2479 2684 2402 2338 2191 2016 1382 1416 1483 1116 1126 1358 943 781 637 379 351 317 222 254 543 678 927 595 581 413 172
0 0 0 0 0 0 0 0 0 0 0 0 0 0 0 0 0 847 1416 1691 1695 2253 2556 2355 2310 2416 2398 2170 1890 1288 1257 1108 883 820 558 450 924 578 378 58 37 138 300 282 438 351 232 60 40
0 0 0 0 0 0 0 0 0 0 0 0 0 0 0 0 0 144 1295 1769 1586 2082 2412 2831 2149 2521 2400 1888 2453 2091 2015 1627 1412 956 1107 1128 1168 604 128 0 0 219 276 363 289 188 37 68 159
0 0 0 0 0 0 0 0 0 0 0 0 0 0 0 0 0 1 387 1349 1660 1964 2244 2408 2409 2475 2389 1978 2411 2428 2048 1744 1852 1403 1423 1207 1266 506 540 121 274 424 426 546 172 126 495 458 349
0 0 0 0 0 0 0 0 0 0 0 0 0 0 0 0 0 0 0 620 1300 1801 2053 2176 2480 2356 2180 1832 2403 2189 1934 1906 1705 1466 1289 1294 1160 715 481 520 502 485 574 308 211 291 670 297 246
0 0 0 0 0 0 0 0 0 0 0 0 0 0 0 0 0 0 0 13 932 1431 1941 2209 2252 2047 1913 1962 1952 2070 1956 1860 2001 1488 1341 1209 879 658 195 226 293 270 425 242 185 220 580 339 181
0 0 0 0 0 0 0 0 0 0 0 0 0 0 0 0 0 0 0 0 199 1168 1856 2168 2258 1876 1735 1624 1496 1576 1904 1724 1695 1435 1369 1094 1054 746 441 115 300 515 337 114 93 137 280 347 140
0 0 0 0 0 0 0 0 0 0 0 0 0 0 0 0 0 0 0 0 1 467 1660 2234 2350 2003 1891 1761 1355 1377 1327 1416 1118 1182 1240 984 934 859 663 506 400 232 122 63 69 100 266 253 132
0 0 0 0 0 0 0 0 0 0 0 0 0 0 0 0 0 0 0 0 8 395 1647 2227 2087 1887 1817 1570 1325 898 1117 1264 933 1006 1029 853 628 706 178 133 142 150 70 69 70 85 272 149 140
0 0 0 0 0 0 0 0 0 0 0 0 0 0 0 0 0 0 0 0 31 790 1717 2245 2047 1755 1767 1529 885 656 727 599 660 767 667 586 466 361 271 267 54 60 69 66 52 68 280 159 93
0 8 10 7 0 0 0 0 0 0 0 0 0 0 0 0 0 0 0 12 234 1065 1817 2221 1982 1856 1654 1234 676 737 379 259 261 201 216 432 426 163 334 109 16 36 28 45 38 75 188 146 119
0 0 0 0 0 0 0 0 0 0 0 0 0 0 0 0 0 0 0 10 518 1369 1949 2211 1947 1772 1463 1125 888 656 688 414 272 161 74 84 169 344 353 50 9 6 33 5 26 58 143 137 106
0 0 0 0 0 0 0 0 0 0 0 0 0 0 0 0 0 0 0 5 835 1484 1942 2125 1805 1610 1334 1041 717 494 460 575 421 290 187 48 61 186 33 47 4 13 15 2 1 57 92 153 113
0 0 0 4 15 1 0 0 0 0 0 0 0 0 0 0 0 0 0 15 982 1390 1970 2029 1751 1448 1184 937 658 432 174 295 164 298 372 143 269 242 192 14 7 18 1 0 1 32 78 104 106
0 7 11 12 14 15 36 38 1 0 0 0 0 0 0 0 0 0 0 37 890 1318 1787 1955 1747 1430 1183 946 611 454 346 107 312 223 251 200 146 255 142 13 4 6 1 1 0 47 76 89 116
13 27 22 18 0 0 0 11 0 11 0 0 0 0 0 0 0 0 0 0 661 1254 1739 1890 1693 1464 1181 1030 848 534 298 285 274 130 149 48 30 6 2 1 3 3 2 1 0 43 80 114 120
7 13 18 8 1 2 2 27 8 47 15 3 9 8 2 0 0 0 0 0 407 1095 1856 1790 1688 1463 1239 1187 791 471 300 266 325 158 126 18 15 6 2 1 3 5 5 2 0 43 107 141 162
10 40 10 21 47 20 43 29 29 28 13 6 13 17 47 39 37 9 0 20 178 974 1644 1725 1641 1198 1256 1047 700 383 287 323 95 210 107 19 3 5 3 1 2 1 2 18 26 58 103 138 148
5 8 15 10 20 24 1 62 142 81 20 32 68 75 51 140 677 408 66 110 460 984 1508 1579 1519 990 1123 1016 679 347 280 270 292 237 93 49 14 7 3 3 2 1 1 0 24 98 128 123 171
41 24 7 22 21 21 0 0 174 92 35 45 58 56 15 9 17 623 205 556 723 1219 1288 1166 1171 507 793 846 595 261 236 90 102 90 121 182 116 44 14 3 1 1 0 0 0 3 39 105 101
20 73 55 76 43 50 26 25 164 32 23 16 12 11 7 3 0 6 430 721 886 1158 578 416 643 277 381 623 424 156 144 53 108 100 37 10 17 28 60 30 4 1 0 0 0 0 0 0 4
117 106 78 87 103 50 71 146 4 6 7 4 0 2 3 3 3 4 45 786 853 328 183 303 199 216 159 113 127 28 48 46 66 56 33 16 44 42 47 67 35 5 3 1 0 0 0 0 0
61 104 61 78 41 88 121 56 5 3 0 0 1 0 1 1 2 3 4 0 63 70 89 91 176 45 8 24 41 27 16 12 27 22 24 29 28 26 37 35 46 16 6 3 4 2 0 0 0

GFSSGP_con_sbcape_084.txt.gz
CAPE
0 0 0 0 0 0 0 0 0 0 0 0 0 0 0 0 8 146 1183 1189 1984 1575 1521 1477 1582 1841 1927 1991 2116 2020 2000 2009 2061 2113 2127 2163 2192 2166 2153 2031 2029 2214 2259 2150 1731 1734 1381 1373 1612
0 0 0 0 0 0 0 0 0 0 0 0 0 0 0 0 0 342 991 1214 1473 1212 1385 1539 1547 1746 1925 1937 1992 2172 2228 2192 2146 2185 2207 2188 2277 2184 2126 2034 2004 2252 2087 1877 1759 1587 1667 1674 1474
0 0 0 0 0 0 0 0 0 0 0 0 0 0 0 0 0 235 1274 1494 1347 1556 1261 1647 1483 1618 1883 1934 1965 2044 2283 2216 2150 2177 2277 2191 2095 2063 2050 1794 2023 2036 2184 1952 1771 1740 1772 1461 1204
0 0 0 0 0 0 0 0 0 0 0 0 0 0 0 0 121 349 1120 1119 1088 1427 1547 814 1215 1489 1845 1956 2010 2072 2202 2225 2108 2099 2101 2329 2247 2032 1946 1671 1802 2099 2115 1767 1895 1856 1536 1157 1027
0 0 0 0 0 0 0 0 0 0 0 0 0 0 0 0 0 741 1192 991 1591 2102 2116 1397 1132 1457 1797 2015 2050 2073 2123 2184 2140 2101 2196 2203 2066 1836 1476 1644 1734 1964 1672 1832 1708 1717 1255 1046 972
0 0 0 0 0 0 0 0 0 0 0 0 0 0 0 0 1 373 1204 1771 2507 2618 2788 1761 1340 1475 1630 1817 1839 1764 1917 2105 2122 2082 2039 2179 2017 1500 1105 1210 1296 1238 1068 1035 1097 1123 1126 1006 934
0 0 0 0 0 0 0 0 0 0 0 0 0 0 0 0 27 547 1361 2190 2748 3021 3155 2319 1677 1415 1355 1500 1600 1649 1684 1587 1907 1969 1887 1790 1383 783 831 611 372 205 368 639 759 997 937 942 775
0 0 0 0 0 0 0 0 0 0 0 0 0 0 0 0 128 728 1491 1765 2257 3150 3319 2995 2340 1874 1693 1499 1362 1521 1669 1529 1572 1433 1358 1329 892 785 547 402 35 162 232 315 626 641 820 559 462
0 0 0 0 0 0 0 0 0 0 0 0 0 0 0 0 0 730 1271 1700 2214 2699 2959 3217 2804 2522 2439 2219 1555 1355 1463 1392 1151 1152 855 679 990 616 519 233 224 255 117 131 372 362 235 189 144
0 0 0 0 0 0 0 0 0 0 0 0 0 0 0 0 0 2 1119 1442 2200 2586 2670 2776 2531 2843 2751 1956 2026 1841 1760 1569 1437 1299 1081 1336 1147 691 377 28 127 152 90 135 201 166 71 63 101
0 0 0 0 0 0 0 0 0 0 0 0 0 0 0 0 0 0 16 906 1665 2123 2419 2901 2407 2905 2784 2150 2510 2307 2048 1816 1606 1557 1358 1380 1203 435 0 0 4 67 162 178 184 81 115 240 154
0 0 0 0 0 0 0 0 0 0 0 0 0 0 0 0 0 0 0 46 1207 1695 2221 3051 2394 2486 2532 2150 2169 2217 2282 2096 1741 1637 1297 1242 974 229 60 0 10 111 134 209 177 127 239 310 247
0 0 0 0 0 0 0 0 0 0 0 0 0 0 0 0 0 0 0 0 37 1245 1972 2391 2569 2524 2566 2540 2106 2349 2335 1787 1731 1695 1413 1147 1019 611 629 334 128 163 192 213 171 161 194 176 153
0 0 0 0 0 0 0 0 0 0 0 0 0 0 0 0 0 0 0 0 2 384 1745 2416 2568 2529 2371 2093 2091 2100 2110 2150 1898 1693 1373 1103 924 687 539 469 325 180 207 200 118 123 122 89 77
0 0 0 0 0 0 0 0 0 0 0 0 0 0 0 0 0 0 0 0 0 145 1147 2510 2589 2338 1981 1758 1813 1677 1866 1853 1762 1524 1310 1147 884 603 277 176 222 120 188 158 52 70 74 85 94
0 0 0 0 0 0 0 0 0 0 0 0 0 0 0 0 0 0 0 0 0 1 603 2435 2350 2053 1956 1711 1508 1302 1197 1563 1312 1359 1216 1082 776 589 352 139 164 253 103 33 31 39 75 83 69
0 0 0 0 0 0 0 0 0 0 0 0 0 0 0 0 0 0 0 0 0 0 572 2364 2370 2107 2143 1865 1342 1040 932 1362 1154 1028 1103 902 684 447 369 248 219 52 39 28 41 45 68 62 49
0 0 0 0 0 0 0 0 0 0 0 0 0 0 0 0 0 0 0 0 0 2 1446 2542 2266 1919 1943 1575 936 752 793 937 918 683 541 595 521 373 344 117 61 21 40 35 43 29 15 42 9
0 0 0 0 0 0 0 0 0 0 0 0 0 0 0 0 0 0 0 0 6 589 1879 2573 2124 1786 1802 1045 811 741 527 547 398 312 195 366 341 321 146 69 27 24 31 39 28 14 37 43 18
0 0 0 0 0 0 2 7 0 0 2 0 0 0 0 0 0 0 0 2 350 1412 1824 2560 2098 1943 1777 1196 890 850 624 541 262 199 136 213 208 229 112 44 5 8 18 22 10 18 35 18 41
0 0 0 0 0 0 10 3 5 3 0 1 0 0 0 0 0 0 0 0 646 1556 2007 2416 1998 1971 1656 1247 1007 750 644 525 219 189 248 138 83 72 138 75 2 2 4 6 13 8 21 39 36
0 0 0 30 22 13 14 24 0 0 0 3 0 0 0 0 0 0 0 0 744 1242 2171 2282 2041 1819 1651 1304 936 636 400 395 215 108 232 185 167 131 123 7 1 1 13 4 4 7 22 33 22
0 0 17 18 31 34 5 5 0 0 2 0 3 9 0 0 0 1 4 13 813 1183 2153 2274 1992 1682 1461 1301 924 645 422 326 174 197 201 90 25 120 120 0 3 2 1 0 2 6 11 24 20
1 0 0 15 30 35 0 3 0 1 46 0 57 63 168 24 0 0 2 2 410 1044 2032 2257 1916 1584 1386 1300 926 802 502 291 201 129 52 52 2 1 6 4 1 4 3 1 0 9 20 29 31
0 1 2 7 28 0 5 30 1 59 29 9 55 131 112 48 60 271 307 20 71 1140 1892 2211 1911 1593 1464 1278 1223 805 735 349 274 129 78 10 2 3 5 2 2 2 1 1 0 8 18 27 25
0 0 28 5 17 3 2 8 34 53 128 4 4 0 0 0 0 1 21 2 207 1387 2040 1967 1832 1541 1431 1378 1088 767 497 232 229 206 65 5 2 1 3 1 1 1 2 1 3 10 16 10 11
6 5 2 36 2 2 0 2 45 0 0 0 0 0 0 0 0 0 0 0 393 1404 1938 1839 1722 1346 1378 1261 936 616 377 218 241 140 56 31 1 5 2 1 0 0 0 8 3 2 11 14 20
12 22 80 34 12 2 3 44 92 4 5 1 0 0 0 0 0 0 1 1 1230 1586 1405 1198 1208 967 1031 1018 859 490 275 126 126 116 169 69 23 1 2 3 0 0 0 0 0 0 6 24 29
86 106 26 64 46 23 33 38 12 3 0 0 0 0 1 0 0 0 3 3 6 596 666 428 437 436 540 575 360 281 112 78 161 163 74 13 40 28 14 5 2 1 0 0 0 0 0 0 1
127 95 151 80 1 59 63 53 8 7 10 0 0 0 1 0 0 0 1 3 6 4 14 164 160 193 148 235 122 95 83 86 91 45 18 19 16 16 13 21 8 1 1 0 0 0 0 0 0

GFSSGP_con_sbcape_087.txt.gz
CAPE
0 0 0 0 0 0 0 0 0 0 0 0 0 0 0 0 49 313 1148 1354 1320 1210 1318 1416 1656 1905 2000 1932 1816 1781 1931 2050 2106 2126 2142 2149 2128 2137 2048 1973 2089 2337 2475 2141 1808 1621 1619 1613 1503
0 0 0 0 0 0 0 0 0 0 0 0 0 0 0 0 168 924 1293 1495 1314 1340 1389 1479 1577 1762 1961 2014 1923 1903 2092 2147 2198 2194 2265 2252 2228 2208 2066 1916 2029 2362 2466 2311 1745 1604 1653 1560 1438
0 0 0 0 0 0 0 0 0 0 0 0 0 0 0 0 482 844 858 1192 1219 1113 1387 1570 1622 1718 1810 1868 2028 1985 2093 2108 2129 2190 2373 2358 2290 2106 1983 1916 2075 2351 2391 2175 1816 1854 1778 1459 1187
0 0 0 0 0 0 0 0 0 0 0 0 0 0 0 0 336 999 1010 1117 1103 987 1542 1374 1480 1627 1795 1858 1888 2057 2103 2011 2024 2081 2288 2389 2261 2175 1967 1762 1923 2409 2297 2075 1948 2148 1611 1128 1020
0 0 0 0 0 0 0 0 0 0 0 0 0 0 0 18 839 907 792 979 1384 1404 1165 1245 1391 1635 1809 1921 1947 1956 2094 2087 2008 2090 2108 2271 2161 2034 1840 1699 1602 2073 2014 1462 1792 1785 1205 1057 1006
0 0 0 0 0 0 0 0 0 0 0 0 0 0 0 0 558 607 526 1479 1800 1597 1172 1165 1403 1615 1757 1831 1800 1864 2042 2117 2085 2111 2141 2228 2045 1730 1407 1466 1224 1076 838 807 1104 1075 1067 999 991
0 0 0 0 0 0 0 0 0 0 0 0 0 0 0 98 256 489 993 1616 2301 2024 1251 1135 1338 1517 1586 1624 1578 1664 1958 2112 2113 2098 2086 2059 1843 1384 1034 872 596 282 299 268 418 877 929 958 742
0 0 0 0 0 0 0 0 0 0 0 0 0 0 0 53 112 681 1214 1488 2366 2202 1533 1120 998 1095 1173 1207 1470 1495 1551 1468 1546 1731 1734 1935 1466 1027 753 490 470 483 181 110 164 519 718 782 414
0 0 0 0 0 0 0 0 0 0 0 0 0 0 0 11 125 279 699 1348 2081 2432 2097 1516 1253 1166 1050 1043 1229 1463 1561 1450 1408 1412 1311 1098 843 667 639 45 164 239 6 137 204 215 334 223 197
0 0 0 0 0 0 0 0 0 0 0 0 0 0 0 0 9 364 455 588 1913 2147 2489 1973 1787 1661 1481 1653 1157 1014 1308 1136 973 1004 603 734 494 338 305 63 240 178 133 166 143 155 113 66 22
0 0 0 0 0 0 0 0 0 0 0 0 0 0 0 0 0 0 272 490 1893 2023 2545 2021 1870 2092 1999 1540 1055 1099 1081 1005 913 806 572 807 515 173 215 166 189 71 109 55 88 102 81 65 37
0 0 0 0 0 0 0 0 0 0 0 0 0 0 0 0 0 0 0 0 139 2086 2445 2115 1727 2214 2026 1545 1526 1470 1366 1108 964 844 764 803 386 123 3 0 1 16 47 98 52 51 96 73 56
0 0 0 0 0 0 0 0 0 0 0 0 0 0 0 0 0 0 0 0 0 1217 2354 2257 1840 2065 1859 1543 1531 1418 1578 1389 1158 932 772 765 391 305 15 0 0 26 62 88 80 57 139 164 94
0 0 0 0 0 0 0 0 0 0 0 0 0 0 0 0 0 0 0 0 0 0 1936 2319 2050 1985 1843 1592 1306 1242 1316 1114 1173 925 834 783 606 283 108 14 2 24 69 159 107 85 94 120 123
0 0 0 0 0 0 0 0 0 0 0 0 0 0 0 0 0 0 0 0 0 0 477 2331 1970 1972 1839 1415 1374 1178 1139 1102 1004 906 814 796 718 532 286 199 79 35 93 86 59 21 26 33 56
0 0 0 0 0 0 0 0 0 0 0 0 0 0 0 0 0 0 0 0 0 0 254 2271 2126 1848 1401 1329 1101 1067 920 1016 859 856 749 713 692 607 230 174 61 33 34 51 49 35 33 30 38
0 0 0 0 0 0 0 0 0 0 0 0 0 0 0 0 0 0 0 0 0 0 230 2117 1835 1541 1216 1110 934 867 861 901 681 765 832 725 624 444 199 34 34 50 22 7 4 3 20 41 55
0 0 0 0 0 0 0 0 0 0 0 0 0 0 0 0 0 0 0 0 0 0 675 1948 1675 1457 949 992 553 370 585 826 530 556 725 832 482 324 32 9 9 0 1 0 0 2 10 46 19
0 0 0 0 0 0 0 0 0 0 0 0 0 0 0 0 0 0 0 0 0 0 1643 1872 1649 1499 1003 720 507 337 374 666 475 377 448 450 276 159 0 11 22 0 0 8 3 27 25 39 4
0 0 0 0 0 0 0 0 0 0 0 0 0 0 0 0 0 0 0 0 0 20 1893 1914 1736 1481 771 603 417 234 245 426 273 220 287 375 169 56 8 22 3 2 3 16 19 7 17 17 13
0 0 0 0 0 0 0 0 0 0 0 0 0 0 0 0 0 0 0 0 0 907 1930 1677 1563 1410 733 437 363 266 229 280 223 183 125 197 199 72 34 1 1 1 3 4 14 8 8 21 29
0 0 0 0 0 0 1 0 0 0 0 0 26 22 0 0 0 0 0 0 270 1926 1945 1579 1450 1375 665 484 412 443 469 406 251 183 161 46 43 97 55 41 1 1 4 13 5 0 0 9 13
0 0 0 0 0 0 0 0 0 0 0 0 80 81 1 0 0 0 0 0 185 1564 1935 1569 1487 1339 831 549 379 378 346 242 86 99 125 53 8 11 1 0 4 7 11 14 25 2 4 5 1
0 0 0 0 0 0 0 3 0 0 3 74 77 0 0 0 0 0 0 0 4 1329 1804 1554 1435 1357 852 526 440 419 296 245 138 79 51 6 0 1 1 0 1 15 14 11 18 4 0 0 5
0 0 0 0 0 0 2 5 42 55 71 18 0 0 0 0 0 0 0 0 0 0 1518 1432 1295 1160 898 542 510 420 288 117 88 65 61 6 0 0 0 0 1 1 5 2 7 2 3 0 0
0 0 0 0 0 0 0 1 43 1 10 0 0 0 0 0 0 0 0 0 0 0 1236 1407 1096 1003 861 642 561 529 249 101 100 95 46 1 0 0 0 1 2 1 0 1 0 3 4 5 3
0 0 0 3 0 0 0 0 82 3 13 5 0 0 0 0 0 0 0 0 0 304 1152 1151 1036 980 896 801 755 439 106 106 68 48 21 0 0 0 0 3 1 1 1 1 0 1 1 1 2
0 8 21 8 32 9 2 67 54 2 0 0 0 0 0 0 0 0 0 1 4 1 20 183 760 861 859 812 519 238 96 101 99 111 73 0 0 1 1 1 0 1 0 1 1 0 0 6 1
21 48 58 79 40 16 7 12 1 0 0 0 0 0 0 0 0 0 0 1 4 4 2 0 11 171 711 541 287 112 102 105 133 112 82 42 1 0 2 1 0 0 0 1 4 2 2 1 0
0 76 60 17 11 21 40 28 0 0 0 0 0 0 0 0 1 0 0 1 1 5 3 5 3 39 75 85 51 28 45 122 117 74 7 16 11 4 1 2 0 1 0 1 0 1 0 0 0

GFSSGP_con_sbcape_090.txt.gz
CAPE
0 0 0 0 0 0 0 0 0 0 0 0 0 0 0 0 0 1 1031 1242 1081 1179 1446 1660 1696 1798 1867 1890 1838 1899 2025 2108 2099 2057 2005 2060 2145 2117 2124 2193 2290 2342 2455 2094 1799 1774 1868 1696 1639
0 0 0 0 0 0 0 0 0 0 0 0 0 0 0 0 423 1414 1289 1325 1109 1263 1443 1627 1768 1883 1931 1876 1885 1991 2168 2157 2232 2220 2174 2164 2229 2166 2087 2125 2233 2428 2487 2201 1944 1909 1889 1653 1495
0 0 0 0 0 0 0 0 0 0 0 0 0 0 0 0 909 1329 1243 1235 1370 1334 1456 1553 1769 1972 1970 1905 1897 1977 2120 2153 2181 2241 2341 2333 2350 2322 2172 2023 1988 2495 2536 2295 1984 1899 1663 1442 1198
0 0 0 0 0 0 0 0 0 0 0 0 0 0 0 0 840 1045 1340 1227 1106 1362 1430 1459 1604 1799 2004 2018 1959 1994 2025 1959 1978 2111 2390 2464 2469 2435 2152 1929 2051 2528 2376 2296 2197 2051 1243 1077 968
0 0 0 0 0 0 0 0 0 0 0 0 0 0 0 122 726 1336 1133 916 900 1221 1266 1354 1542 1685 1872 2058 2103 2029 1965 1910 1937 2057 2227 2375 2446 2247 2106 1807 1898 2200 1751 1565 1612 1377 923 1009 864
0 0 0 0 0 0 0 0 0 0 0 0 0 0 0 292 1053 1071 987 747 862 1192 1154 1214 1434 1625 1829 1909 1863 1951 1998 1908 1961 1991 2069 2267 2221 2119 1957 1731 1520 1444 996 878 1030 926 816 828 856
0 0 0 0 0 0 0 0 0 0 0 0 0 0 0 0 401 445 1122 1273 1136 1094 1078 1150 1409 1622 1636 1697 1672 1744 1938 1989 1973 1998 2012 2086 2040 1852 1671 1534 1213 953 782 684 701 571 618 523 631
0 0 0 0 0 0 0 0 0 0 0 0 0 0 0 83 237 931 1495 1474 1269 1063 1072 1038 1108 1282 1246 1276 1498 1690 1888 1976 1979 1956 1903 1886 1915 1688 1165 994 919 724 684 596 533 333 331 385 306
0 0 0 0 0 0 0 0 0 0 0 0 0 0 0 27 605 968 1503 1797 1637 1344 1125 992 978 974 980 987 1269 1546 1658 1746 1771 1623 1564 1492 1252 907 804 420 692 356 334 414 348 177 115 127 206
0 0 0 0 0 0 0 0 0 0 0 0 0 0 0 8 556 903 1279 1781 1882 1708 1279 1051 916 944 919 1261 1163 1170 1382 1177 1227 1207 1101 887 635 385 254 128 449 62 63 179 255 186 123 145 105
0 0 0 0 0 0 0 0 0 0 0 0 0 0 0 0 1 251 691 1585 1796 2060 1809 1453 1160 1094 1115 1356 804 783 1110 902 791 813 526 370 251 380 83 21 198 59 165 137 147 88 96 105 33
0 0 0 0 0 0 0 0 0 0 0 0 0 0 0 0 0 0 16 213 1672 2121 2232 1925 1712 1580 1494 1382 894 821 839 764 659 457 470 463 251 166 138 118 77 117 66 57 9 14 31 88 57
0 0 0 0 0 0 0 0 0 0 0 0 0 0 0 0 0 0 0 0 793 1833 2411 2103 2102 2028 1825 1473 1121 1046 993 860 722 403 666 467 127 22 66 3 79 150 103 103 2 2 89 114 76
0 0 0 0 0 0 0 0 0 0 0 0 0 0 0 0 0 0 0 0 0 1732 2258 2208 1875 2246 1899 1637 1377 1228 1186 1047 693 470 630 409 235 45 26 0 85 138 97 71 16 0 41 146 94
0 0 0 0 0 0 0 0 0 0 0 0 0 0 0 0 0 0 0 0 0 0 1987 2304 1978 2032 1893 1532 1384 1032 919 944 880 599 517 489 138 80 22 1 12 93 76 68 66 17 36 28 77
0 0 0 0 0 0 0 0 0 0 0 0 0 0 0 0 0 0 0 0 0 0 1171 2430 2262 2002 1738 1506 1263 908 782 789 803 584 531 480 293 219 130 76 2 28 207 80 28 4 6 0 29
0 0 0 0 0 0 0 0 0 0 0 0 0 0 0 0 0 0 0 0 0 0 4 2290 2242 2063 1739 1232 1145 810 713 553 402 483 520 427 428 323 284 207 141 40 71 72 9 10 14 16 23
0 0 0 0 0 0 0 0 0 0 0 0 0 0 0 0 0 0 0 0 0 0 85 2124 2140 2016 1688 1162 794 554 579 477 486 272 515 358 371 237 239 199 62 143 106 5 2 0 0 9 30
0 0 0 0 0 0 0 0 0 0 0 0 0 0 0 0 0 0 0 0 0 0 608 1761 2030 1690 1434 1073 689 529 731 511 277 220 230 342 335 268 150 6 25 158 11 0 0 0 0 9 41
0 0 0 0 0 0 0 0 0 0 0 0 0 0 0 0 0 0 0 0 0 0 386 1828 1829 1390 1490 1109 827 554 272 383 452 144 183 199 172 86 63 41 29 29 0 2 2 0 0 6 29
0 0 0 0 0 0 0 0 0 0 0 0 0 1 2 0 0 0 0 0 0 0 1295 1710 1658 1375 1252 801 92 69 23 72 164 246 163 158 113 30 36 62 50 1 1 2 2 0 0 19 1
0 0 0 0 0 0 0 0 0 0 0 0 0 29 0 0 0 0 0 0 0 0 1045 1674 1674 1413 818 320 276 213 240 196 254 334 124 113 127 21 11 34 13 0 2 1 1 1 4 27 1
0 0 0 0 0 0 0 0 0 0 23 4 22 2 0 0 0 0 0 0 0 455 1417 1672 1640 1076 560 559 247 171 144 117 158 174 149 48 2 34 27 19 6 1 0 0 4 6 0 4 1
0 0 0 0 0 0 0 0 0 0 4 0 0 5 3 0 0 0 0 0 0 0 1561 1591 1496 938 598 446 239 208 184 134 182 191 171 82 36 22 14 38 27 1 0 6 17 16 1 5 0
0 0 0 0 0 0 0 0 0 0 0 0 0 16 1 0 0 0 0 0 0 0 0 1437 1263 757 587 329 228 199 243 188 194 117 98 90 43 32 42 8 11 10 2 5 34 29 17 5 0
0 0 0 0 0 0 0 0 2 2 0 0 9 0 0 0 0 0 2 0 1 1 18 1383 1085 625 341 208 172 185 165 156 132 115 123 21 0 1 0 1 1 3 0 6 24 45 24 2 0
0 0 0 0 0 0 0 0 10 6 1 0 14 0 0 0 0 0 1 1 1 2 0 672 995 645 298 249 196 159 152 68 96 57 49 10 0 0 0 0 0 1 0 1 4 9 1 1 1
0 0 1 1 3 2 1 2 75 14 8 6 0 0 0 0 0 0 0 2 5 5 5 1 196 511 338 266 303 207 179 74 93 39 25 7 0 0 0 1 2 2 1 0 1 4 1 1 1
0 0 0 0 5 16 0 0 17 7 0 5 0 0 0 0 1 0 1 3 9 7 4 5 1 209 262 232 154 111 130 141 121 69 35 6 0 0 0 1 1 1 1 1 1 1 1 1 1
0 10 85 56 1 2 9 0 33 0 0 0 0 0 0 0 1 1 1 1 6 3 7 4 3 2 2 17 28 61 133 132 128 116 68 2 0 0 1 1 1 1 1 1 1 1 1 0 1

GFSSGP_con_sbcape_093.txt.gz
CAPE
0 0 0 0 0 0 0 0 0 0 0 0 0 0 0 0 0 0 772 933 1026 1198 1464 1446 1637 1854 1881 1846 1782 1798 1917 1947 2009 2090 2114 2120 2141 2195 2218 2196 2150 2402 2590 2144 1884 1745 1697 1707 1758
0 0 0 0 0 0 0 0 0 0 0 0 0 0 0 0 508 1171 1328 1185 1154 1353 1535 1538 1648 1865 1946 1873 1895 1940 2109 2062 2031 2089 2173 2204 2205 2228 2237 2207 2255 2470 2514 1944 1894 1951 1851 1733 1463
0 0 0 0 0 0 0 0 0 0 0 0 0 0 0 0 656 1209 1035 1127 1161 1418 1582 1658 1722 1830 1937 1935 1991 2028 2117 2069 2042 2069 2237 2324 2316 2312 2319 2114 2139 2578 2502 2309 1590 1697 1448 1377 1192
0 0 0 0 0 0 0 0 0 0 0 0 0 0 0 0 1023 975 1238 1276 1221 1398 1532 1646 1707 1784 1877 1955 2043 2094 2038 1958 1954 2064 2239 2396 2446 2388 2277 2115 2192 2666 2563 2251 2104 1971 1332 1090 1056
0 0 0 0 0 0 0 0 0 0 0 0 0 0 0 0 453 1257 1241 1275 1223 1274 1317 1569 1723 1840 1925 2052 2084 2067 1960 1861 1933 2100 2214 2339 2463 2407 2112 1872 2306 2384 2054 1792 1400 1201 1140 1011 1053
0 0 0 0 0 0 0 0 0 0 0 0 0 0 0 62 1212 1173 1072 967 1087 1194 1303 1451 1675 1827 1975 2067 2013 1961 1894 1847 1881 2042 2146 2332 2296 2219 1975 1861 1962 1790 1428 1156 1226 1083 956 987 931
0 0 0 0 0 0 0 0 0 0 0 0 0 0 0 227 882 916 585 386 885 1037 1215 1344 1596 1734 1758 1865 1926 1927 1891 1884 1872 1928 2056 2170 2078 1967 1916 1839 1748 1632 1085 995 953 890 844 842 732
0 0 0 0 0 0 0 0 0 0 0 0 0 0 0 0 137 1080 1006 761 685 683 918 1157 1374 1496 1432 1473 1590 1726 1943 1903 1870 1889 1915 1983 1877 1814 1749 1660 1546 1308 1063 957 930 740 597 507 361
0 0 0 0 0 0 0 0 0 0 0 0 0 0 0 57 972 1434 1390 1190 911 755 692 887 1049 1100 1098 1186 1349 1624 1873 1926 1894 1881 1819 1621 1508 1447 1355 964 1087 1035 741 717 722 425 370 180 112
0 0 0 0 0 0 0 0 0 0 0 0 0 0 0 0 38 1228 1561 1469 1265 1034 751 709 817 801 538 1114 1191 1275 1598 1663 1523 1461 1333 1186 962 778 536 583 746 628 462 537 264 136 19 82 58
0 0 0 0 0 0 0 0 0 0 0 0 0 0 0 0 0 0 120 1475 1599 1450 1052 761 703 842 940 1190 1021 1155 1387 985 1024 1031 857 671 431 605 74 142 91 13 64 89 122 59 30 6 72
0 0 0 0 0 0 0 0 0 0 0 0 0 0 0 0 0 0 0 0 1153 1747 1451 1070 826 871 997 1033 954 944 1086 978 790 667 427 586 663 447 117 37 54 0 16 10 56 112 112 39 23
0 0 0 0 0 0 0 0 0 0 0 0 0 0 0 0 0 0 0 0 10 975 1960 1470 1003 958 1046 1024 829 787 994 1011 778 362 466 641 359 234 212 114 20 11 0 0 1 52 93 24 53
0 0 0 0 0 0 0 0 0 0 0 0 0 0 0 0 0 0 0 0 0 106 1781 1905 1517 1325 1372 1383 937 808 809 805 605 384 680 509 199 48 57 0 9 0 0 8 0 1 26 18 59
0 0 0 0 0 0 0 0 0 0 0 0 0 0 0 0 0 0 0 0 0 0 1308 2067 1975 1895 1769 1678 1255 947 911 760 663 497 607 339 188 16 0 0 14 2 18 21 0 0 0 68 55
0 0 0 0 0 0 0 0 0 0 0 0 0 0 0 0 0 0 0 0 0 0 508 2152 2186 2186 1976 1752 1520 1206 1000 895 800 537 625 395 132 16 0 0 20 9 17 52 17 0 1 29 112
0 0 0 0 0 0 0 0 0 0 0 0 0 0 0 0 0 0 0 0 0 0 0 1579 2251 2117 2167 1816 1586 1254 949 1043 911 567 631 533 183 48 4 0 0 3 2 1 33 4 2 0 7
0 0 0 0 0 0 0 0 0 0 0 0 0 0 0 0 0 0 0 0 0 0 0 652 2182 2234 2189 1608 1211 870 606 529 722 679 639 528 384 187 148 45 7 3 1 22 7 1 2 0 1
0 0 0 0 0 0 0 0 0 0 0 0 0 0 0 0 0 0 0 0 0 0 0 84 1950 2132 2055 1550 1359 1198 1201 771 610 553 544 438 397 259 236 124 41 0 16 6 12 3 1 0 3
0 0 0 0 0 0 0 0 0 0 0 0 0 0 0 0 0 0 0 0 0 0 0 25 1671 2001 1975 1730 1535 1243 1387 832 658 407 401 420 247 197 223 117 62 77 100 57 1 0 1 0 0
0 0 0 0 0 0 0 0 0 0 0 0 0 0 0 0 0 0 0 0 0 0 0 653 1486 1901 1923 1709 823 208 179 120 123 241 348 215 152 133 192 64 178 106 21 11 0 0 1 0 12
0 0 0 0 0 0 0 0 0 0 0 0 0 0 0 0 0 0 0 0 0 0 0 652 1571 1783 1816 1386 770 517 776 729 769 769 510 172 91 101 95 55 138 124 13 0 0 1 1 0 3
0 0 0 0 0 0 0 0 0 0 0 0 0 0 0 0 0 0 0 0 0 0 0 464 1644 1657 1636 1071 876 555 540 349 98 229 194 146 75 93 173 186 129 19 0 0 1 4 1 0 0
0 0 0 0 0 0 0 0 0 0 0 0 0 0 0 0 0 0 0 0 0 0 0 621 1522 1510 1265 879 543 613 266 85 104 110 111 84 60 117 133 56 54 24 2 1 0 0 0 5 3
0 0 0 0 0 0 0 0 0 0 0 0 0 4 0 0 1 0 0 0 1 1 1 81 1682 1492 883 805 377 276 108 98 65 68 127 104 105 59 50 120 51 10 12 2 0 2 6 5 1
0 0 0 0 0 0 0 0 0 0 0 1 3 0 0 0 2 0 0 1 2 2 2 3 1582 1174 851 546 319 153 77 70 55 55 83 123 134 127 34 1 6 27 12 13 15 11 17 12 15
0 0 0 0 0 0 0 0 0 0 11 0 0 0 0 0 1 0 0 4 4 4 5 2 629 802 717 356 185 33 33 23 17 31 109 129 53 22 0 8 5 2 14 13 7 34 28 22 10
0 0 0 0 8 0 0 0 0 5 0 0 0 0 0 0 0 0 0 1 5 5 6 3 3 640 396 241 63 47 28 10 3 28 31 10 0 0 0 0 0 1 0 1 1 8 16 48 14
0 0 0 4 0 1 0 0 2 12 0 0 0 0 1 0 0 0 0 2 6 6 4 5 3 147 212 163 62 15 6 6 2 16 0 0 0 0 0 0 0 0 1 1 1 1 1 2 1
0 0 1 9 0 0 4 0 0 0 0 0 0 0 1 1 1 1 1 1 4 7 10 7 3 4 2 100 8 0 1 6 11 0 0 0 0 0 0 0 1 1 0 1 0 0 3 4 1

GFSSGP_con_sbcape_096.txt.gz
CAPE
0 0 0 0 0 0 0 0 0 0 0 0 0 0 0 0 0 0 432 805 877 1033 1291 1446 1569 1868 1952 1883 1786 1796 1937 1969 2144 2256 2298 2345 2347 2224 2136 2161 2229 2368 2541 2205 1891 1827 1858 1886 1663
0 0 0 0 0 0 0 0 0 0 0 0 0 0 0 0 0 543 1157 970 993 1148 1296 1399 1656 1665 1984 1915 1943 1972 2147 2145 2145 2208 2287 2348 2389 2343 2235 2141 2158 2517 2529 2315 1887 1801 1828 1947 1438
0 0 0 0 0 0 0 0 0 0 0 0 0 0 0 0 2 833 919 1036 1193 1333 1371 1501 1786 1917 1993 1970 2001 2084 2090 2018 2088 2168 2296 2367 2415 2379 2323 2151 2339 2621 2591 2276 2010 1990 2046 1486 1190
0 0 0 0 0 0 0 0 0 0 0 0 0 0 0 0 27 821 1018 1060 1268 1436 1508 1597 1718 1906 1987 2028 2078 2131 1993 1857 1912 2120 2333 2426 2485 2499 2354 2186 2359 2785 2608 2508 2332 1736 1729 1167 1103
0 0 0 0 0 0 0 0 0 0 0 0 0 0 0 0 110 1068 1082 1122 1274 1440 1511 1571 1684 1829 1961 2130 2166 2119 1930 1809 1889 2093 2261 2395 2481 2473 2243 2097 2328 2642 2522 2336 2202 1748 1327 1094 1113
0 0 0 0 0 0 0 0 0 0 0 0 0 0 0 0 188 812 1039 938 1161 1367 1443 1587 1717 1813 1940 2038 2050 2003 1853 1828 1887 2017 2142 2399 2387 2262 2153 2067 2234 2339 1972 1790 1638 1339 1144 1064 1115
0 0 0 0 0 0 0 0 0 0 0 0 0 0 0 0 1 552 189 419 808 1049 1349 1581 1768 1872 1797 1844 1838 1847 1789 1805 1885 1974 2049 2219 2224 2093 2005 2004 2142 1973 1541 1439 1375 1128 1029 1050 1005
0 0 0 0 0 0 0 0 0 0 0 0 0 0 0 0 315 739 503 424 462 843 1175 1364 1417 1726 1651 1586 1649 1697 1753 1788 1837 1895 1961 2040 1982 1953 1906 1859 1870 1687 1230 1250 1198 917 982 913 637
0 0 0 0 0 0 0 0 0 0 0 0 0 0 0 0 919 1067 796 677 567 654 644 926 1090 1258 1421 1538 1483 1641 1742 1807 1846 1880 1868 1853 1521 1631 1634 1531 1577 1346 976 1020 918 770 664 536 254
0 0 0 0 0 0 0 0 0 0 0 0 0 0 0 0 240 978 1235 1066 892 577 411 762 781 899 1038 1264 1356 1430 1672 1803 1774 1693 1552 1310 1231 1122 1103 1023 1311 1018 709 817 601 627 323 185 62
0 0 0 0 0 0 0 0 0 0 0 0 0 0 0 0 0 173 502 1015 1352 1144 710 484 498 654 645 918 1177 1315 1222 1298 1259 1335 1263 1055 789 722 457 497 475 339 441 277 168 12 2 0 47
0 0 0 0 0 0 0 0 0 0 0 0 0 0 0 0 0 0 0 215 485 1555 1347 943 585 528 613 929 1063 1177 1187 978 1066 1033 786 1038 1025 824 168 312 34 4 1 2 0 1 0 0 21
0 0 0 0 0 0 0 0 0 0 0 0 0 0 0 0 0 0 0 0 0 674 1540 1352 843 709 764 781 889 1028 1182 1149 1087 792 714 1121 1034 903 408 222 49 0 0 0 0 0 1 4 86
0 0 0 0 0 0 0 0 0 0 0 0 0 0 0 0 0 0 0 0 0 0 699 1651 1151 914 709 842 869 855 956 991 806 775 988 1034 857 648 372 295 91 22 0 0 0 0 3 74 93
0 0 0 0 0 0 0 0 0 0 0 0 0 0 0 0 0 0 0 0 0 0 0 1038 1613 1164 882 970 786 752 779 676 574 641 830 691 563 383 169 64 31 2 0 0 1 0 0 1 2
0 0 0 0 0 0 0 0 0 0 0 0 0 0 0 0 0 0 0 0 0 0 0 0 1617 1568 1218 1123 1166 963 763 737 656 562 678 564 383 156 87 32 25 0 0 2 0 0 2 13 0
0 0 0 0 0 0 0 0 0 0 0 0 0 0 0 0 0 0 0 0 0 0 0 0 1004 1775 1686 1484 1448 1254 980 891 655 595 627 434 239 102 69 39 18 2 2 5 3 3 0 8 3
0 0 0 0 0 0 0 0 0 0 0 0 0 0 0 0 0 0 0 0 0 0 0 0 266 1722 1995 1954 1664 1467 1202 1105 993 643 650 457 232 63 65 57 19 14 4 4 2 2 1 8 15
0 0 0 0 0 0 0 0 0 0 0 0 0 0 0 0 0 0 0 0 0 0 0 0 13 1553 2045 2215 1775 1524 1354 1318 1217 893 718 583 348 203 208 115 15 12 18 1 0 6 7 2 11
0 0 0 0 0 0 0 0 0 0 0 0 0 0 0 0 0 0 0 0 0 0 0 0 0 885 2007 2026 1955 1684 1645 1360 1302 1029 757 714 477 327 301 193 87 13 1 2 18 20 12 7 23
0 0 0 0 0 0 0 0 0 0 0 0 0 0 0 0 0 0 0 0 0 0 0 0 0 266 1790 1980 1940 813 990 684 609 701 541 376 424 277 254 182 100 76 42 35 30 19 2 16 24
0 0 0 0 0 0 0 0 0 0 0 0 0 0 0 0 0 0 0 0 0 0 0 0 0 0 1703 1947 1848 1499 1535 1253 1072 794 517 218 178 260 212 152 115 56 113 131 37 7 0 0 1
0 0 0 0 0 0 0 0 0 0 0 0 0 0 0 0 0 0 0 0 0 0 0 0 0 5 1489 1900 1673 1346 1387 1221 876 776 1 185 148 58 155 131 68 143 111 81 28 4 1 0 2
0 0 0 0 0 0 0 0 0 0 0 0 0 0 0 0 0 0 0 0 0 0 0 0 0 336 1563 1760 1459 1058 1166 388 737 711 423 307 108 110 161 185 142 87 53 45 10 4 3 2 4
0 0 0 0 0 0 0 0 0 0 0 0 0 0 0 0 0 0 0 0 1 1 1 2 2 163 1550 1503 1298 904 768 308 492 578 466 265 250 200 177 118 60 39 19 35 4 4 2 5 5
0 0 0 0 0 0 0 0 0 0 0 0 0 0 0 0 0 0 0 0 2 3 2 3 3 2 1342 1206 1118 757 155 193 210 191 158 182 214 214 122 61 50 2 17 27 6 1 1 2 6
0 0 0 0 0 0 0 0 0 0 2 0 0 0 0 0 1 0 0 1 1 4 10 4 4 2 820 842 515 217 130 77 42 5 2 22 120 42 14 10 22 94 41 19 16 16 6 3 1
0 0 0 0 0 0 0 0 0 1 0 0 0 0 0 1 0 0 0 1 2 5 5 5 6 4 611 493 339 183 120 30 0 0 0 13 32 6 4 0 8 59 51 22 15 16 18 12 20
0 0 0 0 0 2 0 0 0 0 0 0 0 2 1 1 1 0 0 2 2 4 10 4 10 10 6 253 223 120 33 2 0 0 1 0 0 0 0 0 1 0 0 0 0 1 3 12 26
0 1 0 0 0 0 3 0 0 0 0 1 2 2 1 1 0 0 0 1 2 3 4 5 4 14 6 1 110 64 13 0 0 0 0 0 0 0 0 0 0 0 0 1 1 1 1 1 1

GFSSGP_con_sbcape_099.txt.gz
CAPE
0 0 0 0 0 0 0 0 0 0 0 0 0 0 0 0 0 0 612 1064 1218 1262 1744 1768 1750 1874 1875 1864 1790 1795 2055 2394 2502 2461 2270 2182 2210 2111 2076 2153 2241 2540 2788 2716 2094 1970 2231 2374 2033
0 0 0 0 0 0 0 0 0 0 0 0 0 0 0 0 0 0 997 1220 1272 1488 1779 1853 1741 1877 1911 1860 1881 1979 2235 2378 2460 2523 2498 2336 2325 2250 2231 2245 2289 2626 2795 2584 2141 2059 2201 2024 1640
0 0 0 0 0 0 0 0 0 0 0 0 0 0 0 0 0 0 1138 1534 1365 1624 1779 1890 1708 1826 1939 1893 1935 2037 2198 2157 2250 2372 2602 2598 2532 2484 2438 2264 2359 2772 2800 2624 2231 2406 2329 1559 1354
0 0 0 0 0 0 0 0 0 0 0 0 0 0 0 0 0 72 988 1443 1586 1675 1787 1671 1577 1769 1930 1940 2013 2076 2010 1916 2030 2212 2505 2689 2736 2651 2465 2268 2626 2907 2851 2714 2580 2521 2030 1279 1129
0 0 0 0 0 0 0 0 0 0 0 0 0 0 0 0 0 452 1366 1389 1624 1742 1869 2031 1642 1812 1946 2028 2066 2007 1848 1829 1941 2122 2284 2527 2656 2618 2344 2285 2474 2806 2599 2511 2524 2181 1585 1218 1139
0 0 0 0 0 0 0 0 0 0 0 0 0 0 0 0 0 330 1354 1358 1385 1754 1921 2107 1761 1815 1915 1989 1986 1886 1741 1753 1899 2063 2154 2372 2432 2382 2251 2259 2343 2579 2381 2134 2026 1640 1447 1251 1239
0 0 0 0 0 0 0 0 0 0 0 0 0 0 0 0 12 923 780 1156 1388 1645 1906 2113 2295 2157 1741 1844 1821 1717 1655 1704 1851 1977 2119 2199 2135 2134 2165 2204 2119 2323 2111 1853 1718 1465 1269 1278 1243
0 0 0 0 0 0 0 0 0 0 0 0 0 0 0 0 45 1038 893 1175 1304 1357 1549 1710 1876 2018 2231 2381 1634 1613 1572 1619 1708 1856 1993 2101 1995 1935 1991 2035 2043 2151 1698 1574 1461 1275 1156 1232 1108
0 0 0 0 0 0 0 0 0 0 0 0 0 0 0 0 0 755 1223 1123 1314 1172 899 1275 1540 1687 1866 1957 2149 1557 1537 1595 1673 1843 1831 1934 2249 2274 2179 2067 1992 1647 1405 1333 1234 1115 1038 994 611
0 0 0 0 0 0 0 0 0 0 0 0 0 0 0 0 0 0 516 1451 1173 1303 1024 1058 1151 1335 1561 1452 1683 2301 2322 2254 2226 2254 2395 2400 2391 2322 2162 1866 1563 1335 1088 1036 846 832 818 578 1341
0 0 0 0 0 0 0 0 0 0 0 0 0 0 0 0 0 0 0 937 1649 1178 1255 1001 801 1005 1127 1194 1234 1752 1802 1827 1991 1914 1916 2388 2472 2260 2203 2352 2112 2194 1048 1674 988 1121 1271 1210 1239
0 0 0 0 0 0 0 0 0 0 0 0 0 0 0 0 0 0 0 0 228 1679 1353 1320 1132 687 799 894 1114 1353 1485 1667 1723 1482 1707 1659 1913 2066 1955 1801 1892 2067 1612 1360 1614 1312 1308 1009 978
0 0 0 0 0 0 0 0 0 0 0 0 0 0 0 0 0 0 0 0 0 0 653 1748 1333 1113 933 809 1030 1175 1341 1390 1393 1497 1452 1870 1692 1543 1414 1433 1237 1599 1298 1061 1100 1009 1010 892 851
0 0 0 0 0 0 0 0 0 0 0 0 0 0 0 0 0 0 0 0 0 0 0 781 1701 1487 1290 1418 1156 1072 1236 1461 1343 1363 1386 1763 1627 1563 1300 898 923 732 744 624 539 321 623 693 635
0 0 0 0 0 0 0 0 0 0 0 0 0 0 0 0 0 0 0 0 0 0 0 0 697 1947 1614 1512 1596 1434 1315 1211 1107 1172 1454 1516 1559 1508 1197 921 793 636 420 286 36 15 31 334 616
0 0 0 0 0 0 0 0 0 0 0 0 0 0 0 0 0 0 0 0 0 0 0 0 0 984 1970 1884 1544 1721 1476 1247 1103 980 1225 1502 1342 1190 958 866 705 720 319 61 4 5 6 107 106
0 0 0 0 0 0 0 0 0 0 0 0 0 0 0 0 0 0 0 0 0 0 0 0 0 0 1413 1922 2083 1893 1487 1473 1184 1217 1117 1362 1195 840 754 640 560 678 341 142 23 10 13 68 116
0 0 0 0 0 0 0 0 0 0 0 0 0 0 0 0 0 0 0 0 0 0 0 0 0 0 257 1838 1998 2023 1745 1763 1754 1430 1123 1143 1195 645 545 404 428 572 372 160 61 4 12 102 130
0 0 0 0 0 0 0 0 0 0 0 0 0 0 0 0 0 0 0 0 0 0 0 0 0 0 0 1807 1843 1485 1379 1547 1635 1601 1260 1212 1019 592 372 249 259 330 334 175 106 11 13 30 86
0 0 0 0 0 0 0 0 0 0 0 0 0 0 0 0 0 0 0 0 0 0 0 0 0 0 0 527 1860 1870 1472 1592 1826 1604 1273 1218 930 572 301 261 234 246 207 183 152 60 8 30 75
0 0 0 0 0 0 0 0 0 0 0 0 0 0 0 0 0 0 0 0 0 0 0 0 0 0 0 6 1657 2001 1804 1811 1484 1559 1316 1250 1036 592 426 393 354 248 239 159 169 138 28 20 79
0 0 0 0 0 0 0 0 0 0 0 0 0 0 0 0 0 0 0 0 0 0 0 0 1 2 0 1 1186 1846 1508 1356 1706 1810 1450 1245 741 446 318 377 433 263 219 184 244 165 77 73 62
0 0 0 0 0 0 0 0 0 0 0 0 0 0 0 0 0 0 0 0 0 0 0 0 0 0 1 21 872 2113 1716 1990 2033 1890 1312 1009 976 448 66 0 134 239 250 268 302 110 91 67 71
0 0 0 0 0 0 0 0 0 0 0 0 0 0 0 0 0 0 0 0 0 0 0 1 2 2 0 55 953 1918 1802 1840 1843 1538 1324 1410 840 109 20 57 217 220 200 316 393 208 111 89 78
0 0 0 0 0 0 0 0 0 0 0 0 0 0 0 0 0 0 0 0 1 0 2 6 7 4 1 4 1438 1798 1708 1683 1749 1559 1332 1009 665 181 135 331 199 194 303 272 383 148 246 83 83
0 0 0 0 0 0 0 0 0 0 0 0 0 0 0 0 0 0 0 3 1 2 3 6 9 5 6 1 1571 1541 1241 1232 1570 1505 883 781 592 538 361 283 365 324 291 152 137 111 108 143 41
0 0 0 0 0 0 0 0 0 0 4 0 0 0 0 0 0 0 0 2 2 4 5 7 12 5 5 2 1396 1290 684 553 635 1290 1132 876 552 368 186 277 161 126 87 118 155 98 151 110 84
0 0 16 1 0 0 0 0 0 2 4 1 0 1 1 0 0 0 0 2 1 6 5 5 7 12 6 5 883 519 503 441 277 339 231 203 158 16 50 110 99 70 89 199 220 99 62 73 87
0 0 0 3 1 8 0 0 3 0 2 0 0 0 0 0 1 0 0 1 3 3 5 5 7 11 17 5 190 396 325 108 89 109 178 132 40 0 30 31 50 116 202 224 134 118 69 59 59
0 0 0 0 0 0 2 0 4 1 1 1 0 0 1 1 2 3 0 1 3 4 4 3 7 10 23 11 8 84 126 115 136 110 116 86 5 0 8 9 26 24 67 15 23 3 1 15 6

GFSSGP_con_sbcape_102.txt.gz
CAPE
0 0 0 0 0 0 0 0 0 0 0 0 0 0 0 0 0 0 0 1683 1723 1545 2369 2008 1712 1769 1872 1950 1928 2171 2414 2487 2476 2296 2247 2319 2316 2189 2137 2268 2375 2639 2874 2837 2418 2043 2091 2662 2532
0 0 0 0 0 0 0 0 0 0 0 0 0 0 0 0 0 0 26 1022 1731 1577 2254 2305 1698 1746 1870 1896 1939 2200 2652 2722 2631 2488 2398 2487 2432 2308 2341 2344 2388 2681 3063 2952 2295 2220 2741 2607 2194
0 0 0 0 0 0 0 0 0 0 0 0 0 0 0 0 0 0 0 865 1654 1761 2030 2090 1705 1707 1841 1864 1919 2106 2472 2568 2636 2613 2567 2585 2587 2510 2513 2386 2560 3020 3177 3068 2450 2627 2736 1960 1722
0 0 0 0 0 0 0 0 0 0 0 0 0 0 0 0 0 0 0 1671 1818 1812 1910 1577 1596 1712 1816 1877 1921 2046 2109 2245 2420 2589 2698 2719 2703 2671 2618 2423 2746 3208 3136 3037 2942 2889 2110 1544 1453
0 0 0 0 0 0 0 0 0 0 0 0 0 0 0 0 0 0 68 1613 2219 2075 2074 2307 1373 1685 1819 1938 1969 1976 1875 1981 2233 2501 2635 2700 2786 2746 2496 2393 2745 2900 3052 2975 2801 2581 1829 1400 1361
0 0 0 0 0 0 0 0 0 0 0 0 0 0 0 0 0 0 57 1525 2248 2446 2363 2588 1678 1660 1771 1873 1903 1837 1732 1788 2036 2319 2503 2706 2700 2552 2339 2410 2464 2781 2789 2523 2401 2103 1601 1388 1367
0 0 0 0 0 0 0 0 0 0 0 0 0 0 0 0 0 0 148 1443 2269 2552 2530 2625 2662 2309 1609 1751 1807 1714 1631 1690 1805 2064 2343 2557 2464 2320 2261 2364 2426 2395 2361 2199 2171 1701 1440 1391 1360
0 0 0 0 0 0 0 0 0 0 0 0 0 0 0 0 0 0 8 1169 2152 2439 2599 2651 2652 2529 2709 2526 1570 1546 1572 1588 1669 1838 2032 2154 2189 2196 2154 2227 2266 2309 2136 2047 1863 1381 1363 1328 1291
0 0 0 0 0 0 0 0 0 0 0 0 0 0 0 0 0 0 0 185 1964 2216 2389 2301 2216 2200 2305 2704 2412 1530 1438 1475 1569 1765 1817 1953 2429 2695 2607 2332 2147 2221 1901 1865 1506 1286 1305 1232 1154
0 0 0 0 0 0 0 0 0 0 0 0 0 0 0 0 0 0 0 0 1668 2172 2226 2349 2325 2165 2090 1888 2242 2598 2724 2453 2366 2286 2395 2431 2404 2574 2174 2114 1963 1878 1539 1430 1378 1165 959 1033 1784
0 0 0 0 0 0 0 0 0 0 0 0 0 0 0 0 0 0 0 0 1 1293 2040 2106 2412 2527 2470 2052 2121 2166 2545 2635 2763 2744 2753 2646 2634 2728 2548 2598 2564 2596 1456 2090 1451 1583 1690 1445 1542
0 0 0 0 0 0 0 0 0 0 0 0 0 0 0 0 0 0 0 0 0 0 124 1731 2095 2376 2416 2316 2040 1998 2159 2258 2224 2396 2676 2956 2791 2685 2643 2398 2421 2519 2314 2086 2030 1740 1690 1694 1491
0 0 0 0 0 0 0 0 0 0 0 0 0 0 0 0 0 0 0 0 0 0 0 9 1599 2170 2255 2315 2039 2104 2026 2237 2303 2258 2107 2329 2348 2618 2488 2243 2399 2466 2158 2270 2050 1936 1781 1786 1524
0 0 0 0 0 0 0 0 0 0 0 0 0 0 0 0 0 0 0 0 0 0 0 0 15 1373 2010 2090 2071 1999 1931 2061 2018 1859 2020 2191 2245 2553 2219 2319 2238 2175 2158 2218 2058 1920 1879 1766 1498
0 0 0 0 0 0 0 0 0 0 0 0 0 0 0 0 0 0 0 0 0 0 0 0 0 5 1324 1949 2020 1978 1800 1892 1948 1789 1996 2044 2300 2377 2268 1862 1834 2090 2053 2091 1925 1851 1722 1451 1210
0 0 0 0 0 0 0 0 0 0 0 0 0 0 0 0 0 0 0 0 0 0 0 0 0 0 0 1017 1595 2086 2093 2042 1908 1862 1829 1944 2184 2156 2215 1720 1827 1581 1706 1384 1238 1002 849 866 1198
0 0 0 0 0 0 0 0 0 0 0 0 0 0 0 0 0 0 0 0 0 0 0 0 0 0 0 1 959 1584 2242 2401 2204 1956 1886 2115 2214 2117 2157 1808 1647 1569 1419 1305 958 817 691 796 1110
0 0 0 0 0 0 0 0 0 0 0 0 0 0 0 0 0 0 0 0 0 0 0 0 0 0 0 0 60 1119 1461 2335 2335 2169 1950 2040 2386 2164 2036 1879 1605 1429 1219 1421 1156 825 512 573 576
0 0 0 0 0 0 0 0 0 0 0 0 0 0 0 0 0 0 0 0 0 0 0 0 0 0 0 0 0 567 1306 1934 1952 2259 2235 2087 2109 2123 1880 1729 1349 1183 1157 1143 919 608 361 454 570
0 0 0 0 0 0 0 0 0 0 0 0 0 0 0 0 0 0 0 0 0 0 0 0 0 0 0 0 0 18 1027 1303 1596 1988 2631 2154 2087 2169 1831 1490 1137 1109 1124 983 1027 758 205 384 473
0 0 0 0 0 0 0 0 0 0 0 0 0 0 0 0 0 0 0 0 0 0 0 0 2 2 1 4 1 0 726 1507 1762 1929 2402 2342 2214 1961 1702 1311 947 976 1002 1129 1141 775 424 256 244
0 0 0 0 0 0 0 0 0 0 0 0 0 0 0 0 0 0 0 0 0 0 0 0 0 0 0 5 8 6 159 1481 1703 1817 2146 2144 1834 1620 1438 1070 809 720 897 955 1081 815 701 498 246
0 0 0 0 1 1 0 0 0 0 0 0 0 1 0 0 0 0 0 0 0 0 0 0 0 1 1 1 4 20 156 1833 1742 1921 1988 1811 1664 1432 1349 919 855 198 792 859 1040 1074 1132 908 382
8 20 18 8 8 6 0 0 1 0 0 3 3 1 0 0 0 0 0 0 0 0 1 1 0 1 2 4 5 8 481 1061 1979 1912 1850 1678 1482 1363 1281 1152 1180 809 661 705 589 800 1036 862 619
21 25 36 28 17 0 0 0 0 3 0 1 13 0 0 0 0 0 0 0 0 1 3 2 1 2 2 2 4 7 507 880 2249 1940 2074 1535 1348 1357 1348 1312 564 554 633 711 575 649 1124 861 607
2 15 17 9 13 10 0 0 54 36 17 3 0 0 0 0 0 0 0 0 2 3 6 3 2 4 5 7 9 10 1013 1388 2413 1999 1944 1644 1559 1647 1739 885 290 201 357 580 656 653 1220 972 926
22 59 33 18 4 26 14 29 106 14 8 4 1 0 0 0 0 0 0 2 5 3 5 7 6 6 7 11 10 6 2023 2095 2080 1829 1720 1593 2247 1904 1107 577 374 270 302 625 527 1027 1049 537 290
83 48 72 96 40 33 16 17 44 26 6 0 0 0 0 0 0 0 0 4 10 5 9 7 7 10 8 10 12 7 1455 1586 1586 1678 1784 1193 1701 1210 965 642 636 461 378 527 623 766 436 220 300
1 72 84 70 53 46 38 49 25 4 0 0 0 0 1 2 0 0 2 5 9 5 7 6 5 7 9 8 16 6 858 1182 1253 1328 1081 831 944 981 705 506 264 144 220 303 268 245 349 430 174
0 0 0 20 23 17 58 44 13 0 0 0 0 0 2 4 3 2 2 1 5 5 4 4 7 6 10 10 12 17 8 17 354 387 401 567 462 619 632 503 157 122 237 178 261 345 298 367 230

GFSSGP_con_sbcape_105.txt.gz
CAPE
0 0 0 0 0 0 0 0 0 0 0 0 0 0 0 0 0 0 0 514 1707 1797 2783 1895 1633 1863 2065 2146 2274 2342 2368 2286 2292 2314 2297 2395 2424 2314 2344 2493 2538 2712 2881 2807 2489 2465 2335 2471 2639
0 0 0 0 0 0 0 0 0 0 0 0 0 0 0 0 0 0 0 0 683 1854 2247 2224 1642 1790 2022 2051 2251 2428 2557 2497 2481 2404 2490 2544 2519 2422 2429 2515 2529 2869 2968 3027 2762 2483 2576 2891 2521
0 0 0 0 0 0 0 0 0 0 0 0 0 0 0 0 0 0 0 319 1113 1470 2079 2575 1656 1649 1925 1988 2180 2475 2633 2629 2541 2483 2602 2685 2651 2582 2597 2525 2585 2851 3151 3066 2611 2456 2914 2475 2142
0 0 0 0 0 0 0 0 0 0 0 0 0 0 0 0 0 0 0 337 1791 1803 2088 1538 1571 1564 1783 1906 2087 2375 2538 2533 2515 2504 2696 2805 2753 2709 2654 2496 2693 3029 3450 3259 2911 3011 2592 1933 1748
0 0 0 0 0 0 0 0 0 0 0 0 0 0 0 0 0 0 0 364 1987 2399 2143 2515 1549 1592 1733 1933 2033 2121 2237 2361 2490 2530 2598 2733 2754 2715 2577 2432 2770 3101 3235 3171 2739 2700 2005 1595 1576
0 0 0 0 0 0 0 0 0 0 0 0 0 0 0 0 0 0 0 432 2224 2860 2446 2951 1661 1630 1687 1802 1808 1854 1949 2155 2387 2533 2572 2732 2690 2599 2483 2437 2758 2710 2802 2568 2689 2434 1812 1533 1487
0 0 0 0 0 0 0 0 0 0 0 0 0 0 0 0 0 0 0 127 1882 2799 2990 2865 2979 2082 1567 1642 1643 1610 1625 1866 2135 2382 2521 2685 2628 2500 2357 2444 2580 2715 2596 2434 2428 2127 1738 1486 1390
0 0 0 0 0 0 0 0 0 0 0 0 0 0 0 0 0 0 0 0 1257 2523 2751 3113 3053 2692 2577 2334 1505 1477 1490 1556 1758 2057 2309 2469 2444 2328 2220 2297 2425 2539 2417 2340 2315 2072 1557 1380 1262
0 0 0 0 0 0 0 0 0 0 0 0 0 0 0 0 0 0 0 0 650 2293 2618 3044 2980 2966 2904 2804 2225 1498 1439 1446 1509 1712 1861 2061 2819 2913 2733 2377 2231 2307 2230 2075 1979 1516 1436 1283 1202
0 0 0 0 0 0 0 0 0 0 0 0 0 0 0 0 0 0 0 0 1 1811 2395 2726 2787 2702 2793 2725 2960 2505 2278 2056 2009 1896 2134 2340 2311 2593 2433 2380 1973 2138 1971 1858 1582 1402 1364 1195 1733
0 0 0 0 0 0 0 0 0 0 0 0 0 0 0 0 0 0 0 0 0 22 2272 2428 2851 2740 2591 2594 2670 2790 2918 2674 2684 2613 2662 2477 2573 2805 2420 2495 2527 2763 1818 2413 1965 1972 2049 1782 1552
0 0 0 0 0 0 0 0 0 0 0 0 0 0 0 0 0 0 0 0 0 0 0 1843 2288 2766 3085 2979 2724 2813 2831 2886 2739 2703 3310 3245 2935 2971 2820 2166 2637 2856 2557 2415 2523 2345 2170 1968 1902
0 0 0 0 0 0 0 0 0 0 0 0 0 0 0 0 0 0 0 0 0 0 0 0 566 1871 2580 2797 2787 2718 2661 2629 2695 2732 2928 2669 2540 2927 2407 2379 2201 2545 2062 2613 2401 2123 2147 2117 1856
0 0 0 0 0 0 0 0 0 0 0 0 0 0 0 0 0 0 0 0 0 0 0 0 0 27 1237 2128 2623 2575 2556 2476 2505 2437 2646 2707 2807 2871 2347 2351 2205 1965 2256 2840 2380 2332 2205 2215 2079
0 0 0 0 0 0 0 0 0 0 0 0 0 0 0 0 0 0 0 0 0 0 0 0 0 0 0 966 1790 2281 2304 2214 1987 2106 2523 2350 2488 3029 3008 2437 2531 2052 2223 2718 2600 2657 2404 2137 1803
0 0 0 0 0 0 0 0 0 0 0 0 0 0 0 0 0 0 0 0 0 0 0 0 0 0 0 0 198 1415 1590 2374 2107 2102 2435 2347 2410 2955 3130 2459 2259 2285 2189 2436 2466 2397 2392 2035 1965
0 0 0 0 0 0 0 0 0 0 0 0 0 0 0 0 0 0 0 0 0 0 0 0 0 0 0 0 0 212 1729 2096 2348 2402 2531 2644 2464 2432 2934 2619 2237 2411 2140 2266 2068 2126 2075 2015 1752
0 0 0 0 0 0 0 0 0 0 0 0 0 0 0 0 0 1 0 0 0 0 0 0 0 0 0 0 0 0 113 1779 2181 2167 2759 2924 2867 2838 2932 2324 2359 2242 1806 2132 1653 1517 1611 1514 1623
0 1 6 1 2 0 0 0 0 0 0 0 0 0 0 0 0 0 0 0 0 0 0 0 0 0 0 0 0 0 0 507 1539 1905 2363 2997 2824 2983 2687 2383 2443 2197 1651 2033 1542 1454 1495 1283 1315
7 10 5 0 0 0 0 0 0 0 0 0 0 0 0 2 2 0 0 0 0 0 0 0 0 0 0 0 0 0 3 18 663 1683 2160 2644 2607 2678 2183 2308 2283 2157 1791 2059 1542 1432 1262 1190 975
5 9 10 0 0 6 0 0 0 0 0 0 0 2 8 9 0 0 0 0 0 0 0 0 0 0 0 2 1 0 0 17 218 1840 1971 2256 2785 2723 2176 2345 2381 2012 1849 1734 1505 1407 1047 916 810
4 0 5 9 16 1 1 0 0 0 0 0 1 2 26 14 0 0 0 0 0 0 0 0 0 0 0 3 5 7 6 0 14 1043 1675 2158 2448 2248 2326 2493 2006 1780 1810 1652 1509 1380 1224 1240 691
11 0 2 34 4 6 2 10 0 0 0 0 16 46 51 2 0 0 0 0 0 0 0 1 2 2 4 6 6 6 9 12 125 535 1823 2330 2565 2300 2347 2437 1943 1610 1504 1491 1311 1237 1359 1450 985
1 12 4 33 38 27 0 11 14 2 4 25 51 76 18 0 0 0 0 0 0 0 4 8 6 3 6 3 4 6 9 11 36 617 1616 2261 2636 2138 2064 1842 1717 1588 1802 1397 1277 1427 1672 1675 1362
7 30 17 10 20 57 2 3 0 0 18 48 88 54 10 0 0 0 0 0 0 0 3 6 6 5 3 3 4 8 13 13 16 253 1206 2242 2406 1923 1646 1621 1372 1633 1448 484 244 573 1215 1555 1399
10 6 11 15 3 0 0 0 39 89 144 56 23 1 4 0 0 0 0 0 0 0 5 7 6 4 2 6 6 10 9 14 14 176 1176 1856 2225 2021 1433 1461 1314 1377 1273 912 1103 1442 1557 1340 1147
21 36 1 2 8 38 0 42 112 54 47 67 43 10 1 0 0 0 0 0 1 2 6 9 4 6 3 8 7 9 8 10 140 1174 1749 2109 2270 1928 1506 1433 1331 1289 1296 1086 1094 815 981 1220 1430
14 33 37 34 54 34 15 14 83 100 80 46 0 0 0 0 0 0 0 0 2 4 4 9 5 9 8 9 5 10 10 10 528 1487 1833 1959 2141 2040 1868 1648 1134 782 616 970 875 432 762 993 1477
21 61 36 21 34 49 53 50 59 32 5 13 4 0 0 0 0 0 0 1 5 4 5 7 8 9 9 11 5 6 10 11 9 1040 1259 1676 1922 1723 1481 1332 917 786 706 234 256 436 269 661 930
0 1 1 20 20 16 9 8 13 30 14 0 0 0 0 0 0 0 0 2 4 5 5 8 7 11 10 9 8 6 7 8 7 8 41 1316 1504 1409 1167 903 1023 858 626 600 113 45 205 431 606

GFSSGP_con_sbcape_108.txt.gz
CAPE
0 0 0 0 0 0 0 0 0 0 0 0 0 0 0 0 0 0 0 172 861 2651 1985 1682 1622 1900 2128 2327 2370 2293 2127 2287 2308 2297 2335 2379 2401 2390 2445 2497 2517 2704 2918 2849 2423 2404 2369 2541 2439
0 0 0 0 0 0 0 0 0 0 0 0 0 0 0 0 0 0 0 119 871 2066 2671 1904 1592 1807 2021 2140 2298 2392 2468 2438 2434 2424 2477 2510 2456 2417 2489 2532 2498 2786 3012 2979 2448 2433 2717 2698 2518
0 0 0 0 0 0 0 0 0 0 0 0 0 0 0 0 0 0 0 150 1239 1071 2999 2311 1570 1718 1934 2016 2230 2349 2501 2414 2434 2438 2623 2657 2558 2508 2557 2514 2574 2848 3018 3016 3043 2758 2767 2629 2266
0 0 0 0 0 0 0 0 0 0 0 0 0 0 0 0 0 0 0 71 1497 2092 2186 1556 1498 1636 1877 1966 2208 2344 2402 2351 2300 2370 2633 2738 2662 2602 2577 2442 2662 2980 3233 3122 3085 2802 2716 2268 2017
0 0 0 0 0 0 0 0 0 0 0 0 0 0 0 0 0 0 0 312 2045 2952 2609 2044 1499 1587 1806 1998 2167 2336 2373 2330 2244 2322 2511 2667 2692 2637 2519 2354 2582 2862 3191 3097 2938 2836 2373 2004 1615
0 0 0 0 0 0 0 0 0 0 0 0 0 0 0 0 0 0 0 242 2290 2946 3257 2099 1605 1599 1677 1805 1891 2092 2215 2233 2243 2313 2440 2634 2595 2512 2426 2297 2456 2679 2911 2683 2480 2473 1956 1565 1518
0 0 0 0 0 0 0 0 0 0 0 0 0 0 0 0 0 0 0 0 2081 2940 3702 3089 2394 1851 1535 1576 1630 1756 1954 2159 2268 2321 2396 2539 2436 2372 2307 2232 2427 2641 2619 2422 2346 2296 1878 1457 1390
0 0 0 0 0 0 0 0 0 0 0 0 0 0 0 0 0 0 0 0 301 3223 2997 3667 3163 2370 2081 1774 1410 1402 1609 1820 2096 2250 2311 2361 2291 2249 2206 2092 2271 2469 2474 2322 2332 2184 1843 1466 1280
0 0 0 0 0 0 0 0 0 0 0 0 0 0 0 0 0 0 0 0 49 2730 2989 2973 2912 2686 2640 2361 1770 1312 1431 1417 1646 1942 2092 1987 2557 2371 2268 2149 2025 2307 2300 2164 2100 2020 1738 1433 1243
0 0 0 0 0 0 0 0 0 0 0 0 0 0 0 0 0 0 0 0 0 310 3246 2980 2707 2631 2709 2681 2308 1902 1777 1659 1705 1813 1997 2418 2539 2732 2535 2247 1884 2068 2054 1891 1796 1598 1521 1152 1426
0 0 0 0 0 0 0 0 0 0 0 0 0 0 0 0 0 0 0 0 0 0 2498 2999 2841 2431 2329 2357 2669 2359 2102 1896 1932 1948 2095 2147 2213 2448 2194 2317 1906 2029 1703 2027 1411 1168 1451 1687 1740
0 0 0 0 0 0 0 0 0 0 0 0 0 0 0 0 0 0 0 0 0 0 0 2847 2836 2764 2481 2359 2422 2913 2901 2376 2319 2219 2401 2449 2243 2322 2528 2140 2348 2370 2224 2131 1910 1852 1905 1813 1734
0 0 0 0 0 0 0 0 0 0 0 0 0 0 0 0 0 0 0 0 0 0 0 0 85 2079 2741 2200 2402 2501 2449 2603 2600 2740 2645 2427 2475 2490 2418 2236 2148 2341 2230 2168 1964 1913 1931 1821 1658
0 0 0 0 0 0 0 0 0 0 0 0 0 0 0 0 0 0 0 0 0 0 0 0 0 0 0 2336 2216 2283 2403 2338 2709 2569 2587 2811 2792 2272 2265 2285 1793 2272 1989 1979 1994 1954 1864 1822 1617
0 0 0 0 0 0 0 0 0 0 0 0 0 0 0 0 0 0 0 0 0 0 0 0 0 0 0 0 283 1979 2134 2221 2185 2379 2550 2331 2456 2645 2525 2364 2030 1780 1992 1633 2012 2037 2027 1838 1766
0 0 0 0 0 0 0 0 0 0 0 0 0 0 0 0 0 0 0 0 0 0 0 0 0 0 0 0 0 0 37 2158 2202 2019 2258 2460 2264 2144 2329 2335 1912 2187 1923 2014 2169 1995 2016 1892 1784
0 0 0 0 0 0 0 0 0 0 0 0 0 0 0 0 0 0 0 0 0 0 0 0 0 0 0 0 0 0 0 1 1830 2097 1956 2308 2080 1966 2205 2276 2081 1980 1796 1878 2046 1879 1877 1864 1593
0 3 6 7 0 17 7 10 0 0 0 0 0 0 0 0 0 0 0 0 0 0 0 0 0 0 0 0 0 0 0 0 13 1346 2136 2103 2169 2060 2128 2246 2138 2000 1897 1819 2110 1867 1846 1737 1651
22 24 31 18 2 13 2 0 0 0 0 0 0 0 0 0 6 1 0 0 0 0 0 0 0 0 0 0 0 0 0 0 0 325 1221 2012 2115 2123 2006 2100 2065 1848 1809 1737 1930 1613 1474 1373 1249
34 40 7 36 0 15 5 0 0 0 0 0 0 0 0 4 7 0 1 0 0 0 0 0 0 0 0 0 0 0 0 0 0 0 3 1055 1593 1759 2034 2113 2013 1740 1522 1487 1690 1358 1215 1167 1105
0 37 3 40 0 0 2 0 0 0 0 0 1 0 1 38 23 1 0 0 0 0 0 0 0 0 0 0 0 0 0 0 0 0 0 6 1366 1712 1844 2075 1948 1417 1103 512 1493 1330 1087 1046 996
33 20 42 10 3 6 1 5 0 0 0 0 0 16 68 39 2 0 0 0 0 0 0 0 0 0 0 0 0 2 3 3 0 0 0 4 1453 1478 1809 1906 1830 1401 1105 1023 853 1266 1065 801 824
3 0 4 13 23 12 0 1 0 0 0 0 9 88 102 4 0 0 0 0 0 0 0 0 0 0 0 0 0 2 2 6 4 0 0 0 25 1340 1651 1677 1717 1466 1166 856 1253 1118 977 721 617
0 4 6 14 13 22 0 0 0 0 0 0 51 94 8 1 0 0 0 0 0 0 0 0 0 0 1 0 0 1 3 4 8 6 2 0 4 508 1282 1551 1922 1731 1369 1244 1039 343 907 804 877
1 5 25 40 41 2 5 12 0 0 0 25 117 32 2 0 0 0 0 0 0 0 0 0 1 3 5 4 0 3 4 5 7 6 7 2 0 217 598 1380 1813 1651 1295 1167 1080 932 395 762 931
0 3 8 22 32 13 1 7 0 61 81 43 3 6 0 0 0 0 0 0 0 0 0 0 3 5 5 6 4 5 5 8 10 8 9 4 3 121 725 1030 1547 1394 1309 1298 1229 983 630 410 423
6 20 2 12 0 26 20 0 0 27 22 0 1 8 0 0 0 0 0 0 0 0 2 2 2 3 8 6 7 6 11 11 10 8 4 6 4 6 1140 1480 1398 1228 1320 1342 513 263 262 95 535
4 13 55 19 40 33 15 4 64 31 1 2 2 0 0 0 0 0 0 0 0 0 2 5 4 5 11 9 3 7 10 12 11 11 11 9 39 709 1220 1351 1330 1208 1257 1116 629 724 777 1067 1041
18 41 37 18 10 35 19 69 17 10 6 0 0 0 0 0 0 0 0 0 0 2 4 6 8 5 9 11 4 7 6 10 8 6 6 7 5 831 1186 1348 1308 1158 1039 1042 999 925 834 556 568
0 8 13 139 39 19 23 1 9 10 24 2 0 0 0 0 0 0 0 0 0 3 3 6 6 7 7 8 10 4 8 7 9 5 7 15 6 3 844 1120 1089 1053 683 583 718 573 423 412 168

GFSSGP_con_sbcape_111.txt.gz
CAPE
0 0 0 0 0 0 0 0 0 0 0 0 0 0 0 0 0 0 0 133 1629 1523 1655 1626 1778 2028 2201 2180 1896 1866 2080 2225 2203 2200 2201 2243 2198 2208 2196 2121 2300 2631 2810 2514 2348 2228 2156 2303 2180
0 0 0 0 0 0 0 0 0 0 0 0 0 0 0 0 0 0 0 2 1593 1643 1513 1593 1641 1890 2073 2163 2120 1956 2268 2361 2289 2313 2320 2332 2273 2297 2298 2184 2216 2637 2990 2851 2334 2234 2404 2408 2126
0 0 0 0 0 0 0 0 0 0 0 0 0 0 0 0 0 0 0 424 1113 2395 1620 1649 1570 1757 1905 2022 2150 2135 2176 2223 2227 2294 2452 2417 2356 2430 2434 2218 2293 2668 3202 3091 2414 2610 2721 2270 2080
0 0 0 0 0 0 0 0 0 0 0 0 0 0 0 0 0 0 19 849 1323 2085 1902 1423 1516 1686 1788 1906 2053 2172 2192 2093 2091 2213 2448 2495 2446 2483 2435 2183 2392 2775 3019 3080 3326 2814 2343 2180 2051
0 0 0 0 0 0 0 0 0 0 0 0 0 0 0 0 0 0 107 1186 1364 2290 1865 1352 1404 1629 1748 1912 2046 2121 2162 2086 2070 2197 2344 2427 2439 2410 2264 2132 2350 2582 2905 2995 2829 2452 2363 2044 1682
0 0 0 0 0 0 0 0 0 0 0 0 0 0 0 0 0 0 0 1169 1648 2543 2061 1438 1440 1587 1666 1760 1936 2108 2146 2082 2020 2132 2287 2411 2345 2233 2116 2044 2208 2392 2694 2677 2411 2384 2154 1813 1482
0 0 0 0 0 0 0 0 0 0 0 0 0 0 0 0 0 0 0 14 1891 2511 2035 1603 1612 1591 1547 1616 1704 1975 2067 2079 2020 2062 2204 2372 2280 2168 2072 2026 2122 2295 2415 2425 2307 2274 1944 1411 1242
0 0 0 0 0 0 0 0 0 0 0 0 0 0 0 0 0 0 0 0 2149 2347 2348 1823 1640 1447 1320 1279 1464 1653 1902 2003 2042 2044 2126 2262 2200 2105 2077 1975 2028 2237 2290 2348 2165 2057 1886 1347 1115
0 0 0 0 0 0 0 0 0 0 0 0 0 0 0 0 0 0 0 0 434 2237 2160 2488 2125 1737 1420 1291 1241 1357 1595 1802 1977 2041 2050 1841 1950 1979 2000 1884 1881 2095 2138 2176 2098 1995 1811 1411 1061
0 0 0 0 0 0 0 0 0 0 0 0 0 0 0 0 0 0 0 0 0 1509 2027 1919 2370 2108 1876 1982 1355 1079 1251 1264 1426 1716 1703 1915 1995 1958 2145 1891 1748 1840 1937 1934 1860 1803 1566 1227 864
0 0 0 0 0 0 0 0 0 0 0 0 0 0 0 0 0 0 0 0 0 1170 2325 2125 2246 2220 2328 2250 1363 1215 1172 1084 1133 1334 1535 1815 2123 2107 1985 1863 1660 1460 1688 1599 1441 1384 1119 1002 936
0 0 0 0 0 0 0 0 0 0 0 0 0 0 0 0 0 0 0 0 0 0 1524 2402 2178 1873 1755 1757 2216 1734 1464 1186 1239 1227 1389 1530 1640 1687 2029 1807 1643 1524 1596 1536 1404 1227 1123 1149 1126
0 0 0 0 0 0 0 0 0 0 0 0 0 0 0 0 0 0 0 0 0 0 0 0 1098 1360 1638 1751 1877 2303 2032 1629 1555 1430 1477 1716 1545 1685 1588 1781 1838 1770 1667 1534 1459 1312 1341 1277 1248
0 0 0 0 0 0 0 0 0 0 0 0 0 0 0 0 0 0 0 0 0 0 0 0 0 0 0 23 484 1363 1523 1582 1800 1772 1647 1763 1849 1655 1713 1633 1527 1855 1849 1658 1567 1349 1407 1404 1305
0 0 0 0 0 0 0 0 0 0 0 0 0 0 0 0 0 0 0 0 0 0 0 0 0 0 0 0 0 0 80 1213 1141 1464 1584 1951 1801 1683 1738 1519 1341 1755 1791 1623 1516 1148 1199 1312 1148
0 0 0 0 0 0 0 0 0 0 0 0 0 0 0 0 0 0 0 0 0 0 0 0 0 0 0 0 0 0 0 0 44 1039 1415 1413 1733 1792 1812 1622 1306 900 1620 1193 1486 1323 1229 1178 1066
0 0 0 0 0 0 0 0 0 0 0 0 0 0 0 0 0 0 0 0 0 0 0 0 0 0 0 0 0 0 0 0 0 0 640 1340 1633 1562 1617 1533 1631 1166 1102 1194 1295 1223 1316 1138 997
0 0 0 0 0 0 0 0 0 0 0 0 0 0 0 0 0 0 0 0 0 0 0 0 0 0 0 0 0 0 0 0 0 0 0 880 1559 1738 1342 1278 1457 1349 1234 1006 1139 1426 1129 1307 1125
0 0 0 0 0 0 0 0 0 0 0 0 0 0 0 0 0 0 0 0 0 0 0 0 0 0 0 0 0 0 0 0 0 0 0 0 283 1421 1564 1459 1406 1541 1529 1313 1078 1194 1268 891 871
0 0 0 0 0 1 0 0 0 0 0 0 0 0 0 2 0 0 0 0 0 0 0 0 0 0 0 0 0 0 0 0 0 0 0 0 0 0 1247 1589 1535 1656 1467 1223 991 1084 895 704 817
0 2 0 0 0 0 0 0 0 0 0 0 0 0 0 0 0 0 0 0 0 0 0 0 0 0 0 0 0 0 0 0 0 0 0 0 0 0 0 1121 1495 1618 1374 1264 988 629 633 366 633
0 0 0 0 0 0 0 7 0 0 0 0 1 0 0 0 0 0 0 0 0 0 0 0 0 0 0 0 0 0 0 0 0 0 0 0 0 0 0 15 910 1387 1269 1025 532 0 0 0 241
0 0 0 0 0 1 0 1 0 0 0 0 1 0 0 0 0 0 0 0 0 0 0 0 0 0 0 0 0 0 0 0 0 0 0 0 0 0 0 0 132 733 1066 832 22 0 37 233 421
0 0 0 0 2 3 0 0 0 0 2 0 22 0 0 0 0 0 0 0 0 0 0 0 0 0 0 0 0 0 0 0 1 1 2 2 0 0 0 0 4 611 699 768 432 168 328 459 462
0 0 0 0 9 0 0 0 0 0 22 56 36 0 0 0 0 0 0 0 0 0 0 0 0 0 0 0 1 0 0 1 2 4 5 7 7 3 1 1 0 237 577 586 507 666 689 637 571
0 0 0 0 0 8 0 1 0 66 6 9 13 4 0 0 0 0 0 0 0 0 0 0 0 0 0 2 2 0 0 5 5 9 11 10 8 8 1 3 1 9 411 711 684 700 393 277 624
0 0 0 1 0 0 0 0 11 0 17 29 8 1 0 0 0 0 0 0 0 0 0 0 0 0 0 3 4 2 4 7 7 6 11 14 15 13 7 1 1 0 0 28 474 546 282 130 1
0 0 0 4 2 0 0 23 6 8 6 20 8 1 0 0 0 0 0 0 0 0 0 0 0 6 1 3 3 7 7 9 8 9 12 12 12 13 5 2 0 22 0 19 468 611 464 404 178
0 4 24 16 57 10 3 82 4 1 8 8 3 0 0 0 0 0 0 0 0 0 0 0 0 2 1 2 5 5 5 7 8 11 11 8 10 10 7 2 123 406 475 393 444 572 421 373 221
0 0 9 6 8 7 8 33 12 4 6 7 1 0 0 0 0 0 0 0 0 0 0 2 1 4 5 3 4 6 6 7 7 11 10 9 8 7 6 6 6 473 391 376 505 480 454 381 473

GFSSGP_con_sbcape_117.txt.gz
CAPE
0 0 0 0 0 0 0 0 0 0 0 0 0 0 0 0 0 0 0 454 1490 1385 1741 1738 1786 1966 2037 1981 1859 1951 2029 2090 2205 2106 2040 2181 2249 2214 2228 2358 2584 2866 3052 2718 2380 2291 2233 2194 1608
0 0 0 0 0 0 0 0 0 0 0 0 0 0 0 0 0 12 32 1283 1445 1503 1670 1818 1808 1957 1982 1909 1899 2028 2245 2194 2199 2135 2054 2116 2249 2321 2292 2288 2447 2736 2931 2710 2499 2417 2383 2392 1591
0 0 0 0 0 0 0 0 0 0 0 0 0 0 0 0 0 0 0 1415 1438 1514 1591 1741 1839 1912 1900 1829 1848 1974 2166 2120 2107 2115 2167 2152 2215 2342 2377 2272 2468 2855 2989 2596 2227 2264 2684 2019 1544
0 0 0 0 0 0 0 0 0 0 0 0 0 0 0 0 0 0 329 1785 1552 1454 1464 1665 1760 1833 1845 1775 1771 1918 1950 1876 1904 2045 2194 2252 2297 2301 2250 2103 2513 2902 2946 2755 2616 2782 2308 1790 1494
0 0 0 0 0 0 0 0 0 0 0 0 0 0 0 0 0 94 1270 1899 1962 1530 1367 1363 1631 1792 1942 1964 1838 1825 1858 1765 1814 1991 2129 2201 2336 2314 1983 1896 2318 2784 2905 2878 2731 2553 2096 1759 1495
0 0 0 0 0 0 0 0 0 0 0 0 0 0 0 0 2 144 335 831 1855 1686 1331 1276 1409 1639 1864 1995 1931 1747 1768 1739 1770 1887 2030 2163 2177 2149 1983 1866 2020 2386 2755 2737 2589 2373 2035 1816 1687
0 0 0 0 0 0 0 0 0 0 0 0 0 0 0 0 0 0 415 1049 1814 1638 1372 1222 1412 1537 1627 1752 1810 1820 1738 1708 1721 1800 1938 2039 1942 1903 1898 1892 1924 2038 2416 2299 2526 2127 1890 1783 1572
0 0 0 0 0 0 0 0 0 0 0 0 0 0 0 0 0 0 191 1196 1963 1606 1333 1176 1220 1384 1309 1278 1440 1557 1700 1700 1677 1713 1848 1936 1834 1726 1751 1758 1810 1901 2018 2118 2235 2012 1858 1812 1587
0 0 0 0 0 0 0 0 0 0 0 0 0 0 0 0 0 0 0 545 2017 1967 1385 1147 1169 1199 1107 1091 1226 1416 1568 1608 1596 1639 1697 1675 1681 1575 1526 1519 1562 1762 1745 1955 2130 1913 1845 1618 1246
0 0 0 0 0 0 0 0 0 0 0 0 0 0 0 0 0 0 0 0 1777 2100 1908 1308 1146 1081 978 1253 1149 1180 1351 1527 1502 1565 1483 1611 1668 1526 1602 1520 1417 1531 1550 1564 1847 1838 1636 1314 864
0 0 0 0 0 0 0 0 0 0 0 0 0 0 0 0 0 0 0 0 284 1768 1864 1691 1326 1193 1114 1283 885 833 967 1191 1447 1383 1531 1642 1338 1387 1517 1551 1342 1179 1237 1240 1320 1391 1271 1100 894
0 0 0 0 0 0 0 0 0 0 0 0 0 0 0 0 0 0 0 0 0 0 377 1772 1730 1621 1371 1507 966 716 890 827 890 1134 1215 1347 1431 1381 1332 1440 1406 1210 1142 1250 1225 1345 1373 1093 893
0 0 0 0 0 0 0 0 0 0 0 0 0 0 0 0 0 0 0 0 0 5 973 845 149 325 1068 1217 1007 1306 891 722 679 727 992 1170 1234 1334 1244 1323 1305 1216 1141 1144 1168 1323 1297 1100 872
0 0 0 0 0 0 0 0 0 0 0 0 0 0 0 0 0 0 0 0 0 0 0 0 0 0 0 0 0 0 26 271 785 682 653 863 1045 1175 1279 1442 1226 1236 1108 1071 1113 1178 1205 1210 1034
0 0 0 0 0 0 0 0 0 0 0 0 0 0 0 0 0 0 0 0 0 0 0 0 0 0 0 0 0 0 0 0 0 0 17 274 748 1025 1046 1115 1449 1522 1191 1063 1094 938 952 1032 978
0 0 0 0 0 0 0 0 0 0 0 0 0 0 0 0 0 0 0 0 0 0 0 0 0 0 0 0 0 0 0 0 0 0 0 0 0 19 776 1007 1024 1182 1100 962 1110 1099 1106 1081 970
0 0 0 0 0 0 0 0 0 0 0 0 0 0 0 0 0 0 0 0 0 0 0 0 0 0 0 0 0 0 0 0 0 0 0 0 0 0 0 50 937 922 774 830 1123 1170 1220 1101 990
0 0 0 0 0 0 0 0 0 0 0 0 0 0 0 0 0 0 0 0 0 0 0 0 0 0 0 0 0 0 0 0 0 0 0 0 0 0 0 0 4 327 370 583 534 856 926 839 838
0 0 0 0 0 0 0 0 0 0 0 0 0 0 0 0 0 0 0 0 0 0 0 0 0 0 0 0 0 0 0 0 0 0 0 0 0 0 0 0 0 0 81 433 284 395 442 531 429
0 0 0 0 0 0 0 0 0 0 0 0 0 0 0 0 0 0 0 0 0 0 0 0 0 0 0 0 0 0 0 0 0 0 0 0 0 0 0 0 0 0 0 0 418 437 481 277 315
0 0 0 0 0 0 0 0 0 0 0 0 0 0 0 0 0 0 0 0 0 0 0 0 0 0 0 0 0 0 0 0 0 0 0 0 0 0 0 0 0 0 0 0 0 339 626 624 134
0 0 0 0 0 0 0 0 0 0 0 0 0 0 0 0 0 0 0 0 0 0 0 0 0 0 0 0 0 0 0 0 0 0 0 0 0 0 0 0 0 1 1 1 0 0 364 560 88
0 0 0 0 0 0 0 0 0 0 0 2 1 0 1 2 1 1 2 0 0 0 0 0 0 0 0 0 0 0 0 2 1 0 0 0 1 0 0 1 1 0 0 0 2 0 1 404 443
0 0 0 0 0 0 0 0 0 6 12 1 5 1 3 4 5 5 6 2 0 0 0 0 0 0 0 0 0 0 0 0 2 1 4 4 2 3 4 6 6 6 6 5 2 2 12 141 55
0 0 5 0 0 0 0 0 4 12 10 9 13 14 14 10 5 7 4 2 1 0 0 0 0 0 0 0 0 0 1 1 2 4 5 5 5 6 7 7 7 7 9 10 8 6 10 35 48
0 0 1 0 0 0 0 0 4 15 6 2 4 6 6 5 8 5 4 1 0 0 0 0 0 0 0 0 2 1 2 4 4 4 6 8 9 8 8 9 9 7 10 9 9 7 3 13 47
0 0 0 0 0 0 0 4 21 9 3 0 5 3 3 1 3 2 2 1 2 2 0 0 1 1 2 3 4 4 5 5 5 4 7 9 9 6 7 8 10 7 7 7 7 12 5 1 29
0 0 0 0 0 0 0 0 0 4 7 13 8 6 4 4 3 3 2 1 2 2 1 0 1 3 3 2 4 5 6 6 7 10 9 9 8 9 8 6 6 6 7 9 12 11 3 3 45
0 0 0 0 0 0 0 0 0 1 6 6 8 9 5 4 2 0 0 0 0 3 2 1 3 1 1 5 3 7 9 8 1 9 9 8 8 8 7 6 8 8 5 6 5 3 7 0 3
0 0 0 0 0 0 0 0 1 2 2 1 1 3 3 2 2 1 0 0 1 3 0 0 0 0 3 6 7 7 7 8 6 2 8 8 7 8 7 8 7 8 6 7 6 4 3 3 1

GFSSGP_con_sbcape_123.txt.gz
CAPE
0 0 0 0 0 0 0 0 0 0 0 0 0 0 0 0 0 0 0 54 1593 2075 2063 2040 1835 1961 1903 1841 1800 1907 2122 2585 2696 2547 2301 2233 2237 2176 2165 2313 2476 2650 2809 2804 2375 2211 1828 1366 1355
0 0 0 0 0 0 0 0 0 0 0 0 0 0 0 0 0 25 344 1640 1614 2055 2094 2178 1873 2000 1944 1858 1842 1998 2289 2455 2700 2739 2584 2406 2326 2327 2310 2255 2423 2736 2909 2923 2445 2422 2190 1713 1180
0 0 0 0 0 0 0 0 0 0 0 0 0 0 0 0 0 24 0 1961 1697 1951 2051 2026 1882 1996 1976 1901 1890 1951 2185 2230 2366 2627 2784 2725 2650 2617 2514 2287 2369 2814 3123 3079 2606 2619 2624 1581 977
0 0 0 0 0 0 0 0 0 0 0 0 0 0 0 0 0 0 1420 1915 1822 1898 2099 1759 1801 1957 2010 1980 1989 1998 1980 1966 2012 2266 2694 2836 2864 2822 2587 2331 2574 2995 3077 3083 2764 2573 2459 1415 955
0 0 0 0 0 0 0 0 0 0 0 0 0 0 0 0 18 1314 2000 1962 1942 1973 2096 2200 1780 1908 2036 2127 2096 2008 1866 1813 1843 2011 2300 2609 2728 2700 2459 2339 2607 2917 2999 2901 2694 2254 2070 1471 1090
0 0 0 0 0 0 0 0 0 0 0 0 0 0 0 0 0 67 748 1959 2360 2240 2141 2273 1882 1847 1971 2081 2047 1997 1897 1723 1762 1837 2049 2354 2488 2430 2271 2230 2471 2686 2741 2682 2511 2349 1861 1450 1181
0 0 0 0 0 0 0 0 0 0 0 0 0 0 0 0 0 0 0 873 2148 2398 2150 2257 2519 2388 1804 1805 1857 1859 1882 1787 1733 1764 1841 2044 2153 2243 2162 2168 2338 2492 2467 2376 2262 2160 1643 1409 1206
0 0 0 0 0 0 0 0 0 0 0 0 0 0 0 0 0 0 0 206 1655 2342 2348 2165 2121 2595 2729 2643 1592 1486 1615 1717 1703 1701 1762 1805 1858 1865 1884 1958 2118 2305 2240 2154 2097 1940 1595 1473 1286
0 0 0 0 0 0 0 0 0 0 0 0 0 0 0 0 0 0 0 0 21 1783 2493 2321 2142 2209 2467 2497 2307 1643 1542 1587 1560 1675 1643 1786 2235 2195 2107 1834 1785 1932 2024 2033 2053 1817 1708 1552 1394
0 0 0 0 0 0 0 0 0 0 0 0 0 0 0 0 0 0 0 0 0 0 63 2275 2290 2280 2247 2060 2247 2430 2463 2539 2562 2426 2390 2332 2182 2167 1973 1777 1468 1517 1550 1700 1774 1868 1535 1319 2006
0 0 0 0 0 0 0 0 0 0 0 0 0 0 0 0 0 0 0 0 0 0 0 29 2418 2334 2337 2335 2415 2256 2262 2259 2237 2311 2134 1999 2107 2188 1885 1672 1955 2153 1456 2109 1868 2233 2352 2300 2299
0 0 0 0 0 0 0 0 0 0 0 0 0 0 0 0 0 0 0 0 0 0 0 0 1799 2412 2403 2415 2456 2019 1804 1649 1862 1859 2044 2229 2171 2010 1869 1735 1467 1526 1737 2009 2131 2069 2255 2402 2310
0 0 0 0 0 0 0 0 0 0 0 0 0 0 0 0 0 0 0 0 0 0 0 0 880 2543 2497 2460 2463 2297 1971 1221 1453 1591 1766 1953 1952 1984 1821 1708 1817 1886 1502 1358 1447 1831 1744 1588 1921
0 0 0 0 0 0 0 0 0 0 0 0 0 0 0 0 0 0 0 0 0 0 0 0 0 10 1535 1906 2033 1374 1003 727 752 620 782 1410 1379 1332 1471 1712 1761 1741 1561 1539 1644 1343 1386 1337 1505
0 0 0 0 0 0 0 0 0 0 0 0 0 0 0 0 0 0 0 0 0 0 0 0 0 0 0 0 0 7 0 2 0 1 0 0 0 21 326 1143 1045 1571 1560 1318 1578 1153 1303 1159 1263
0 0 0 0 0 0 0 0 0 0 0 0 0 0 0 0 0 0 0 0 0 0 0 0 0 0 0 0 0 0 0 1 0 0 0 0 0 0 1 2 3 0 161 1598 1711 1131 947 851 1128
0 0 0 0 0 0 0 0 0 0 0 0 0 0 0 0 0 0 0 0 0 0 0 0 0 0 0 0 0 0 0 0 0 0 0 0 0 0 0 0 1 0 6 5 796 1388 1153 1033 1127
0 0 0 0 0 0 0 0 0 0 0 0 0 0 0 0 0 0 0 0 0 0 0 0 0 0 0 0 0 0 0 0 0 0 0 0 0 0 0 0 0 0 0 0 124 246 791 1096 1237
0 0 0 0 0 0 0 0 0 0 0 0 0 0 4 2 0 0 0 0 0 0 0 0 0 0 0 0 0 0 0 0 0 0 0 0 0 0 0 0 0 0 0 0 0 0 86 613 605
0 0 0 0 0 0 0 0 0 0 3 2 3 1 1 0 0 0 0 0 0 0 0 0 0 0 0 0 1 2 1 0 0 0 0 0 2 3 1 4 5 5 4 2 0 0 0 439 290
0 0 0 0 0 0 0 0 0 0 4 1 1 3 3 2 2 1 0 0 0 0 0 0 0 0 0 0 0 0 0 0 0 0 0 1 4 5 8 4 1 1 4 3 1 6 7 5 224
0 0 0 0 0 0 0 0 0 0 1 2 4 4 5 4 1 1 0 0 0 0 0 0 0 1 2 1 0 0 0 1 6 5 4 4 5 9 2 4 6 7 10 8 7 7 2 7 12
0 0 0 0 0 0 0 0 0 0 0 3 4 5 4 4 4 2 0 0 0 0 0 0 0 1 1 4 5 4 0 0 4 8 7 5 7 3 5 7 7 7 9 9 8 10 12 14 5
0 0 0 0 0 2 0 0 0 0 0 2 3 3 3 4 5 3 2 2 3 3 0 0 0 0 0 1 3 4 5 2 4 5 5 3 4 5 2 6 6 6 8 9 10 8 7 13 19
0 2 2 1 2 0 0 0 0 1 2 2 1 3 4 3 4 7 7 6 7 6 5 7 2 2 2 4 1 4 4 5 6 6 7 9 5 6 7 5 5 5 6 8 10 11 9 10 13
0 0 1 0 0 0 0 0 0 2 0 2 2 2 5 5 6 4 3 2 3 3 5 3 3 5 3 7 5 4 9 8 5 5 6 7 8 7 5 5 4 4 4 9 6 12 13 13 17
0 0 0 9 1 3 1 0 0 3 3 3 4 6 4 4 4 5 4 3 3 4 4 5 5 4 4 6 6 4 4 7 9 7 8 9 8 6 6 5 4 4 5 5 7 8 10 11 8
0 0 2 32 29 4 0 0 0 8 5 8 7 7 7 4 0 3 3 5 6 5 5 4 6 7 6 8 7 9 9 8 9 8 7 8 6 6 5 7 7 7 5 5 5 6 6 8 10
0 1 0 3 1 23 2 0 0 0 0 2 2 5 6 2 1 1 1 2 6 4 4 7 8 9 7 7 9 6 5 7 8 8 8 8 7 7 7 9 11 12 10 9 8 7 8 9 11
1 12 1 40 3 2 2 0 0 0 0 1 3 7 2 1 0 0 0 1 2 2 6 7 7 8 8 9 8 9 8 9 6 7 7 7 7 5 4 7 14 16 16 16 10 11 10 9 9